<?xml version="1.0" encoding="UTF-8" standalone="no" ?>
<gpx xmlns="http://www.topografix.com/GPX/1/1" xmlns:xsi="http://www.w3.org/2001/XMLSchema-instance" xsi:schemaLocation="http://www.topografix.com/GPX/1/1 http://www.topografix.com/GPX/1/1/gpx.xsd" version="1.1" creator="VisuGPX - https://www.visugpx.com">
  <metadata>
    <name>Sainte Croix du Mont n°2</name>
  </metadata>
  <trk>
    <name><![CDATA[Randonnée du 30/11/2019 à 12:03]]></name>
    <trkseg>
      <trkpt lat="44.594" lon="-0.28281">
        <ele>85</ele>
        <time>2019-05-23T08:47:07+02:00</time>
      </trkpt>
      <trkpt lat="44.5937" lon="-0.28279">
        <ele>83</ele>
        <time>2019-05-23T08:48:42+02:00</time>
      </trkpt>
      <trkpt lat="44.59362" lon="-0.28292">
        <ele>81</ele>
        <time>2019-05-23T08:48:51+02:00</time>
      </trkpt>
      <trkpt lat="44.59361" lon="-0.28305">
        <ele>80</ele>
        <time>2019-05-23T08:49:00+02:00</time>
      </trkpt>
      <trkpt lat="44.59361" lon="-0.2832">
        <ele>78</ele>
        <time>2019-05-23T08:49:09+02:00</time>
      </trkpt>
      <trkpt lat="44.59365" lon="-0.28334">
        <ele>77</ele>
        <time>2019-05-23T08:49:23+02:00</time>
      </trkpt>
      <trkpt lat="44.59357" lon="-0.28333">
        <ele>76</ele>
        <time>2019-05-23T08:49:37+02:00</time>
      </trkpt>
      <trkpt lat="44.5935" lon="-0.28323">
        <ele>76</ele>
        <time>2019-05-23T08:49:46+02:00</time>
      </trkpt>
      <trkpt lat="44.59344" lon="-0.28312">
        <ele>77</ele>
        <time>2019-05-23T08:49:54+02:00</time>
      </trkpt>
      <trkpt lat="44.59336" lon="-0.28311">
        <ele>76</ele>
        <time>2019-05-23T08:50:05+02:00</time>
      </trkpt>
      <trkpt lat="44.59338" lon="-0.28317">
        <ele>76</ele>
        <time>2019-05-23T08:50:26+02:00</time>
      </trkpt>
      <trkpt lat="44.59331" lon="-0.28308">
        <ele>76</ele>
        <time>2019-05-23T08:50:35+02:00</time>
      </trkpt>
      <trkpt lat="44.59321" lon="-0.28298">
        <ele>75</ele>
        <time>2019-05-23T08:50:48+02:00</time>
      </trkpt>
      <trkpt lat="44.59311" lon="-0.28291">
        <ele>73</ele>
        <time>2019-05-23T08:50:57+02:00</time>
      </trkpt>
      <trkpt lat="44.59303" lon="-0.2828">
        <ele>73</ele>
        <time>2019-05-23T08:51:07+02:00</time>
      </trkpt>
      <trkpt lat="44.59298" lon="-0.28279">
        <ele>71</ele>
        <time>2019-05-23T08:51:21+02:00</time>
      </trkpt>
      <trkpt lat="44.59304" lon="-0.28288">
        <ele>72</ele>
        <time>2019-05-23T08:51:33+02:00</time>
      </trkpt>
      <trkpt lat="44.59313" lon="-0.28299">
        <ele>73</ele>
        <time>2019-05-23T08:51:49+02:00</time>
      </trkpt>
      <trkpt lat="44.5932" lon="-0.28311">
        <ele>73</ele>
        <time>2019-05-23T08:52:01+02:00</time>
      </trkpt>
      <trkpt lat="44.59326" lon="-0.28322">
        <ele>73</ele>
        <time>2019-05-23T08:52:12+02:00</time>
      </trkpt>
      <trkpt lat="44.59331" lon="-0.28332">
        <ele>72</ele>
        <time>2019-05-23T08:52:28+02:00</time>
      </trkpt>
      <trkpt lat="44.59324" lon="-0.28347">
        <ele>68</ele>
        <time>2019-05-23T08:52:43+02:00</time>
      </trkpt>
      <trkpt lat="44.59314" lon="-0.28358">
        <ele>63</ele>
        <time>2019-05-23T08:52:54+02:00</time>
      </trkpt>
      <trkpt lat="44.59306" lon="-0.28369">
        <ele>59</ele>
        <time>2019-05-23T08:53:04+02:00</time>
      </trkpt>
      <trkpt lat="44.59304" lon="-0.28381">
        <ele>56</ele>
        <time>2019-05-23T08:53:14+02:00</time>
      </trkpt>
      <trkpt lat="44.59313" lon="-0.28381">
        <ele>59</ele>
        <time>2019-05-23T08:53:24+02:00</time>
      </trkpt>
      <trkpt lat="44.59322" lon="-0.28382">
        <ele>61</ele>
        <time>2019-05-23T08:53:31+02:00</time>
      </trkpt>
      <trkpt lat="44.59329" lon="-0.28391">
        <ele>61</ele>
        <time>2019-05-23T08:53:38+02:00</time>
      </trkpt>
      <trkpt lat="44.59333" lon="-0.28405">
        <ele>59</ele>
        <time>2019-05-23T08:53:45+02:00</time>
      </trkpt>
      <trkpt lat="44.5934" lon="-0.28416">
        <ele>59</ele>
        <time>2019-05-23T08:53:52+02:00</time>
      </trkpt>
      <trkpt lat="44.59345" lon="-0.28428">
        <ele>58</ele>
        <time>2019-05-23T08:53:59+02:00</time>
      </trkpt>
      <trkpt lat="44.59352" lon="-0.28439">
        <ele>58</ele>
        <time>2019-05-23T08:54:07+02:00</time>
      </trkpt>
      <trkpt lat="44.59358" lon="-0.2845">
        <ele>58</ele>
        <time>2019-05-23T08:54:14+02:00</time>
      </trkpt>
      <trkpt lat="44.59365" lon="-0.2846">
        <ele>58</ele>
        <time>2019-05-23T08:54:21+02:00</time>
      </trkpt>
      <trkpt lat="44.59371" lon="-0.28471">
        <ele>57</ele>
        <time>2019-05-23T08:54:28+02:00</time>
      </trkpt>
      <trkpt lat="44.59379" lon="-0.28481">
        <ele>58</ele>
        <time>2019-05-23T08:54:35+02:00</time>
      </trkpt>
      <trkpt lat="44.59385" lon="-0.28492">
        <ele>57</ele>
        <time>2019-05-23T08:54:42+02:00</time>
      </trkpt>
      <trkpt lat="44.59392" lon="-0.28503">
        <ele>57</ele>
        <time>2019-05-23T08:54:49+02:00</time>
      </trkpt>
      <trkpt lat="44.59398" lon="-0.28515">
        <ele>55</ele>
        <time>2019-05-23T08:54:56+02:00</time>
      </trkpt>
      <trkpt lat="44.59404" lon="-0.28526">
        <ele>54</ele>
        <time>2019-05-23T08:55:03+02:00</time>
      </trkpt>
      <trkpt lat="44.59409" lon="-0.28538">
        <ele>53</ele>
        <time>2019-05-23T08:55:10+02:00</time>
      </trkpt>
      <trkpt lat="44.59416" lon="-0.28546">
        <ele>52</ele>
        <time>2019-05-23T08:55:17+02:00</time>
      </trkpt>
      <trkpt lat="44.59424" lon="-0.28553">
        <ele>51</ele>
        <time>2019-05-23T08:55:24+02:00</time>
      </trkpt>
      <trkpt lat="44.59433" lon="-0.28554">
        <ele>51</ele>
        <time>2019-05-23T08:55:31+02:00</time>
      </trkpt>
      <trkpt lat="44.59443" lon="-0.28557">
        <ele>51</ele>
        <time>2019-05-23T08:55:38+02:00</time>
      </trkpt>
      <trkpt lat="44.59452" lon="-0.28559">
        <ele>51</ele>
        <time>2019-05-23T08:55:45+02:00</time>
      </trkpt>
      <trkpt lat="44.59461" lon="-0.28563">
        <ele>50</ele>
        <time>2019-05-23T08:55:52+02:00</time>
      </trkpt>
      <trkpt lat="44.59472" lon="-0.28561">
        <ele>51</ele>
        <time>2019-05-23T08:55:59+02:00</time>
      </trkpt>
      <trkpt lat="44.59482" lon="-0.28563">
        <ele>51</ele>
        <time>2019-05-23T08:56:06+02:00</time>
      </trkpt>
      <trkpt lat="44.59491" lon="-0.28561">
        <ele>52</ele>
        <time>2019-05-23T08:56:13+02:00</time>
      </trkpt>
      <trkpt lat="44.59501" lon="-0.28559">
        <ele>53</ele>
        <time>2019-05-23T08:56:20+02:00</time>
      </trkpt>
      <trkpt lat="44.5951" lon="-0.28558">
        <ele>52</ele>
        <time>2019-05-23T08:56:27+02:00</time>
      </trkpt>
      <trkpt lat="44.5952" lon="-0.28553">
        <ele>51</ele>
        <time>2019-05-23T08:56:34+02:00</time>
      </trkpt>
      <trkpt lat="44.59529" lon="-0.28552">
        <ele>50</ele>
        <time>2019-05-23T08:56:41+02:00</time>
      </trkpt>
      <trkpt lat="44.59538" lon="-0.28546">
        <ele>49</ele>
        <time>2019-05-23T08:56:49+02:00</time>
      </trkpt>
      <trkpt lat="44.59547" lon="-0.28538">
        <ele>49</ele>
        <time>2019-05-23T08:57:08+02:00</time>
      </trkpt>
      <trkpt lat="44.59554" lon="-0.28529">
        <ele>49</ele>
        <time>2019-05-23T08:57:16+02:00</time>
      </trkpt>
      <trkpt lat="44.59561" lon="-0.28518">
        <ele>49</ele>
        <time>2019-05-23T08:57:24+02:00</time>
      </trkpt>
      <trkpt lat="44.59567" lon="-0.28507">
        <ele>49</ele>
        <time>2019-05-23T08:57:32+02:00</time>
      </trkpt>
      <trkpt lat="44.59575" lon="-0.28497">
        <ele>49</ele>
        <time>2019-05-23T08:57:40+02:00</time>
      </trkpt>
      <trkpt lat="44.59582" lon="-0.28488">
        <ele>48</ele>
        <time>2019-05-23T08:57:48+02:00</time>
      </trkpt>
      <trkpt lat="44.59588" lon="-0.28477">
        <ele>50</ele>
        <time>2019-05-23T08:57:55+02:00</time>
      </trkpt>
      <trkpt lat="44.59594" lon="-0.28466">
        <ele>51</ele>
        <time>2019-05-23T08:58:03+02:00</time>
      </trkpt>
      <trkpt lat="44.59601" lon="-0.28454">
        <ele>52</ele>
        <time>2019-05-23T08:58:11+02:00</time>
      </trkpt>
      <trkpt lat="44.59607" lon="-0.28443">
        <ele>52</ele>
        <time>2019-05-23T08:58:19+02:00</time>
      </trkpt>
      <trkpt lat="44.5961" lon="-0.2843">
        <ele>54</ele>
        <time>2019-05-23T08:58:26+02:00</time>
      </trkpt>
      <trkpt lat="44.59613" lon="-0.28416">
        <ele>55</ele>
        <time>2019-05-23T08:58:34+02:00</time>
      </trkpt>
      <trkpt lat="44.59615" lon="-0.28403">
        <ele>56</ele>
        <time>2019-05-23T08:58:42+02:00</time>
      </trkpt>
      <trkpt lat="44.59615" lon="-0.2839">
        <ele>58</ele>
        <time>2019-05-23T08:58:49+02:00</time>
      </trkpt>
      <trkpt lat="44.59615" lon="-0.28375">
        <ele>59</ele>
        <time>2019-05-23T08:58:58+02:00</time>
      </trkpt>
      <trkpt lat="44.59619" lon="-0.28356">
        <ele>60</ele>
        <time>2019-05-23T08:59:09+02:00</time>
      </trkpt>
      <trkpt lat="44.59623" lon="-0.2834">
        <ele>60</ele>
        <time>2019-05-23T08:59:17+02:00</time>
      </trkpt>
      <trkpt lat="44.59629" lon="-0.28325">
        <ele>60</ele>
        <time>2019-05-23T08:59:25+02:00</time>
      </trkpt>
      <trkpt lat="44.59632" lon="-0.28311">
        <ele>60</ele>
        <time>2019-05-23T08:59:32+02:00</time>
      </trkpt>
      <trkpt lat="44.59632" lon="-0.28296">
        <ele>60</ele>
        <time>2019-05-23T08:59:40+02:00</time>
      </trkpt>
      <trkpt lat="44.5963" lon="-0.28282">
        <ele>61</ele>
        <time>2019-05-23T08:59:48+02:00</time>
      </trkpt>
      <trkpt lat="44.59632" lon="-0.28266">
        <ele>62</ele>
        <time>2019-05-23T08:59:56+02:00</time>
      </trkpt>
      <trkpt lat="44.59632" lon="-0.28252">
        <ele>62</ele>
        <time>2019-05-23T09:00:07+02:00</time>
      </trkpt>
      <trkpt lat="44.59633" lon="-0.28238">
        <ele>62</ele>
        <time>2019-05-23T09:00:16+02:00</time>
      </trkpt>
      <trkpt lat="44.59637" lon="-0.28224">
        <ele>61</ele>
        <time>2019-05-23T09:00:24+02:00</time>
      </trkpt>
      <trkpt lat="44.59639" lon="-0.2821">
        <ele>61</ele>
        <time>2019-05-23T09:00:31+02:00</time>
      </trkpt>
      <trkpt lat="44.59642" lon="-0.28197">
        <ele>61</ele>
        <time>2019-05-23T09:00:38+02:00</time>
      </trkpt>
      <trkpt lat="44.59647" lon="-0.28189">
        <ele>60</ele>
        <time>2019-05-23T09:00:46+02:00</time>
      </trkpt>
      <trkpt lat="44.59655" lon="-0.28195">
        <ele>59</ele>
        <time>2019-05-23T09:00:54+02:00</time>
      </trkpt>
      <trkpt lat="44.5966" lon="-0.28208">
        <ele>59</ele>
        <time>2019-05-23T09:01:02+02:00</time>
      </trkpt>
      <trkpt lat="44.59666" lon="-0.2822">
        <ele>58</ele>
        <time>2019-05-23T09:01:10+02:00</time>
      </trkpt>
      <trkpt lat="44.59671" lon="-0.28233">
        <ele>58</ele>
        <time>2019-05-23T09:01:18+02:00</time>
      </trkpt>
      <trkpt lat="44.59676" lon="-0.28244">
        <ele>58</ele>
        <time>2019-05-23T09:01:26+02:00</time>
      </trkpt>
      <trkpt lat="44.59682" lon="-0.28254">
        <ele>59</ele>
        <time>2019-05-23T09:01:34+02:00</time>
      </trkpt>
      <trkpt lat="44.59689" lon="-0.28264">
        <ele>59</ele>
        <time>2019-05-23T09:01:42+02:00</time>
      </trkpt>
      <trkpt lat="44.59698" lon="-0.28272">
        <ele>59</ele>
        <time>2019-05-23T09:01:50+02:00</time>
      </trkpt>
      <trkpt lat="44.59706" lon="-0.28276">
        <ele>60</ele>
        <time>2019-05-23T09:01:58+02:00</time>
      </trkpt>
      <trkpt lat="44.59716" lon="-0.28275">
        <ele>61</ele>
        <time>2019-05-23T09:02:08+02:00</time>
      </trkpt>
      <trkpt lat="44.59724" lon="-0.28284">
        <ele>62</ele>
        <time>2019-05-23T09:02:21+02:00</time>
      </trkpt>
      <trkpt lat="44.59734" lon="-0.28292">
        <ele>62</ele>
        <time>2019-05-23T09:02:34+02:00</time>
      </trkpt>
      <trkpt lat="44.59741" lon="-0.28303">
        <ele>62</ele>
        <time>2019-05-23T09:02:43+02:00</time>
      </trkpt>
      <trkpt lat="44.59749" lon="-0.28311">
        <ele>62</ele>
        <time>2019-05-23T09:02:52+02:00</time>
      </trkpt>
      <trkpt lat="44.59761" lon="-0.28318">
        <ele>62</ele>
        <time>2019-05-23T09:03:06+02:00</time>
      </trkpt>
      <trkpt lat="44.59773" lon="-0.28325">
        <ele>62</ele>
        <time>2019-05-23T09:03:15+02:00</time>
      </trkpt>
      <trkpt lat="44.59785" lon="-0.28324">
        <ele>62</ele>
        <time>2019-05-23T09:03:24+02:00</time>
      </trkpt>
      <trkpt lat="44.59798" lon="-0.28324">
        <ele>63</ele>
        <time>2019-05-23T09:03:35+02:00</time>
      </trkpt>
      <trkpt lat="44.5981" lon="-0.28321">
        <ele>64</ele>
        <time>2019-05-23T09:03:45+02:00</time>
      </trkpt>
      <trkpt lat="44.59821" lon="-0.28318">
        <ele>66</ele>
        <time>2019-05-23T09:03:54+02:00</time>
      </trkpt>
      <trkpt lat="44.59835" lon="-0.28316">
        <ele>67</ele>
        <time>2019-05-23T09:04:06+02:00</time>
      </trkpt>
      <trkpt lat="44.59847" lon="-0.28312">
        <ele>68</ele>
        <time>2019-05-23T09:04:16+02:00</time>
      </trkpt>
      <trkpt lat="44.59861" lon="-0.28301">
        <ele>71</ele>
        <time>2019-05-23T09:04:27+02:00</time>
      </trkpt>
      <trkpt lat="44.59871" lon="-0.28299">
        <ele>71</ele>
        <time>2019-05-23T09:04:35+02:00</time>
      </trkpt>
      <trkpt lat="44.5988" lon="-0.2829">
        <ele>73</ele>
        <time>2019-05-23T09:04:42+02:00</time>
      </trkpt>
      <trkpt lat="44.59886" lon="-0.28279">
        <ele>74</ele>
        <time>2019-05-23T09:04:49+02:00</time>
      </trkpt>
      <trkpt lat="44.59894" lon="-0.28269">
        <ele>75</ele>
        <time>2019-05-23T09:04:59+02:00</time>
      </trkpt>
      <trkpt lat="44.59907" lon="-0.28265">
        <ele>76</ele>
        <time>2019-05-23T09:05:09+02:00</time>
      </trkpt>
      <trkpt lat="44.59915" lon="-0.28269">
        <ele>75</ele>
        <time>2019-05-23T09:05:20+02:00</time>
      </trkpt>
      <trkpt lat="44.59929" lon="-0.28269">
        <ele>76</ele>
        <time>2019-05-23T09:05:31+02:00</time>
      </trkpt>
      <trkpt lat="44.59944" lon="-0.28271">
        <ele>76</ele>
        <time>2019-05-23T09:05:42+02:00</time>
      </trkpt>
      <trkpt lat="44.59953" lon="-0.2828">
        <ele>76</ele>
        <time>2019-05-23T09:05:50+02:00</time>
      </trkpt>
      <trkpt lat="44.59963" lon="-0.28277">
        <ele>77</ele>
        <time>2019-05-23T09:05:58+02:00</time>
      </trkpt>
      <trkpt lat="44.59969" lon="-0.28287">
        <ele>77</ele>
        <time>2019-05-23T09:06:06+02:00</time>
      </trkpt>
      <trkpt lat="44.59974" lon="-0.283">
        <ele>77</ele>
        <time>2019-05-23T09:06:15+02:00</time>
      </trkpt>
      <trkpt lat="44.5998" lon="-0.28311">
        <ele>77</ele>
        <time>2019-05-23T09:06:24+02:00</time>
      </trkpt>
      <trkpt lat="44.59984" lon="-0.28325">
        <ele>78</ele>
        <time>2019-05-23T09:06:35+02:00</time>
      </trkpt>
      <trkpt lat="44.59987" lon="-0.28339">
        <ele>78</ele>
        <time>2019-05-23T09:06:46+02:00</time>
      </trkpt>
      <trkpt lat="44.59992" lon="-0.2835">
        <ele>79</ele>
        <time>2019-05-23T09:06:58+02:00</time>
      </trkpt>
      <trkpt lat="44.5999" lon="-0.28363">
        <ele>79</ele>
        <time>2019-05-23T09:07:07+02:00</time>
      </trkpt>
      <trkpt lat="44.59993" lon="-0.28375">
        <ele>80</ele>
        <time>2019-05-23T09:07:16+02:00</time>
      </trkpt>
      <trkpt lat="44.60002" lon="-0.28385">
        <ele>81</ele>
        <time>2019-05-23T09:07:26+02:00</time>
      </trkpt>
      <trkpt lat="44.60011" lon="-0.2839">
        <ele>83</ele>
        <time>2019-05-23T09:07:35+02:00</time>
      </trkpt>
      <trkpt lat="44.60019" lon="-0.284">
        <ele>84</ele>
        <time>2019-05-23T09:07:44+02:00</time>
      </trkpt>
      <trkpt lat="44.60029" lon="-0.28409">
        <ele>85</ele>
        <time>2019-05-23T09:07:54+02:00</time>
      </trkpt>
      <trkpt lat="44.60037" lon="-0.28418">
        <ele>86</ele>
        <time>2019-05-23T09:08:03+02:00</time>
      </trkpt>
      <trkpt lat="44.60047" lon="-0.28423">
        <ele>88</ele>
        <time>2019-05-23T09:08:12+02:00</time>
      </trkpt>
      <trkpt lat="44.60057" lon="-0.28425">
        <ele>89</ele>
        <time>2019-05-23T09:08:21+02:00</time>
      </trkpt>
      <trkpt lat="44.60066" lon="-0.28425">
        <ele>90</ele>
        <time>2019-05-23T09:08:31+02:00</time>
      </trkpt>
      <trkpt lat="44.6008" lon="-0.28423">
        <ele>92</ele>
        <time>2019-05-23T09:08:48+02:00</time>
      </trkpt>
      <trkpt lat="44.60094" lon="-0.28427">
        <ele>93</ele>
        <time>2019-05-23T09:09:00+02:00</time>
      </trkpt>
      <trkpt lat="44.60104" lon="-0.28431">
        <ele>94</ele>
        <time>2019-05-23T09:09:10+02:00</time>
      </trkpt>
      <trkpt lat="44.60114" lon="-0.28433">
        <ele>95</ele>
        <time>2019-05-23T09:09:21+02:00</time>
      </trkpt>
      <trkpt lat="44.60126" lon="-0.28434">
        <ele>97</ele>
        <time>2019-05-23T09:09:31+02:00</time>
      </trkpt>
      <trkpt lat="44.60137" lon="-0.28436">
        <ele>98</ele>
        <time>2019-05-23T09:09:42+02:00</time>
      </trkpt>
      <trkpt lat="44.60148" lon="-0.28431">
        <ele>99</ele>
        <time>2019-05-23T09:09:54+02:00</time>
      </trkpt>
      <trkpt lat="44.60161" lon="-0.2843">
        <ele>100</ele>
        <time>2019-05-23T09:10:05+02:00</time>
      </trkpt>
      <trkpt lat="44.60173" lon="-0.28427">
        <ele>101</ele>
        <time>2019-05-23T09:10:14+02:00</time>
      </trkpt>
      <trkpt lat="44.60184" lon="-0.28424">
        <ele>102</ele>
        <time>2019-05-23T09:10:23+02:00</time>
      </trkpt>
      <trkpt lat="44.60195" lon="-0.28421">
        <ele>103</ele>
        <time>2019-05-23T09:10:33+02:00</time>
      </trkpt>
      <trkpt lat="44.60206" lon="-0.28417">
        <ele>104</ele>
        <time>2019-05-23T09:10:43+02:00</time>
      </trkpt>
      <trkpt lat="44.60217" lon="-0.28414">
        <ele>105</ele>
        <time>2019-05-23T09:10:52+02:00</time>
      </trkpt>
      <trkpt lat="44.60227" lon="-0.28412">
        <ele>105</ele>
        <time>2019-05-23T09:11:01+02:00</time>
      </trkpt>
      <trkpt lat="44.60235" lon="-0.28408">
        <ele>106</ele>
        <time>2019-05-23T09:11:09+02:00</time>
      </trkpt>
      <trkpt lat="44.60245" lon="-0.28406">
        <ele>107</ele>
        <time>2019-05-23T09:11:20+02:00</time>
      </trkpt>
      <trkpt lat="44.6025" lon="-0.28395">
        <ele>107</ele>
        <time>2019-05-23T09:11:42+02:00</time>
      </trkpt>
      <trkpt lat="44.6025" lon="-0.2838">
        <ele>107</ele>
        <time>2019-05-23T09:11:52+02:00</time>
      </trkpt>
      <trkpt lat="44.6025" lon="-0.28364">
        <ele>107</ele>
        <time>2019-05-23T09:12:00+02:00</time>
      </trkpt>
      <trkpt lat="44.60249" lon="-0.28351">
        <ele>107</ele>
        <time>2019-05-23T09:12:08+02:00</time>
      </trkpt>
      <trkpt lat="44.60246" lon="-0.28338">
        <ele>107</ele>
        <time>2019-05-23T09:12:16+02:00</time>
      </trkpt>
      <trkpt lat="44.6024" lon="-0.28327">
        <ele>106</ele>
        <time>2019-05-23T09:12:24+02:00</time>
      </trkpt>
      <trkpt lat="44.60235" lon="-0.28314">
        <ele>105</ele>
        <time>2019-05-23T09:12:32+02:00</time>
      </trkpt>
      <trkpt lat="44.60233" lon="-0.28299">
        <ele>104</ele>
        <time>2019-05-23T09:12:41+02:00</time>
      </trkpt>
      <trkpt lat="44.60237" lon="-0.28284">
        <ele>104</ele>
        <time>2019-05-23T09:12:50+02:00</time>
      </trkpt>
      <trkpt lat="44.60243" lon="-0.28271">
        <ele>105</ele>
        <time>2019-05-23T09:12:58+02:00</time>
      </trkpt>
      <trkpt lat="44.60251" lon="-0.28261">
        <ele>105</ele>
        <time>2019-05-23T09:13:08+02:00</time>
      </trkpt>
      <trkpt lat="44.60255" lon="-0.28245">
        <ele>105</ele>
        <time>2019-05-23T09:13:17+02:00</time>
      </trkpt>
      <trkpt lat="44.6026" lon="-0.2823">
        <ele>105</ele>
        <time>2019-05-23T09:13:26+02:00</time>
      </trkpt>
      <trkpt lat="44.60265" lon="-0.28216">
        <ele>106</ele>
        <time>2019-05-23T09:13:35+02:00</time>
      </trkpt>
      <trkpt lat="44.60269" lon="-0.28201">
        <ele>106</ele>
        <time>2019-05-23T09:13:43+02:00</time>
      </trkpt>
      <trkpt lat="44.60273" lon="-0.28185">
        <ele>106</ele>
        <time>2019-05-23T09:13:51+02:00</time>
      </trkpt>
      <trkpt lat="44.60277" lon="-0.2817">
        <ele>106</ele>
        <time>2019-05-23T09:13:59+02:00</time>
      </trkpt>
      <trkpt lat="44.60282" lon="-0.28159">
        <ele>107</ele>
        <time>2019-05-23T09:14:06+02:00</time>
      </trkpt>
      <trkpt lat="44.60287" lon="-0.28146">
        <ele>107</ele>
        <time>2019-05-23T09:14:13+02:00</time>
      </trkpt>
      <trkpt lat="44.60291" lon="-0.28134">
        <ele>108</ele>
        <time>2019-05-23T09:14:20+02:00</time>
      </trkpt>
      <trkpt lat="44.60295" lon="-0.28121">
        <ele>109</ele>
        <time>2019-05-23T09:14:28+02:00</time>
      </trkpt>
      <trkpt lat="44.60297" lon="-0.28107">
        <ele>109</ele>
        <time>2019-05-23T09:14:36+02:00</time>
      </trkpt>
      <trkpt lat="44.60301" lon="-0.28094">
        <ele>110</ele>
        <time>2019-05-23T09:14:45+02:00</time>
      </trkpt>
      <trkpt lat="44.60308" lon="-0.28089">
        <ele>110</ele>
        <time>2019-05-23T09:15:01+02:00</time>
      </trkpt>
      <trkpt lat="44.60314" lon="-0.2808">
        <ele>111</ele>
        <time>2019-05-23T09:15:20+02:00</time>
      </trkpt>
      <trkpt lat="44.60325" lon="-0.28072">
        <ele>111</ele>
        <time>2019-05-23T09:15:33+02:00</time>
      </trkpt>
      <trkpt lat="44.60335" lon="-0.28058">
        <ele>112</ele>
        <time>2019-05-23T09:15:45+02:00</time>
      </trkpt>
      <trkpt lat="44.60343" lon="-0.28047">
        <ele>112</ele>
        <time>2019-05-23T09:15:54+02:00</time>
      </trkpt>
      <trkpt lat="44.60353" lon="-0.28035">
        <ele>113</ele>
        <time>2019-05-23T09:16:04+02:00</time>
      </trkpt>
      <trkpt lat="44.60362" lon="-0.28026">
        <ele>113</ele>
        <time>2019-05-23T09:16:12+02:00</time>
      </trkpt>
      <trkpt lat="44.60371" lon="-0.28018">
        <ele>113</ele>
        <time>2019-05-23T09:16:21+02:00</time>
      </trkpt>
      <trkpt lat="44.60379" lon="-0.28009">
        <ele>113</ele>
        <time>2019-05-23T09:16:29+02:00</time>
      </trkpt>
      <trkpt lat="44.60385" lon="-0.27995">
        <ele>113</ele>
        <time>2019-05-23T09:16:38+02:00</time>
      </trkpt>
      <trkpt lat="44.60392" lon="-0.27984">
        <ele>113</ele>
        <time>2019-05-23T09:16:46+02:00</time>
      </trkpt>
      <trkpt lat="44.60398" lon="-0.27972">
        <ele>114</ele>
        <time>2019-05-23T09:16:54+02:00</time>
      </trkpt>
      <trkpt lat="44.60404" lon="-0.2796">
        <ele>114</ele>
        <time>2019-05-23T09:17:03+02:00</time>
      </trkpt>
      <trkpt lat="44.60413" lon="-0.2795">
        <ele>114</ele>
        <time>2019-05-23T09:17:12+02:00</time>
      </trkpt>
      <trkpt lat="44.6042" lon="-0.27945">
        <ele>115</ele>
        <time>2019-05-23T09:17:39+02:00</time>
      </trkpt>
      <trkpt lat="44.60428" lon="-0.27939">
        <ele>115</ele>
        <time>2019-05-23T09:18:16+02:00</time>
      </trkpt>
      <trkpt lat="44.60436" lon="-0.2795">
        <ele>114</ele>
        <time>2019-05-23T09:18:25+02:00</time>
      </trkpt>
      <trkpt lat="44.60444" lon="-0.27955">
        <ele>114</ele>
        <time>2019-05-23T09:18:34+02:00</time>
      </trkpt>
      <trkpt lat="44.60451" lon="-0.27966">
        <ele>114</ele>
        <time>2019-05-23T09:18:46+02:00</time>
      </trkpt>
      <trkpt lat="44.60457" lon="-0.27978">
        <ele>114</ele>
        <time>2019-05-23T09:18:54+02:00</time>
      </trkpt>
      <trkpt lat="44.60464" lon="-0.2799">
        <ele>114</ele>
        <time>2019-05-23T09:19:02+02:00</time>
      </trkpt>
      <trkpt lat="44.60469" lon="-0.28002">
        <ele>114</ele>
        <time>2019-05-23T09:19:09+02:00</time>
      </trkpt>
      <trkpt lat="44.60474" lon="-0.28015">
        <ele>114</ele>
        <time>2019-05-23T09:19:16+02:00</time>
      </trkpt>
      <trkpt lat="44.60477" lon="-0.28025">
        <ele>114</ele>
        <time>2019-05-23T09:19:30+02:00</time>
      </trkpt>
      <trkpt lat="44.60482" lon="-0.28038">
        <ele>114</ele>
        <time>2019-05-23T09:19:38+02:00</time>
      </trkpt>
      <trkpt lat="44.60486" lon="-0.2805">
        <ele>114</ele>
        <time>2019-05-23T09:19:45+02:00</time>
      </trkpt>
      <trkpt lat="44.60492" lon="-0.28059">
        <ele>114</ele>
        <time>2019-05-23T09:19:57+02:00</time>
      </trkpt>
      <trkpt lat="44.60499" lon="-0.2807">
        <ele>114</ele>
        <time>2019-05-23T09:20:04+02:00</time>
      </trkpt>
      <trkpt lat="44.60504" lon="-0.28081">
        <ele>114</ele>
        <time>2019-05-23T09:20:11+02:00</time>
      </trkpt>
      <trkpt lat="44.60511" lon="-0.28091">
        <ele>114</ele>
        <time>2019-05-23T09:20:18+02:00</time>
      </trkpt>
      <trkpt lat="44.60519" lon="-0.281">
        <ele>113</ele>
        <time>2019-05-23T09:20:30+02:00</time>
      </trkpt>
      <trkpt lat="44.60525" lon="-0.28112">
        <ele>113</ele>
        <time>2019-05-23T09:20:41+02:00</time>
      </trkpt>
      <trkpt lat="44.60532" lon="-0.28121">
        <ele>113</ele>
        <time>2019-05-23T09:20:48+02:00</time>
      </trkpt>
      <trkpt lat="44.60539" lon="-0.28132">
        <ele>113</ele>
        <time>2019-05-23T09:20:56+02:00</time>
      </trkpt>
      <trkpt lat="44.60547" lon="-0.28143">
        <ele>113</ele>
        <time>2019-05-23T09:21:05+02:00</time>
      </trkpt>
      <trkpt lat="44.60553" lon="-0.28152">
        <ele>113</ele>
        <time>2019-05-23T09:21:13+02:00</time>
      </trkpt>
      <trkpt lat="44.60554" lon="-0.28165">
        <ele>113</ele>
        <time>2019-05-23T09:21:27+02:00</time>
      </trkpt>
      <trkpt lat="44.60547" lon="-0.28176">
        <ele>113</ele>
        <time>2019-05-23T09:21:35+02:00</time>
      </trkpt>
      <trkpt lat="44.60539" lon="-0.28185">
        <ele>112</ele>
        <time>2019-05-23T09:21:42+02:00</time>
      </trkpt>
      <trkpt lat="44.60532" lon="-0.28194">
        <ele>112</ele>
        <time>2019-05-23T09:21:49+02:00</time>
      </trkpt>
      <trkpt lat="44.60525" lon="-0.28204">
        <ele>112</ele>
        <time>2019-05-23T09:21:56+02:00</time>
      </trkpt>
      <trkpt lat="44.60517" lon="-0.28213">
        <ele>112</ele>
        <time>2019-05-23T09:22:03+02:00</time>
      </trkpt>
      <trkpt lat="44.6051" lon="-0.28223">
        <ele>112</ele>
        <time>2019-05-23T09:22:11+02:00</time>
      </trkpt>
      <trkpt lat="44.60506" lon="-0.28235">
        <ele>111</ele>
        <time>2019-05-23T09:22:19+02:00</time>
      </trkpt>
      <trkpt lat="44.60511" lon="-0.28246">
        <ele>111</ele>
        <time>2019-05-23T09:22:51+02:00</time>
      </trkpt>
      <trkpt lat="44.60517" lon="-0.28257">
        <ele>110</ele>
        <time>2019-05-23T09:22:59+02:00</time>
      </trkpt>
      <trkpt lat="44.60524" lon="-0.28266">
        <ele>110</ele>
        <time>2019-05-23T09:23:06+02:00</time>
      </trkpt>
      <trkpt lat="44.60531" lon="-0.28277">
        <ele>109</ele>
        <time>2019-05-23T09:23:14+02:00</time>
      </trkpt>
      <trkpt lat="44.60538" lon="-0.28289">
        <ele>108</ele>
        <time>2019-05-23T09:23:22+02:00</time>
      </trkpt>
      <trkpt lat="44.60545" lon="-0.283">
        <ele>108</ele>
        <time>2019-05-23T09:23:31+02:00</time>
      </trkpt>
      <trkpt lat="44.6055" lon="-0.2831">
        <ele>107</ele>
        <time>2019-05-23T09:23:38+02:00</time>
      </trkpt>
      <trkpt lat="44.60557" lon="-0.28319">
        <ele>106</ele>
        <time>2019-05-23T09:23:45+02:00</time>
      </trkpt>
      <trkpt lat="44.60563" lon="-0.2833">
        <ele>106</ele>
        <time>2019-05-23T09:23:52+02:00</time>
      </trkpt>
      <trkpt lat="44.60569" lon="-0.28342">
        <ele>105</ele>
        <time>2019-05-23T09:23:59+02:00</time>
      </trkpt>
      <trkpt lat="44.60575" lon="-0.28352">
        <ele>104</ele>
        <time>2019-05-23T09:24:06+02:00</time>
      </trkpt>
      <trkpt lat="44.60581" lon="-0.28364">
        <ele>104</ele>
        <time>2019-05-23T09:24:13+02:00</time>
      </trkpt>
      <trkpt lat="44.60588" lon="-0.28374">
        <ele>103</ele>
        <time>2019-05-23T09:24:20+02:00</time>
      </trkpt>
      <trkpt lat="44.60592" lon="-0.28387">
        <ele>103</ele>
        <time>2019-05-23T09:24:26+02:00</time>
      </trkpt>
      <trkpt lat="44.60593" lon="-0.28401">
        <ele>102</ele>
        <time>2019-05-23T09:24:33+02:00</time>
      </trkpt>
      <trkpt lat="44.60598" lon="-0.28413">
        <ele>102</ele>
        <time>2019-05-23T09:24:40+02:00</time>
      </trkpt>
      <trkpt lat="44.60601" lon="-0.28428">
        <ele>102</ele>
        <time>2019-05-23T09:24:48+02:00</time>
      </trkpt>
      <trkpt lat="44.60604" lon="-0.28443">
        <ele>102</ele>
        <time>2019-05-23T09:24:55+02:00</time>
      </trkpt>
      <trkpt lat="44.60608" lon="-0.28457">
        <ele>102</ele>
        <time>2019-05-23T09:25:02+02:00</time>
      </trkpt>
      <trkpt lat="44.60611" lon="-0.28471">
        <ele>102</ele>
        <time>2019-05-23T09:25:10+02:00</time>
      </trkpt>
      <trkpt lat="44.60616" lon="-0.28484">
        <ele>102</ele>
        <time>2019-05-23T09:25:17+02:00</time>
      </trkpt>
      <trkpt lat="44.6062" lon="-0.28495">
        <ele>102</ele>
        <time>2019-05-23T09:25:23+02:00</time>
      </trkpt>
      <trkpt lat="44.60623" lon="-0.28509">
        <ele>102</ele>
        <time>2019-05-23T09:25:30+02:00</time>
      </trkpt>
      <trkpt lat="44.60627" lon="-0.28522">
        <ele>102</ele>
        <time>2019-05-23T09:25:37+02:00</time>
      </trkpt>
      <trkpt lat="44.6063" lon="-0.28535">
        <ele>102</ele>
        <time>2019-05-23T09:25:44+02:00</time>
      </trkpt>
      <trkpt lat="44.60632" lon="-0.28548">
        <ele>102</ele>
        <time>2019-05-23T09:25:50+02:00</time>
      </trkpt>
      <trkpt lat="44.60637" lon="-0.2856">
        <ele>102</ele>
        <time>2019-05-23T09:25:57+02:00</time>
      </trkpt>
      <trkpt lat="44.6064" lon="-0.28574">
        <ele>103</ele>
        <time>2019-05-23T09:26:04+02:00</time>
      </trkpt>
      <trkpt lat="44.60644" lon="-0.28587">
        <ele>103</ele>
        <time>2019-05-23T09:26:11+02:00</time>
      </trkpt>
      <trkpt lat="44.60647" lon="-0.286">
        <ele>103</ele>
        <time>2019-05-23T09:26:18+02:00</time>
      </trkpt>
      <trkpt lat="44.60651" lon="-0.28613">
        <ele>103</ele>
        <time>2019-05-23T09:26:25+02:00</time>
      </trkpt>
      <trkpt lat="44.60655" lon="-0.28627">
        <ele>103</ele>
        <time>2019-05-23T09:26:33+02:00</time>
      </trkpt>
      <trkpt lat="44.60658" lon="-0.2864">
        <ele>103</ele>
        <time>2019-05-23T09:26:40+02:00</time>
      </trkpt>
      <trkpt lat="44.60664" lon="-0.28653">
        <ele>103</ele>
        <time>2019-05-23T09:26:48+02:00</time>
      </trkpt>
      <trkpt lat="44.60671" lon="-0.28661">
        <ele>103</ele>
        <time>2019-05-23T09:27:10+02:00</time>
      </trkpt>
      <trkpt lat="44.60679" lon="-0.28671">
        <ele>103</ele>
        <time>2019-05-23T09:27:19+02:00</time>
      </trkpt>
      <trkpt lat="44.60689" lon="-0.28686">
        <ele>103</ele>
        <time>2019-05-23T09:27:26+02:00</time>
      </trkpt>
      <trkpt lat="44.60699" lon="-0.28705">
        <ele>102</ele>
        <time>2019-05-23T09:27:34+02:00</time>
      </trkpt>
      <trkpt lat="44.60715" lon="-0.28735">
        <ele>101</ele>
        <time>2019-05-23T09:27:41+02:00</time>
      </trkpt>
      <trkpt lat="44.60729" lon="-0.28756">
        <ele>101</ele>
        <time>2019-05-23T09:27:48+02:00</time>
      </trkpt>
      <trkpt lat="44.60742" lon="-0.28777">
        <ele>100</ele>
        <time>2019-05-23T09:27:56+02:00</time>
      </trkpt>
      <trkpt lat="44.6075" lon="-0.28789">
        <ele>100</ele>
        <time>2019-05-23T09:28:04+02:00</time>
      </trkpt>
      <trkpt lat="44.60759" lon="-0.28804">
        <ele>99</ele>
        <time>2019-05-23T09:28:11+02:00</time>
      </trkpt>
      <trkpt lat="44.60769" lon="-0.28821">
        <ele>99</ele>
        <time>2019-05-23T09:28:18+02:00</time>
      </trkpt>
      <trkpt lat="44.60775" lon="-0.28833">
        <ele>98</ele>
        <time>2019-05-23T09:28:25+02:00</time>
      </trkpt>
      <trkpt lat="44.60769" lon="-0.28847">
        <ele>98</ele>
        <time>2019-05-23T09:28:32+02:00</time>
      </trkpt>
      <trkpt lat="44.60759" lon="-0.28868">
        <ele>97</ele>
        <time>2019-05-23T09:28:40+02:00</time>
      </trkpt>
      <trkpt lat="44.60747" lon="-0.28885">
        <ele>96</ele>
        <time>2019-05-23T09:28:47+02:00</time>
      </trkpt>
      <trkpt lat="44.60736" lon="-0.28901">
        <ele>94</ele>
        <time>2019-05-23T09:28:54+02:00</time>
      </trkpt>
      <trkpt lat="44.60726" lon="-0.28919">
        <ele>93</ele>
        <time>2019-05-23T09:29:01+02:00</time>
      </trkpt>
      <trkpt lat="44.60714" lon="-0.28937">
        <ele>91</ele>
        <time>2019-05-23T09:29:08+02:00</time>
      </trkpt>
      <trkpt lat="44.607" lon="-0.28959">
        <ele>89</ele>
        <time>2019-05-23T09:29:15+02:00</time>
      </trkpt>
      <trkpt lat="44.60691" lon="-0.28971">
        <ele>87</ele>
        <time>2019-05-23T09:29:22+02:00</time>
      </trkpt>
      <trkpt lat="44.60681" lon="-0.28988">
        <ele>85</ele>
        <time>2019-05-23T09:29:29+02:00</time>
      </trkpt>
      <trkpt lat="44.60675" lon="-0.28999">
        <ele>84</ele>
        <time>2019-05-23T09:33:19+02:00</time>
      </trkpt>
      <trkpt lat="44.60667" lon="-0.29008">
        <ele>83</ele>
        <time>2019-05-23T09:33:27+02:00</time>
      </trkpt>
      <trkpt lat="44.60658" lon="-0.29016">
        <ele>83</ele>
        <time>2019-05-23T09:33:35+02:00</time>
      </trkpt>
      <trkpt lat="44.60649" lon="-0.29023">
        <ele>82</ele>
        <time>2019-05-23T09:33:43+02:00</time>
      </trkpt>
      <trkpt lat="44.60641" lon="-0.2903">
        <ele>81</ele>
        <time>2019-05-23T09:33:50+02:00</time>
      </trkpt>
      <trkpt lat="44.60632" lon="-0.29037">
        <ele>80</ele>
        <time>2019-05-23T09:33:57+02:00</time>
      </trkpt>
      <trkpt lat="44.60624" lon="-0.29042">
        <ele>80</ele>
        <time>2019-05-23T09:34:04+02:00</time>
      </trkpt>
      <trkpt lat="44.60616" lon="-0.29047">
        <ele>79</ele>
        <time>2019-05-23T09:34:20+02:00</time>
      </trkpt>
      <trkpt lat="44.60607" lon="-0.29054">
        <ele>78</ele>
        <time>2019-05-23T09:34:28+02:00</time>
      </trkpt>
      <trkpt lat="44.60599" lon="-0.29061">
        <ele>77</ele>
        <time>2019-05-23T09:34:35+02:00</time>
      </trkpt>
      <trkpt lat="44.6059" lon="-0.29069">
        <ele>75</ele>
        <time>2019-05-23T09:34:43+02:00</time>
      </trkpt>
      <trkpt lat="44.60583" lon="-0.29079">
        <ele>74</ele>
        <time>2019-05-23T09:34:51+02:00</time>
      </trkpt>
      <trkpt lat="44.6058" lon="-0.29092">
        <ele>73</ele>
        <time>2019-05-23T09:34:59+02:00</time>
      </trkpt>
      <trkpt lat="44.60573" lon="-0.29105">
        <ele>70</ele>
        <time>2019-05-23T09:35:07+02:00</time>
      </trkpt>
      <trkpt lat="44.60568" lon="-0.29117">
        <ele>68</ele>
        <time>2019-05-23T09:35:16+02:00</time>
      </trkpt>
      <trkpt lat="44.60574" lon="-0.29129">
        <ele>68</ele>
        <time>2019-05-23T09:35:24+02:00</time>
      </trkpt>
      <trkpt lat="44.60582" lon="-0.29138">
        <ele>69</ele>
        <time>2019-05-23T09:35:32+02:00</time>
      </trkpt>
      <trkpt lat="44.60589" lon="-0.29149">
        <ele>69</ele>
        <time>2019-05-23T09:35:41+02:00</time>
      </trkpt>
      <trkpt lat="44.60598" lon="-0.29157">
        <ele>70</ele>
        <time>2019-05-23T09:35:48+02:00</time>
      </trkpt>
      <trkpt lat="44.60606" lon="-0.29165">
        <ele>71</ele>
        <time>2019-05-23T09:35:56+02:00</time>
      </trkpt>
      <trkpt lat="44.60615" lon="-0.29174">
        <ele>71</ele>
        <time>2019-05-23T09:36:05+02:00</time>
      </trkpt>
      <trkpt lat="44.60622" lon="-0.29184">
        <ele>71</ele>
        <time>2019-05-23T09:36:13+02:00</time>
      </trkpt>
      <trkpt lat="44.60631" lon="-0.29194">
        <ele>71</ele>
        <time>2019-05-23T09:36:22+02:00</time>
      </trkpt>
      <trkpt lat="44.60639" lon="-0.29204">
        <ele>70</ele>
        <time>2019-05-23T09:36:31+02:00</time>
      </trkpt>
      <trkpt lat="44.60647" lon="-0.29213">
        <ele>70</ele>
        <time>2019-05-23T09:36:39+02:00</time>
      </trkpt>
      <trkpt lat="44.60656" lon="-0.29225">
        <ele>70</ele>
        <time>2019-05-23T09:36:47+02:00</time>
      </trkpt>
      <trkpt lat="44.60665" lon="-0.29233">
        <ele>71</ele>
        <time>2019-05-23T09:36:55+02:00</time>
      </trkpt>
      <trkpt lat="44.60676" lon="-0.29235">
        <ele>74</ele>
        <time>2019-05-23T09:37:05+02:00</time>
      </trkpt>
      <trkpt lat="44.60688" lon="-0.29233">
        <ele>76</ele>
        <time>2019-05-23T09:37:14+02:00</time>
      </trkpt>
      <trkpt lat="44.60698" lon="-0.29224">
        <ele>80</ele>
        <time>2019-05-23T09:37:23+02:00</time>
      </trkpt>
      <trkpt lat="44.60707" lon="-0.29218">
        <ele>82</ele>
        <time>2019-05-23T09:37:34+02:00</time>
      </trkpt>
      <trkpt lat="44.60716" lon="-0.29223">
        <ele>84</ele>
        <time>2019-05-23T09:37:44+02:00</time>
      </trkpt>
      <trkpt lat="44.60725" lon="-0.29231">
        <ele>85</ele>
        <time>2019-05-23T09:37:53+02:00</time>
      </trkpt>
      <trkpt lat="44.60734" lon="-0.29239">
        <ele>86</ele>
        <time>2019-05-23T09:38:02+02:00</time>
      </trkpt>
      <trkpt lat="44.60743" lon="-0.29245">
        <ele>88</ele>
        <time>2019-05-23T09:38:11+02:00</time>
      </trkpt>
      <trkpt lat="44.60751" lon="-0.29255">
        <ele>88</ele>
        <time>2019-05-23T09:38:19+02:00</time>
      </trkpt>
      <trkpt lat="44.60759" lon="-0.29266">
        <ele>87</ele>
        <time>2019-05-23T09:38:30+02:00</time>
      </trkpt>
      <trkpt lat="44.60768" lon="-0.29278">
        <ele>87</ele>
        <time>2019-05-23T09:38:39+02:00</time>
      </trkpt>
      <trkpt lat="44.60776" lon="-0.29289">
        <ele>86</ele>
        <time>2019-05-23T09:38:50+02:00</time>
      </trkpt>
      <trkpt lat="44.6078" lon="-0.29299">
        <ele>86</ele>
        <time>2019-05-23T09:39:03+02:00</time>
      </trkpt>
      <trkpt lat="44.60785" lon="-0.29312">
        <ele>85</ele>
        <time>2019-05-23T09:39:12+02:00</time>
      </trkpt>
      <trkpt lat="44.60791" lon="-0.29324">
        <ele>85</ele>
        <time>2019-05-23T09:39:20+02:00</time>
      </trkpt>
      <trkpt lat="44.60799" lon="-0.29334">
        <ele>85</ele>
        <time>2019-05-23T09:39:29+02:00</time>
      </trkpt>
      <trkpt lat="44.60807" lon="-0.29344">
        <ele>85</ele>
        <time>2019-05-23T09:39:38+02:00</time>
      </trkpt>
      <trkpt lat="44.60816" lon="-0.29353">
        <ele>85</ele>
        <time>2019-05-23T09:39:46+02:00</time>
      </trkpt>
      <trkpt lat="44.60825" lon="-0.29358">
        <ele>87</ele>
        <time>2019-05-23T09:39:54+02:00</time>
      </trkpt>
      <trkpt lat="44.60837" lon="-0.29364">
        <ele>88</ele>
        <time>2019-05-23T09:40:04+02:00</time>
      </trkpt>
      <trkpt lat="44.60847" lon="-0.29374">
        <ele>87</ele>
        <time>2019-05-23T09:40:12+02:00</time>
      </trkpt>
      <trkpt lat="44.60859" lon="-0.29381">
        <ele>87</ele>
        <time>2019-05-23T09:40:22+02:00</time>
      </trkpt>
      <trkpt lat="44.60871" lon="-0.29385">
        <ele>88</ele>
        <time>2019-05-23T09:40:31+02:00</time>
      </trkpt>
      <trkpt lat="44.60883" lon="-0.29389">
        <ele>90</ele>
        <time>2019-05-23T09:40:40+02:00</time>
      </trkpt>
      <trkpt lat="44.60894" lon="-0.29396">
        <ele>90</ele>
        <time>2019-05-23T09:40:49+02:00</time>
      </trkpt>
      <trkpt lat="44.60905" lon="-0.29403">
        <ele>92</ele>
        <time>2019-05-23T09:41:00+02:00</time>
      </trkpt>
      <trkpt lat="44.60919" lon="-0.29411">
        <ele>93</ele>
        <time>2019-05-23T09:41:09+02:00</time>
      </trkpt>
      <trkpt lat="44.6093" lon="-0.29419">
        <ele>93</ele>
        <time>2019-05-23T09:41:17+02:00</time>
      </trkpt>
      <trkpt lat="44.60937" lon="-0.29429">
        <ele>92</ele>
        <time>2019-05-23T09:41:25+02:00</time>
      </trkpt>
      <trkpt lat="44.60945" lon="-0.2944">
        <ele>90</ele>
        <time>2019-05-23T09:41:34+02:00</time>
      </trkpt>
      <trkpt lat="44.60953" lon="-0.29451">
        <ele>89</ele>
        <time>2019-05-23T09:41:43+02:00</time>
      </trkpt>
      <trkpt lat="44.60961" lon="-0.29468">
        <ele>87</ele>
        <time>2019-05-23T09:41:53+02:00</time>
      </trkpt>
      <trkpt lat="44.60973" lon="-0.29473">
        <ele>88</ele>
        <time>2019-05-23T09:42:01+02:00</time>
      </trkpt>
      <trkpt lat="44.60985" lon="-0.29476">
        <ele>89</ele>
        <time>2019-05-23T09:42:10+02:00</time>
      </trkpt>
      <trkpt lat="44.60997" lon="-0.29477">
        <ele>91</ele>
        <time>2019-05-23T09:42:18+02:00</time>
      </trkpt>
      <trkpt lat="44.61008" lon="-0.29473">
        <ele>92</ele>
        <time>2019-05-23T09:42:26+02:00</time>
      </trkpt>
      <trkpt lat="44.61021" lon="-0.29469">
        <ele>92</ele>
        <time>2019-05-23T09:42:34+02:00</time>
      </trkpt>
      <trkpt lat="44.61032" lon="-0.29467">
        <ele>93</ele>
        <time>2019-05-23T09:42:41+02:00</time>
      </trkpt>
      <trkpt lat="44.61042" lon="-0.29462">
        <ele>93</ele>
        <time>2019-05-23T09:42:49+02:00</time>
      </trkpt>
      <trkpt lat="44.6105" lon="-0.29459">
        <ele>93</ele>
        <time>2019-05-23T09:43:06+02:00</time>
      </trkpt>
      <trkpt lat="44.61061" lon="-0.29457">
        <ele>94</ele>
        <time>2019-05-23T09:43:15+02:00</time>
      </trkpt>
      <trkpt lat="44.61072" lon="-0.2946">
        <ele>94</ele>
        <time>2019-05-23T09:43:24+02:00</time>
      </trkpt>
      <trkpt lat="44.61081" lon="-0.29467">
        <ele>94</ele>
        <time>2019-05-23T09:43:32+02:00</time>
      </trkpt>
      <trkpt lat="44.61091" lon="-0.29476">
        <ele>94</ele>
        <time>2019-05-23T09:43:40+02:00</time>
      </trkpt>
      <trkpt lat="44.61099" lon="-0.29486">
        <ele>94</ele>
        <time>2019-05-23T09:43:49+02:00</time>
      </trkpt>
      <trkpt lat="44.61105" lon="-0.29498">
        <ele>94</ele>
        <time>2019-05-23T09:43:57+02:00</time>
      </trkpt>
      <trkpt lat="44.61109" lon="-0.29514">
        <ele>93</ele>
        <time>2019-05-23T09:44:06+02:00</time>
      </trkpt>
      <trkpt lat="44.61113" lon="-0.2953">
        <ele>93</ele>
        <time>2019-05-23T09:44:14+02:00</time>
      </trkpt>
      <trkpt lat="44.61118" lon="-0.29544">
        <ele>92</ele>
        <time>2019-05-23T09:44:22+02:00</time>
      </trkpt>
      <trkpt lat="44.61124" lon="-0.29557">
        <ele>92</ele>
        <time>2019-05-23T09:44:30+02:00</time>
      </trkpt>
      <trkpt lat="44.6113" lon="-0.29567">
        <ele>92</ele>
        <time>2019-05-23T09:44:37+02:00</time>
      </trkpt>
      <trkpt lat="44.61137" lon="-0.29577">
        <ele>93</ele>
        <time>2019-05-23T09:44:45+02:00</time>
      </trkpt>
      <trkpt lat="44.61145" lon="-0.29583">
        <ele>94</ele>
        <time>2019-05-23T09:44:53+02:00</time>
      </trkpt>
      <trkpt lat="44.61153" lon="-0.29581">
        <ele>95</ele>
        <time>2019-05-23T09:45:17+02:00</time>
      </trkpt>
      <trkpt lat="44.61161" lon="-0.29571">
        <ele>96</ele>
        <time>2019-05-23T09:45:26+02:00</time>
      </trkpt>
      <trkpt lat="44.61171" lon="-0.29562">
        <ele>96</ele>
        <time>2019-05-23T09:45:36+02:00</time>
      </trkpt>
      <trkpt lat="44.61181" lon="-0.29555">
        <ele>94</ele>
        <time>2019-05-23T09:45:46+02:00</time>
      </trkpt>
      <trkpt lat="44.61196" lon="-0.29553">
        <ele>92</ele>
        <time>2019-05-23T09:45:57+02:00</time>
      </trkpt>
      <trkpt lat="44.61202" lon="-0.29555">
        <ele>91</ele>
        <time>2019-05-23T09:46:40+02:00</time>
      </trkpt>
      <trkpt lat="44.61209" lon="-0.29564">
        <ele>91</ele>
        <time>2019-05-23T09:46:59+02:00</time>
      </trkpt>
      <trkpt lat="44.61214" lon="-0.2958">
        <ele>91</ele>
        <time>2019-05-23T09:47:09+02:00</time>
      </trkpt>
      <trkpt lat="44.61219" lon="-0.29595">
        <ele>89</ele>
        <time>2019-05-23T09:47:19+02:00</time>
      </trkpt>
      <trkpt lat="44.61223" lon="-0.29612">
        <ele>86</ele>
        <time>2019-05-23T09:47:29+02:00</time>
      </trkpt>
      <trkpt lat="44.61231" lon="-0.29624">
        <ele>84</ele>
        <time>2019-05-23T09:47:38+02:00</time>
      </trkpt>
      <trkpt lat="44.6124" lon="-0.29635">
        <ele>82</ele>
        <time>2019-05-23T09:47:47+02:00</time>
      </trkpt>
      <trkpt lat="44.61247" lon="-0.29647">
        <ele>81</ele>
        <time>2019-05-23T09:47:56+02:00</time>
      </trkpt>
      <trkpt lat="44.61258" lon="-0.29656">
        <ele>79</ele>
        <time>2019-05-23T09:48:06+02:00</time>
      </trkpt>
      <trkpt lat="44.6127" lon="-0.29661">
        <ele>76</ele>
        <time>2019-05-23T09:48:17+02:00</time>
      </trkpt>
      <trkpt lat="44.61281" lon="-0.29669">
        <ele>73</ele>
        <time>2019-05-23T09:48:28+02:00</time>
      </trkpt>
      <trkpt lat="44.61274" lon="-0.29677">
        <ele>73</ele>
        <time>2019-05-23T09:48:38+02:00</time>
      </trkpt>
      <trkpt lat="44.61265" lon="-0.29678">
        <ele>74</ele>
        <time>2019-05-23T09:48:48+02:00</time>
      </trkpt>
      <trkpt lat="44.61254" lon="-0.29678">
        <ele>76</ele>
        <time>2019-05-23T09:48:57+02:00</time>
      </trkpt>
      <trkpt lat="44.61239" lon="-0.29674">
        <ele>78</ele>
        <time>2019-05-23T09:49:32+02:00</time>
      </trkpt>
      <trkpt lat="44.61226" lon="-0.29667">
        <ele>80</ele>
        <time>2019-05-23T09:49:43+02:00</time>
      </trkpt>
      <trkpt lat="44.6121" lon="-0.29664">
        <ele>81</ele>
        <time>2019-05-23T09:49:56+02:00</time>
      </trkpt>
      <trkpt lat="44.61196" lon="-0.29662">
        <ele>82</ele>
        <time>2019-05-23T09:50:09+02:00</time>
      </trkpt>
      <trkpt lat="44.61185" lon="-0.29665">
        <ele>82</ele>
        <time>2019-05-23T09:50:19+02:00</time>
      </trkpt>
      <trkpt lat="44.61174" lon="-0.29668">
        <ele>81</ele>
        <time>2019-05-23T09:50:29+02:00</time>
      </trkpt>
      <trkpt lat="44.61161" lon="-0.29666">
        <ele>81</ele>
        <time>2019-05-23T09:50:39+02:00</time>
      </trkpt>
      <trkpt lat="44.61152" lon="-0.29668">
        <ele>79</ele>
        <time>2019-05-23T09:50:50+02:00</time>
      </trkpt>
      <trkpt lat="44.61143" lon="-0.29671">
        <ele>76</ele>
        <time>2019-05-23T09:51:12+02:00</time>
      </trkpt>
      <trkpt lat="44.61125" lon="-0.2968">
        <ele>70</ele>
        <time>2019-05-23T09:51:25+02:00</time>
      </trkpt>
      <trkpt lat="44.61115" lon="-0.2968">
        <ele>68</ele>
        <time>2019-05-23T09:51:33+02:00</time>
      </trkpt>
      <trkpt lat="44.61103" lon="-0.29682">
        <ele>66</ele>
        <time>2019-05-23T09:51:43+02:00</time>
      </trkpt>
      <trkpt lat="44.61091" lon="-0.29676">
        <ele>65</ele>
        <time>2019-05-23T09:51:55+02:00</time>
      </trkpt>
      <trkpt lat="44.61084" lon="-0.29672">
        <ele>65</ele>
        <time>2019-05-23T09:52:16+02:00</time>
      </trkpt>
      <trkpt lat="44.61084" lon="-0.29686">
        <ele>61</ele>
        <time>2019-05-23T09:52:26+02:00</time>
      </trkpt>
      <trkpt lat="44.6109" lon="-0.29698">
        <ele>59</ele>
        <time>2019-05-23T09:52:36+02:00</time>
      </trkpt>
      <trkpt lat="44.611" lon="-0.29706">
        <ele>59</ele>
        <time>2019-05-23T09:52:46+02:00</time>
      </trkpt>
      <trkpt lat="44.61111" lon="-0.29712">
        <ele>59</ele>
        <time>2019-05-23T09:52:55+02:00</time>
      </trkpt>
      <trkpt lat="44.61122" lon="-0.29716">
        <ele>59</ele>
        <time>2019-05-23T09:53:04+02:00</time>
      </trkpt>
      <trkpt lat="44.61133" lon="-0.29724">
        <ele>59</ele>
        <time>2019-05-23T09:53:14+02:00</time>
      </trkpt>
      <trkpt lat="44.61137" lon="-0.29741">
        <ele>54</ele>
        <time>2019-05-23T09:53:25+02:00</time>
      </trkpt>
      <trkpt lat="44.61142" lon="-0.29753">
        <ele>51</ele>
        <time>2019-05-23T09:53:35+02:00</time>
      </trkpt>
      <trkpt lat="44.61152" lon="-0.29758">
        <ele>51</ele>
        <time>2019-05-23T09:53:43+02:00</time>
      </trkpt>
      <trkpt lat="44.61162" lon="-0.29758">
        <ele>52</ele>
        <time>2019-05-23T09:53:50+02:00</time>
      </trkpt>
      <trkpt lat="44.61171" lon="-0.29761">
        <ele>52</ele>
        <time>2019-05-23T09:53:58+02:00</time>
      </trkpt>
      <trkpt lat="44.61181" lon="-0.29762">
        <ele>52</ele>
        <time>2019-05-23T09:54:12+02:00</time>
      </trkpt>
      <trkpt lat="44.61191" lon="-0.29761">
        <ele>53</ele>
        <time>2019-05-23T09:54:20+02:00</time>
      </trkpt>
      <trkpt lat="44.612" lon="-0.29763">
        <ele>53</ele>
        <time>2019-05-23T09:54:27+02:00</time>
      </trkpt>
      <trkpt lat="44.61209" lon="-0.29761">
        <ele>54</ele>
        <time>2019-05-23T09:54:34+02:00</time>
      </trkpt>
      <trkpt lat="44.6122" lon="-0.29759">
        <ele>55</ele>
        <time>2019-05-23T09:54:42+02:00</time>
      </trkpt>
      <trkpt lat="44.61231" lon="-0.29757">
        <ele>55</ele>
        <time>2019-05-23T09:54:49+02:00</time>
      </trkpt>
      <trkpt lat="44.6124" lon="-0.29757">
        <ele>56</ele>
        <time>2019-05-23T09:54:56+02:00</time>
      </trkpt>
      <trkpt lat="44.6125" lon="-0.29754">
        <ele>57</ele>
        <time>2019-05-23T09:55:03+02:00</time>
      </trkpt>
      <trkpt lat="44.61261" lon="-0.29758">
        <ele>55</ele>
        <time>2019-05-23T09:55:11+02:00</time>
      </trkpt>
      <trkpt lat="44.6127" lon="-0.29758">
        <ele>54</ele>
        <time>2019-05-23T09:55:18+02:00</time>
      </trkpt>
      <trkpt lat="44.6128" lon="-0.29759">
        <ele>53</ele>
        <time>2019-05-23T09:55:25+02:00</time>
      </trkpt>
      <trkpt lat="44.61289" lon="-0.29757">
        <ele>52</ele>
        <time>2019-05-23T09:55:32+02:00</time>
      </trkpt>
      <trkpt lat="44.61298" lon="-0.29754">
        <ele>52</ele>
        <time>2019-05-23T09:55:39+02:00</time>
      </trkpt>
      <trkpt lat="44.61307" lon="-0.2975">
        <ele>52</ele>
        <time>2019-05-23T09:55:47+02:00</time>
      </trkpt>
      <trkpt lat="44.61315" lon="-0.29741">
        <ele>53</ele>
        <time>2019-05-23T09:55:54+02:00</time>
      </trkpt>
      <trkpt lat="44.61321" lon="-0.29732">
        <ele>54</ele>
        <time>2019-05-23T09:56:02+02:00</time>
      </trkpt>
      <trkpt lat="44.6133" lon="-0.29725">
        <ele>54</ele>
        <time>2019-05-23T09:56:10+02:00</time>
      </trkpt>
      <trkpt lat="44.61341" lon="-0.29726">
        <ele>52</ele>
        <time>2019-05-23T09:56:20+02:00</time>
      </trkpt>
      <trkpt lat="44.6135" lon="-0.29721">
        <ele>51</ele>
        <time>2019-05-23T09:56:30+02:00</time>
      </trkpt>
      <trkpt lat="44.61358" lon="-0.29712">
        <ele>51</ele>
        <time>2019-05-23T09:56:38+02:00</time>
      </trkpt>
      <trkpt lat="44.61367" lon="-0.29708">
        <ele>50</ele>
        <time>2019-05-23T09:56:47+02:00</time>
      </trkpt>
      <trkpt lat="44.61375" lon="-0.29701">
        <ele>50</ele>
        <time>2019-05-23T09:56:55+02:00</time>
      </trkpt>
      <trkpt lat="44.61383" lon="-0.29697">
        <ele>49</ele>
        <time>2019-05-23T09:57:05+02:00</time>
      </trkpt>
      <trkpt lat="44.61393" lon="-0.29692">
        <ele>47</ele>
        <time>2019-05-23T09:57:14+02:00</time>
      </trkpt>
      <trkpt lat="44.61401" lon="-0.29688">
        <ele>46</ele>
        <time>2019-05-23T09:57:27+02:00</time>
      </trkpt>
      <trkpt lat="44.61409" lon="-0.29682">
        <ele>45</ele>
        <time>2019-05-23T09:57:36+02:00</time>
      </trkpt>
      <trkpt lat="44.61408" lon="-0.29669">
        <ele>47</ele>
        <time>2019-05-23T09:57:47+02:00</time>
      </trkpt>
      <trkpt lat="44.6141" lon="-0.29656">
        <ele>47</ele>
        <time>2019-05-23T09:58:01+02:00</time>
      </trkpt>
      <trkpt lat="44.61414" lon="-0.29644">
        <ele>47</ele>
        <time>2019-05-23T09:58:11+02:00</time>
      </trkpt>
      <trkpt lat="44.61416" lon="-0.29629">
        <ele>48</ele>
        <time>2019-05-23T09:58:21+02:00</time>
      </trkpt>
      <trkpt lat="44.61418" lon="-0.29617">
        <ele>48</ele>
        <time>2019-05-23T09:58:39+02:00</time>
      </trkpt>
      <trkpt lat="44.61424" lon="-0.29606">
        <ele>47</ele>
        <time>2019-05-23T09:58:48+02:00</time>
      </trkpt>
      <trkpt lat="44.61433" lon="-0.29607">
        <ele>46</ele>
        <time>2019-05-23T09:58:57+02:00</time>
      </trkpt>
      <trkpt lat="44.61444" lon="-0.2961">
        <ele>44</ele>
        <time>2019-05-23T09:59:06+02:00</time>
      </trkpt>
      <trkpt lat="44.61454" lon="-0.2961">
        <ele>42</ele>
        <time>2019-05-23T09:59:14+02:00</time>
      </trkpt>
      <trkpt lat="44.61465" lon="-0.29604">
        <ele>40</ele>
        <time>2019-05-23T09:59:22+02:00</time>
      </trkpt>
      <trkpt lat="44.61474" lon="-0.29598">
        <ele>39</ele>
        <time>2019-05-23T09:59:30+02:00</time>
      </trkpt>
      <trkpt lat="44.61483" lon="-0.2959">
        <ele>38</ele>
        <time>2019-05-23T09:59:39+02:00</time>
      </trkpt>
      <trkpt lat="44.61492" lon="-0.29585">
        <ele>36</ele>
        <time>2019-05-23T09:59:47+02:00</time>
      </trkpt>
      <trkpt lat="44.61497" lon="-0.29573">
        <ele>36</ele>
        <time>2019-05-23T09:59:55+02:00</time>
      </trkpt>
      <trkpt lat="44.615" lon="-0.2956">
        <ele>36</ele>
        <time>2019-05-23T10:00:04+02:00</time>
      </trkpt>
      <trkpt lat="44.61508" lon="-0.29551">
        <ele>35</ele>
        <time>2019-05-23T10:00:12+02:00</time>
      </trkpt>
      <trkpt lat="44.61518" lon="-0.29548">
        <ele>35</ele>
        <time>2019-05-23T10:00:20+02:00</time>
      </trkpt>
      <trkpt lat="44.61528" lon="-0.29548">
        <ele>34</ele>
        <time>2019-05-23T10:00:28+02:00</time>
      </trkpt>
      <trkpt lat="44.61538" lon="-0.29548">
        <ele>33</ele>
        <time>2019-05-23T10:00:36+02:00</time>
      </trkpt>
      <trkpt lat="44.61547" lon="-0.29548">
        <ele>32</ele>
        <time>2019-05-23T10:00:43+02:00</time>
      </trkpt>
      <trkpt lat="44.61557" lon="-0.29548">
        <ele>32</ele>
        <time>2019-05-23T10:00:51+02:00</time>
      </trkpt>
      <trkpt lat="44.61567" lon="-0.29546">
        <ele>31</ele>
        <time>2019-05-23T10:00:58+02:00</time>
      </trkpt>
      <trkpt lat="44.61577" lon="-0.29544">
        <ele>30</ele>
        <time>2019-05-23T10:01:06+02:00</time>
      </trkpt>
      <trkpt lat="44.61587" lon="-0.29543">
        <ele>30</ele>
        <time>2019-05-23T10:01:14+02:00</time>
      </trkpt>
      <trkpt lat="44.61597" lon="-0.29539">
        <ele>29</ele>
        <time>2019-05-23T10:01:22+02:00</time>
      </trkpt>
      <trkpt lat="44.61607" lon="-0.29536">
        <ele>29</ele>
        <time>2019-05-23T10:01:30+02:00</time>
      </trkpt>
      <trkpt lat="44.61617" lon="-0.29534">
        <ele>28</ele>
        <time>2019-05-23T10:01:40+02:00</time>
      </trkpt>
      <trkpt lat="44.61626" lon="-0.29534">
        <ele>27</ele>
        <time>2019-05-23T10:01:48+02:00</time>
      </trkpt>
      <trkpt lat="44.61636" lon="-0.29531">
        <ele>27</ele>
        <time>2019-05-23T10:01:56+02:00</time>
      </trkpt>
      <trkpt lat="44.61646" lon="-0.29531">
        <ele>26</ele>
        <time>2019-05-23T10:02:03+02:00</time>
      </trkpt>
      <trkpt lat="44.61656" lon="-0.29529">
        <ele>25</ele>
        <time>2019-05-23T10:02:11+02:00</time>
      </trkpt>
      <trkpt lat="44.61666" lon="-0.29529">
        <ele>25</ele>
        <time>2019-05-23T10:02:18+02:00</time>
      </trkpt>
      <trkpt lat="44.61676" lon="-0.29528">
        <ele>24</ele>
        <time>2019-05-23T10:02:25+02:00</time>
      </trkpt>
      <trkpt lat="44.61685" lon="-0.29528">
        <ele>23</ele>
        <time>2019-05-23T10:02:32+02:00</time>
      </trkpt>
      <trkpt lat="44.61695" lon="-0.29529">
        <ele>23</ele>
        <time>2019-05-23T10:02:40+02:00</time>
      </trkpt>
      <trkpt lat="44.61704" lon="-0.29529">
        <ele>22</ele>
        <time>2019-05-23T10:02:47+02:00</time>
      </trkpt>
      <trkpt lat="44.61714" lon="-0.29531">
        <ele>21</ele>
        <time>2019-05-23T10:02:55+02:00</time>
      </trkpt>
      <trkpt lat="44.61725" lon="-0.2953">
        <ele>21</ele>
        <time>2019-05-23T10:03:03+02:00</time>
      </trkpt>
      <trkpt lat="44.61734" lon="-0.29529">
        <ele>20</ele>
        <time>2019-05-23T10:03:11+02:00</time>
      </trkpt>
      <trkpt lat="44.61744" lon="-0.29526">
        <ele>19</ele>
        <time>2019-05-23T10:03:19+02:00</time>
      </trkpt>
      <trkpt lat="44.61754" lon="-0.29533">
        <ele>19</ele>
        <time>2019-05-23T10:03:28+02:00</time>
      </trkpt>
      <trkpt lat="44.61764" lon="-0.29537">
        <ele>19</ele>
        <time>2019-05-23T10:03:36+02:00</time>
      </trkpt>
      <trkpt lat="44.61775" lon="-0.29542">
        <ele>19</ele>
        <time>2019-05-23T10:03:45+02:00</time>
      </trkpt>
      <trkpt lat="44.61783" lon="-0.29548">
        <ele>19</ele>
        <time>2019-05-23T10:03:53+02:00</time>
      </trkpt>
      <trkpt lat="44.61793" lon="-0.2956">
        <ele>19</ele>
        <time>2019-05-23T10:04:02+02:00</time>
      </trkpt>
      <trkpt lat="44.618" lon="-0.29569">
        <ele>19</ele>
        <time>2019-05-23T10:04:10+02:00</time>
      </trkpt>
      <trkpt lat="44.61809" lon="-0.29577">
        <ele>19</ele>
        <time>2019-05-23T10:04:19+02:00</time>
      </trkpt>
      <trkpt lat="44.61819" lon="-0.29584">
        <ele>19</ele>
        <time>2019-05-23T10:04:30+02:00</time>
      </trkpt>
      <trkpt lat="44.61829" lon="-0.29591">
        <ele>19</ele>
        <time>2019-05-23T10:04:40+02:00</time>
      </trkpt>
      <trkpt lat="44.61838" lon="-0.29605">
        <ele>17</ele>
        <time>2019-05-23T10:05:19+02:00</time>
      </trkpt>
      <trkpt lat="44.6185" lon="-0.29594">
        <ele>17</ele>
        <time>2019-05-23T10:05:37+02:00</time>
      </trkpt>
      <trkpt lat="44.61857" lon="-0.2958">
        <ele>18</ele>
        <time>2019-05-23T10:05:46+02:00</time>
      </trkpt>
      <trkpt lat="44.61863" lon="-0.29569">
        <ele>17</ele>
        <time>2019-05-23T10:05:54+02:00</time>
      </trkpt>
      <trkpt lat="44.6187" lon="-0.29559">
        <ele>17</ele>
        <time>2019-05-23T10:06:02+02:00</time>
      </trkpt>
      <trkpt lat="44.61878" lon="-0.29549">
        <ele>17</ele>
        <time>2019-05-23T10:06:11+02:00</time>
      </trkpt>
      <trkpt lat="44.61883" lon="-0.29538">
        <ele>17</ele>
        <time>2019-05-23T10:06:19+02:00</time>
      </trkpt>
      <trkpt lat="44.61891" lon="-0.29529">
        <ele>17</ele>
        <time>2019-05-23T10:06:28+02:00</time>
      </trkpt>
      <trkpt lat="44.6189" lon="-0.29511">
        <ele>17</ele>
        <time>2019-05-23T10:06:39+02:00</time>
      </trkpt>
      <trkpt lat="44.61888" lon="-0.29497">
        <ele>18</ele>
        <time>2019-05-23T10:06:50+02:00</time>
      </trkpt>
      <trkpt lat="44.61885" lon="-0.29483">
        <ele>18</ele>
        <time>2019-05-23T10:06:58+02:00</time>
      </trkpt>
      <trkpt lat="44.61885" lon="-0.29468">
        <ele>19</ele>
        <time>2019-05-23T10:07:10+02:00</time>
      </trkpt>
      <trkpt lat="44.61886" lon="-0.29447">
        <ele>20</ele>
        <time>2019-05-23T10:07:19+02:00</time>
      </trkpt>
      <trkpt lat="44.61889" lon="-0.29428">
        <ele>21</ele>
        <time>2019-05-23T10:07:29+02:00</time>
      </trkpt>
      <trkpt lat="44.61894" lon="-0.29411">
        <ele>21</ele>
        <time>2019-05-23T10:07:38+02:00</time>
      </trkpt>
      <trkpt lat="44.61898" lon="-0.29394">
        <ele>21</ele>
        <time>2019-05-23T10:07:48+02:00</time>
      </trkpt>
      <trkpt lat="44.61901" lon="-0.29379">
        <ele>21</ele>
        <time>2019-05-23T10:07:55+02:00</time>
      </trkpt>
      <trkpt lat="44.61903" lon="-0.29363">
        <ele>21</ele>
        <time>2019-05-23T10:08:04+02:00</time>
      </trkpt>
      <trkpt lat="44.61899" lon="-0.29346">
        <ele>21</ele>
        <time>2019-05-23T10:08:21+02:00</time>
      </trkpt>
      <trkpt lat="44.61906" lon="-0.29338">
        <ele>21</ele>
        <time>2019-05-23T10:08:38+02:00</time>
      </trkpt>
      <trkpt lat="44.61906" lon="-0.29329">
        <ele>21</ele>
        <time>2019-05-23T10:09:26+02:00</time>
      </trkpt>
      <trkpt lat="44.61906" lon="-0.29317">
        <ele>20</ele>
        <time>2019-05-23T10:09:33+02:00</time>
      </trkpt>
      <trkpt lat="44.61908" lon="-0.29302">
        <ele>20</ele>
        <time>2019-05-23T10:09:41+02:00</time>
      </trkpt>
      <trkpt lat="44.61906" lon="-0.29288">
        <ele>19</ele>
        <time>2019-05-23T10:09:49+02:00</time>
      </trkpt>
      <trkpt lat="44.61912" lon="-0.29275">
        <ele>18</ele>
        <time>2019-05-23T10:09:57+02:00</time>
      </trkpt>
      <trkpt lat="44.6192" lon="-0.29267">
        <ele>18</ele>
        <time>2019-05-23T10:10:04+02:00</time>
      </trkpt>
      <trkpt lat="44.61929" lon="-0.2926">
        <ele>17</ele>
        <time>2019-05-23T10:10:13+02:00</time>
      </trkpt>
      <trkpt lat="44.6194" lon="-0.29254">
        <ele>17</ele>
        <time>2019-05-23T10:10:22+02:00</time>
      </trkpt>
      <trkpt lat="44.6195" lon="-0.29248">
        <ele>17</ele>
        <time>2019-05-23T10:10:31+02:00</time>
      </trkpt>
      <trkpt lat="44.61956" lon="-0.29236">
        <ele>17</ele>
        <time>2019-05-23T10:10:41+02:00</time>
      </trkpt>
      <trkpt lat="44.61953" lon="-0.29216">
        <ele>17</ele>
        <time>2019-05-23T10:10:53+02:00</time>
      </trkpt>
      <trkpt lat="44.61954" lon="-0.292">
        <ele>17</ele>
        <time>2019-05-23T10:11:02+02:00</time>
      </trkpt>
      <trkpt lat="44.61962" lon="-0.29194">
        <ele>17</ele>
        <time>2019-05-23T10:11:10+02:00</time>
      </trkpt>
      <trkpt lat="44.61972" lon="-0.2919">
        <ele>17</ele>
        <time>2019-05-23T10:11:18+02:00</time>
      </trkpt>
      <trkpt lat="44.61983" lon="-0.29187">
        <ele>17</ele>
        <time>2019-05-23T10:11:26+02:00</time>
      </trkpt>
      <trkpt lat="44.61993" lon="-0.29184">
        <ele>16</ele>
        <time>2019-05-23T10:11:34+02:00</time>
      </trkpt>
      <trkpt lat="44.62002" lon="-0.29184">
        <ele>16</ele>
        <time>2019-05-23T10:11:41+02:00</time>
      </trkpt>
      <trkpt lat="44.62012" lon="-0.2918">
        <ele>17</ele>
        <time>2019-05-23T10:11:48+02:00</time>
      </trkpt>
      <trkpt lat="44.62023" lon="-0.2918">
        <ele>18</ele>
        <time>2019-05-23T10:11:56+02:00</time>
      </trkpt>
      <trkpt lat="44.62033" lon="-0.29177">
        <ele>19</ele>
        <time>2019-05-23T10:12:03+02:00</time>
      </trkpt>
      <trkpt lat="44.62043" lon="-0.29176">
        <ele>20</ele>
        <time>2019-05-23T10:12:11+02:00</time>
      </trkpt>
      <trkpt lat="44.62053" lon="-0.29173">
        <ele>20</ele>
        <time>2019-05-23T10:12:18+02:00</time>
      </trkpt>
      <trkpt lat="44.62062" lon="-0.29171">
        <ele>21</ele>
        <time>2019-05-23T10:12:26+02:00</time>
      </trkpt>
      <trkpt lat="44.62072" lon="-0.2917">
        <ele>22</ele>
        <time>2019-05-23T10:12:34+02:00</time>
      </trkpt>
      <trkpt lat="44.62081" lon="-0.29167">
        <ele>23</ele>
        <time>2019-05-23T10:12:42+02:00</time>
      </trkpt>
      <trkpt lat="44.62091" lon="-0.29165">
        <ele>24</ele>
        <time>2019-05-23T10:12:51+02:00</time>
      </trkpt>
      <trkpt lat="44.62102" lon="-0.29164">
        <ele>26</ele>
        <time>2019-05-23T10:13:00+02:00</time>
      </trkpt>
      <trkpt lat="44.62111" lon="-0.29162">
        <ele>27</ele>
        <time>2019-05-23T10:13:08+02:00</time>
      </trkpt>
      <trkpt lat="44.62121" lon="-0.29161">
        <ele>28</ele>
        <time>2019-05-23T10:13:17+02:00</time>
      </trkpt>
      <trkpt lat="44.6213" lon="-0.2916">
        <ele>30</ele>
        <time>2019-05-23T10:13:25+02:00</time>
      </trkpt>
      <trkpt lat="44.62141" lon="-0.29159">
        <ele>31</ele>
        <time>2019-05-23T10:13:34+02:00</time>
      </trkpt>
      <trkpt lat="44.6215" lon="-0.29158">
        <ele>33</ele>
        <time>2019-05-23T10:13:42+02:00</time>
      </trkpt>
      <trkpt lat="44.62159" lon="-0.29156">
        <ele>34</ele>
        <time>2019-05-23T10:13:51+02:00</time>
      </trkpt>
      <trkpt lat="44.62169" lon="-0.29155">
        <ele>35</ele>
        <time>2019-05-23T10:14:01+02:00</time>
      </trkpt>
      <trkpt lat="44.62179" lon="-0.29155">
        <ele>37</ele>
        <time>2019-05-23T10:14:11+02:00</time>
      </trkpt>
      <trkpt lat="44.62185" lon="-0.29153">
        <ele>38</ele>
        <time>2019-05-23T10:14:56+02:00</time>
      </trkpt>
      <trkpt lat="44.62184" lon="-0.29139">
        <ele>38</ele>
        <time>2019-05-23T10:15:05+02:00</time>
      </trkpt>
      <trkpt lat="44.62185" lon="-0.29126">
        <ele>38</ele>
        <time>2019-05-23T10:15:13+02:00</time>
      </trkpt>
      <trkpt lat="44.62185" lon="-0.29112">
        <ele>38</ele>
        <time>2019-05-23T10:15:21+02:00</time>
      </trkpt>
      <trkpt lat="44.62186" lon="-0.29098">
        <ele>38</ele>
        <time>2019-05-23T10:15:29+02:00</time>
      </trkpt>
      <trkpt lat="44.62185" lon="-0.29084">
        <ele>38</ele>
        <time>2019-05-23T10:15:36+02:00</time>
      </trkpt>
      <trkpt lat="44.62186" lon="-0.29069">
        <ele>38</ele>
        <time>2019-05-23T10:15:44+02:00</time>
      </trkpt>
      <trkpt lat="44.62186" lon="-0.29055">
        <ele>38</ele>
        <time>2019-05-23T10:15:51+02:00</time>
      </trkpt>
      <trkpt lat="44.62186" lon="-0.29042">
        <ele>38</ele>
        <time>2019-05-23T10:15:58+02:00</time>
      </trkpt>
      <trkpt lat="44.62186" lon="-0.29029">
        <ele>38</ele>
        <time>2019-05-23T10:16:05+02:00</time>
      </trkpt>
      <trkpt lat="44.62187" lon="-0.29014">
        <ele>38</ele>
        <time>2019-05-23T10:16:13+02:00</time>
      </trkpt>
      <trkpt lat="44.62188" lon="-0.29001">
        <ele>38</ele>
        <time>2019-05-23T10:16:20+02:00</time>
      </trkpt>
      <trkpt lat="44.6219" lon="-0.28988">
        <ele>39</ele>
        <time>2019-05-23T10:16:29+02:00</time>
      </trkpt>
      <trkpt lat="44.6219" lon="-0.28975">
        <ele>39</ele>
        <time>2019-05-23T10:16:37+02:00</time>
      </trkpt>
      <trkpt lat="44.6219" lon="-0.28962">
        <ele>39</ele>
        <time>2019-05-23T10:16:45+02:00</time>
      </trkpt>
      <trkpt lat="44.62189" lon="-0.28948">
        <ele>39</ele>
        <time>2019-05-23T10:16:54+02:00</time>
      </trkpt>
      <trkpt lat="44.62186" lon="-0.28935">
        <ele>38</ele>
        <time>2019-05-23T10:17:01+02:00</time>
      </trkpt>
      <trkpt lat="44.62182" lon="-0.28922">
        <ele>38</ele>
        <time>2019-05-23T10:17:09+02:00</time>
      </trkpt>
      <trkpt lat="44.62177" lon="-0.2891">
        <ele>37</ele>
        <time>2019-05-23T10:17:17+02:00</time>
      </trkpt>
      <trkpt lat="44.62174" lon="-0.28896">
        <ele>36</ele>
        <time>2019-05-23T10:17:24+02:00</time>
      </trkpt>
      <trkpt lat="44.62174" lon="-0.28881">
        <ele>36</ele>
        <time>2019-05-23T10:17:32+02:00</time>
      </trkpt>
      <trkpt lat="44.62173" lon="-0.28867">
        <ele>36</ele>
        <time>2019-05-23T10:17:40+02:00</time>
      </trkpt>
      <trkpt lat="44.62172" lon="-0.28853">
        <ele>35</ele>
        <time>2019-05-23T10:17:47+02:00</time>
      </trkpt>
      <trkpt lat="44.6217" lon="-0.28838">
        <ele>35</ele>
        <time>2019-05-23T10:17:55+02:00</time>
      </trkpt>
      <trkpt lat="44.62168" lon="-0.28825">
        <ele>34</ele>
        <time>2019-05-23T10:18:02+02:00</time>
      </trkpt>
      <trkpt lat="44.62166" lon="-0.2881">
        <ele>34</ele>
        <time>2019-05-23T10:18:10+02:00</time>
      </trkpt>
      <trkpt lat="44.62168" lon="-0.28796">
        <ele>34</ele>
        <time>2019-05-23T10:18:19+02:00</time>
      </trkpt>
      <trkpt lat="44.62177" lon="-0.28797">
        <ele>36</ele>
        <time>2019-05-23T10:18:29+02:00</time>
      </trkpt>
      <trkpt lat="44.62187" lon="-0.28797">
        <ele>37</ele>
        <time>2019-05-23T10:18:38+02:00</time>
      </trkpt>
      <trkpt lat="44.62197" lon="-0.28798">
        <ele>39</ele>
        <time>2019-05-23T10:18:47+02:00</time>
      </trkpt>
      <trkpt lat="44.62207" lon="-0.288">
        <ele>40</ele>
        <time>2019-05-23T10:18:56+02:00</time>
      </trkpt>
      <trkpt lat="44.62216" lon="-0.288">
        <ele>42</ele>
        <time>2019-05-23T10:19:05+02:00</time>
      </trkpt>
      <trkpt lat="44.62225" lon="-0.288">
        <ele>43</ele>
        <time>2019-05-23T10:19:14+02:00</time>
      </trkpt>
      <trkpt lat="44.62232" lon="-0.28795">
        <ele>44</ele>
        <time>2019-05-23T10:19:24+02:00</time>
      </trkpt>
      <trkpt lat="44.62231" lon="-0.28781">
        <ele>44</ele>
        <time>2019-05-23T10:19:33+02:00</time>
      </trkpt>
      <trkpt lat="44.62231" lon="-0.28767">
        <ele>44</ele>
        <time>2019-05-23T10:19:40+02:00</time>
      </trkpt>
      <trkpt lat="44.62231" lon="-0.28753">
        <ele>43</ele>
        <time>2019-05-23T10:19:47+02:00</time>
      </trkpt>
      <trkpt lat="44.62231" lon="-0.28739">
        <ele>43</ele>
        <time>2019-05-23T10:19:55+02:00</time>
      </trkpt>
      <trkpt lat="44.62232" lon="-0.28724">
        <ele>42</ele>
        <time>2019-05-23T10:20:05+02:00</time>
      </trkpt>
      <trkpt lat="44.62231" lon="-0.2871">
        <ele>42</ele>
        <time>2019-05-23T10:20:12+02:00</time>
      </trkpt>
      <trkpt lat="44.62234" lon="-0.28697">
        <ele>41</ele>
        <time>2019-05-23T10:20:23+02:00</time>
      </trkpt>
      <trkpt lat="44.62225" lon="-0.28693">
        <ele>40</ele>
        <time>2019-05-23T10:21:07+02:00</time>
      </trkpt>
      <trkpt lat="44.62216" lon="-0.28692">
        <ele>39</ele>
        <time>2019-05-23T10:21:18+02:00</time>
      </trkpt>
      <trkpt lat="44.62207" lon="-0.28685">
        <ele>38</ele>
        <time>2019-05-23T10:21:26+02:00</time>
      </trkpt>
      <trkpt lat="44.622" lon="-0.28677">
        <ele>37</ele>
        <time>2019-05-23T10:21:36+02:00</time>
      </trkpt>
      <trkpt lat="44.62191" lon="-0.2867">
        <ele>36</ele>
        <time>2019-05-23T10:21:44+02:00</time>
      </trkpt>
      <trkpt lat="44.62182" lon="-0.2866">
        <ele>34</ele>
        <time>2019-05-23T10:21:52+02:00</time>
      </trkpt>
      <trkpt lat="44.62173" lon="-0.28653">
        <ele>33</ele>
        <time>2019-05-23T10:22:00+02:00</time>
      </trkpt>
      <trkpt lat="44.62165" lon="-0.28642">
        <ele>32</ele>
        <time>2019-05-23T10:22:08+02:00</time>
      </trkpt>
      <trkpt lat="44.62156" lon="-0.28634">
        <ele>31</ele>
        <time>2019-05-23T10:22:16+02:00</time>
      </trkpt>
      <trkpt lat="44.62147" lon="-0.28626">
        <ele>30</ele>
        <time>2019-05-23T10:22:23+02:00</time>
      </trkpt>
      <trkpt lat="44.62139" lon="-0.28619">
        <ele>30</ele>
        <time>2019-05-23T10:22:30+02:00</time>
      </trkpt>
      <trkpt lat="44.62139" lon="-0.28608">
        <ele>30</ele>
        <time>2019-05-23T10:22:58+02:00</time>
      </trkpt>
      <trkpt lat="44.62139" lon="-0.28592">
        <ele>29</ele>
        <time>2019-05-23T10:23:06+02:00</time>
      </trkpt>
      <trkpt lat="44.62139" lon="-0.28576">
        <ele>29</ele>
        <time>2019-05-23T10:23:14+02:00</time>
      </trkpt>
      <trkpt lat="44.62139" lon="-0.28562">
        <ele>30</ele>
        <time>2019-05-23T10:23:22+02:00</time>
      </trkpt>
      <trkpt lat="44.6214" lon="-0.28549">
        <ele>30</ele>
        <time>2019-05-23T10:23:29+02:00</time>
      </trkpt>
      <trkpt lat="44.62141" lon="-0.28535">
        <ele>30</ele>
        <time>2019-05-23T10:23:36+02:00</time>
      </trkpt>
      <trkpt lat="44.62143" lon="-0.28521">
        <ele>30</ele>
        <time>2019-05-23T10:23:44+02:00</time>
      </trkpt>
      <trkpt lat="44.62144" lon="-0.28508">
        <ele>31</ele>
        <time>2019-05-23T10:23:51+02:00</time>
      </trkpt>
      <trkpt lat="44.62147" lon="-0.28494">
        <ele>31</ele>
        <time>2019-05-23T10:23:59+02:00</time>
      </trkpt>
      <trkpt lat="44.62146" lon="-0.28481">
        <ele>31</ele>
        <time>2019-05-23T10:24:07+02:00</time>
      </trkpt>
      <trkpt lat="44.62138" lon="-0.28471">
        <ele>31</ele>
        <time>2019-05-23T10:24:16+02:00</time>
      </trkpt>
      <trkpt lat="44.6213" lon="-0.28459">
        <ele>30</ele>
        <time>2019-05-23T10:24:25+02:00</time>
      </trkpt>
      <trkpt lat="44.62127" lon="-0.28446">
        <ele>30</ele>
        <time>2019-05-23T10:24:34+02:00</time>
      </trkpt>
      <trkpt lat="44.62127" lon="-0.28435">
        <ele>30</ele>
        <time>2019-05-23T10:26:24+02:00</time>
      </trkpt>
      <trkpt lat="44.62127" lon="-0.28436">
        <ele>30</ele>
        <time>2019-05-23T10:32:46+02:00</time>
      </trkpt>
      <trkpt lat="44.6213" lon="-0.28439">
        <ele>31</ele>
        <time>2019-05-23T10:33:49+02:00</time>
      </trkpt>
      <trkpt lat="44.62139" lon="-0.2844">
        <ele>32</ele>
        <time>2019-05-23T10:34:03+02:00</time>
      </trkpt>
      <trkpt lat="44.62148" lon="-0.28438">
        <ele>32</ele>
        <time>2019-05-23T10:34:12+02:00</time>
      </trkpt>
      <trkpt lat="44.6216" lon="-0.28442">
        <ele>33</ele>
        <time>2019-05-23T10:34:21+02:00</time>
      </trkpt>
      <trkpt lat="44.62169" lon="-0.28439">
        <ele>35</ele>
        <time>2019-05-23T10:34:28+02:00</time>
      </trkpt>
      <trkpt lat="44.6218" lon="-0.28439">
        <ele>36</ele>
        <time>2019-05-23T10:34:37+02:00</time>
      </trkpt>
      <trkpt lat="44.62189" lon="-0.28439">
        <ele>37</ele>
        <time>2019-05-23T10:34:45+02:00</time>
      </trkpt>
      <trkpt lat="44.62196" lon="-0.28431">
        <ele>38</ele>
        <time>2019-05-23T10:34:54+02:00</time>
      </trkpt>
      <trkpt lat="44.62198" lon="-0.28418">
        <ele>39</ele>
        <time>2019-05-23T10:35:04+02:00</time>
      </trkpt>
      <trkpt lat="44.62199" lon="-0.28405">
        <ele>40</ele>
        <time>2019-05-23T10:35:14+02:00</time>
      </trkpt>
      <trkpt lat="44.62199" lon="-0.2839">
        <ele>41</ele>
        <time>2019-05-23T10:35:24+02:00</time>
      </trkpt>
      <trkpt lat="44.62199" lon="-0.28377">
        <ele>42</ele>
        <time>2019-05-23T10:35:33+02:00</time>
      </trkpt>
      <trkpt lat="44.62199" lon="-0.28363">
        <ele>43</ele>
        <time>2019-05-23T10:35:42+02:00</time>
      </trkpt>
      <trkpt lat="44.622" lon="-0.2835">
        <ele>45</ele>
        <time>2019-05-23T10:35:51+02:00</time>
      </trkpt>
      <trkpt lat="44.62201" lon="-0.28337">
        <ele>46</ele>
        <time>2019-05-23T10:35:59+02:00</time>
      </trkpt>
      <trkpt lat="44.62201" lon="-0.28323">
        <ele>47</ele>
        <time>2019-05-23T10:36:07+02:00</time>
      </trkpt>
      <trkpt lat="44.62202" lon="-0.28309">
        <ele>47</ele>
        <time>2019-05-23T10:36:15+02:00</time>
      </trkpt>
      <trkpt lat="44.62201" lon="-0.28295">
        <ele>48</ele>
        <time>2019-05-23T10:36:23+02:00</time>
      </trkpt>
      <trkpt lat="44.622" lon="-0.28281">
        <ele>48</ele>
        <time>2019-05-23T10:36:31+02:00</time>
      </trkpt>
      <trkpt lat="44.622" lon="-0.28267">
        <ele>49</ele>
        <time>2019-05-23T10:36:39+02:00</time>
      </trkpt>
      <trkpt lat="44.62199" lon="-0.28253">
        <ele>49</ele>
        <time>2019-05-23T10:36:47+02:00</time>
      </trkpt>
      <trkpt lat="44.622" lon="-0.28238">
        <ele>49</ele>
        <time>2019-05-23T10:36:55+02:00</time>
      </trkpt>
      <trkpt lat="44.622" lon="-0.28224">
        <ele>49</ele>
        <time>2019-05-23T10:37:03+02:00</time>
      </trkpt>
      <trkpt lat="44.62199" lon="-0.2821">
        <ele>49</ele>
        <time>2019-05-23T10:37:10+02:00</time>
      </trkpt>
      <trkpt lat="44.62199" lon="-0.28195">
        <ele>48</ele>
        <time>2019-05-23T10:37:17+02:00</time>
      </trkpt>
      <trkpt lat="44.62198" lon="-0.28181">
        <ele>48</ele>
        <time>2019-05-23T10:37:25+02:00</time>
      </trkpt>
      <trkpt lat="44.622" lon="-0.28167">
        <ele>48</ele>
        <time>2019-05-23T10:37:33+02:00</time>
      </trkpt>
      <trkpt lat="44.622" lon="-0.28163">
        <ele>48</ele>
        <time>2019-05-23T10:38:35+02:00</time>
      </trkpt>
      <trkpt lat="44.622" lon="-0.2815">
        <ele>47</ele>
        <time>2019-05-23T10:38:43+02:00</time>
      </trkpt>
      <trkpt lat="44.622" lon="-0.28138">
        <ele>47</ele>
        <time>2019-05-23T10:38:51+02:00</time>
      </trkpt>
      <trkpt lat="44.62201" lon="-0.28124">
        <ele>46</ele>
        <time>2019-05-23T10:38:58+02:00</time>
      </trkpt>
      <trkpt lat="44.62203" lon="-0.28106">
        <ele>45</ele>
        <time>2019-05-23T10:39:06+02:00</time>
      </trkpt>
      <trkpt lat="44.62206" lon="-0.28092">
        <ele>45</ele>
        <time>2019-05-23T10:39:13+02:00</time>
      </trkpt>
      <trkpt lat="44.62207" lon="-0.28083">
        <ele>44</ele>
        <time>2019-05-23T10:39:21+02:00</time>
      </trkpt>
      <trkpt lat="44.62209" lon="-0.28069">
        <ele>44</ele>
        <time>2019-05-23T10:39:28+02:00</time>
      </trkpt>
      <trkpt lat="44.62212" lon="-0.28056">
        <ele>43</ele>
        <time>2019-05-23T10:39:35+02:00</time>
      </trkpt>
      <trkpt lat="44.62214" lon="-0.28042">
        <ele>42</ele>
        <time>2019-05-23T10:39:42+02:00</time>
      </trkpt>
      <trkpt lat="44.62216" lon="-0.28027">
        <ele>41</ele>
        <time>2019-05-23T10:39:50+02:00</time>
      </trkpt>
      <trkpt lat="44.62218" lon="-0.28011">
        <ele>40</ele>
        <time>2019-05-23T10:39:57+02:00</time>
      </trkpt>
      <trkpt lat="44.62219" lon="-0.27999">
        <ele>39</ele>
        <time>2019-05-23T10:40:05+02:00</time>
      </trkpt>
      <trkpt lat="44.6222" lon="-0.27985">
        <ele>38</ele>
        <time>2019-05-23T10:40:13+02:00</time>
      </trkpt>
      <trkpt lat="44.62221" lon="-0.27981">
        <ele>38</ele>
        <time>2019-05-23T10:41:08+02:00</time>
      </trkpt>
      <trkpt lat="44.62224" lon="-0.27966">
        <ele>37</ele>
        <time>2019-05-23T10:41:18+02:00</time>
      </trkpt>
      <trkpt lat="44.62226" lon="-0.27953">
        <ele>36</ele>
        <time>2019-05-23T10:41:28+02:00</time>
      </trkpt>
      <trkpt lat="44.6223" lon="-0.27941">
        <ele>36</ele>
        <time>2019-05-23T10:41:38+02:00</time>
      </trkpt>
      <trkpt lat="44.62224" lon="-0.27936">
        <ele>35</ele>
        <time>2019-05-23T10:41:52+02:00</time>
      </trkpt>
      <trkpt lat="44.62216" lon="-0.27931">
        <ele>35</ele>
        <time>2019-05-23T10:42:00+02:00</time>
      </trkpt>
      <trkpt lat="44.62208" lon="-0.2792">
        <ele>34</ele>
        <time>2019-05-23T10:42:09+02:00</time>
      </trkpt>
      <trkpt lat="44.622" lon="-0.27908">
        <ele>33</ele>
        <time>2019-05-23T10:42:20+02:00</time>
      </trkpt>
      <trkpt lat="44.62191" lon="-0.27898">
        <ele>33</ele>
        <time>2019-05-23T10:42:37+02:00</time>
      </trkpt>
      <trkpt lat="44.6218" lon="-0.27891">
        <ele>32</ele>
        <time>2019-05-23T10:42:46+02:00</time>
      </trkpt>
      <trkpt lat="44.6217" lon="-0.27884">
        <ele>32</ele>
        <time>2019-05-23T10:42:57+02:00</time>
      </trkpt>
      <trkpt lat="44.6216" lon="-0.27878">
        <ele>32</ele>
        <time>2019-05-23T10:43:06+02:00</time>
      </trkpt>
      <trkpt lat="44.6215" lon="-0.2787">
        <ele>33</ele>
        <time>2019-05-23T10:43:16+02:00</time>
      </trkpt>
      <trkpt lat="44.62147" lon="-0.27855">
        <ele>33</ele>
        <time>2019-05-23T10:43:25+02:00</time>
      </trkpt>
      <trkpt lat="44.62152" lon="-0.27842">
        <ele>33</ele>
        <time>2019-05-23T10:43:35+02:00</time>
      </trkpt>
      <trkpt lat="44.62153" lon="-0.27829">
        <ele>32</ele>
        <time>2019-05-23T10:43:50+02:00</time>
      </trkpt>
      <trkpt lat="44.62161" lon="-0.27813">
        <ele>31</ele>
        <time>2019-05-23T10:44:02+02:00</time>
      </trkpt>
      <trkpt lat="44.62168" lon="-0.27801">
        <ele>31</ele>
        <time>2019-05-23T10:44:10+02:00</time>
      </trkpt>
      <trkpt lat="44.62179" lon="-0.27803">
        <ele>32</ele>
        <time>2019-05-23T10:44:19+02:00</time>
      </trkpt>
      <trkpt lat="44.62189" lon="-0.27811">
        <ele>32</ele>
        <time>2019-05-23T10:44:28+02:00</time>
      </trkpt>
      <trkpt lat="44.62199" lon="-0.27813">
        <ele>33</ele>
        <time>2019-05-23T10:44:39+02:00</time>
      </trkpt>
      <trkpt lat="44.62209" lon="-0.27805">
        <ele>34</ele>
        <time>2019-05-23T10:44:48+02:00</time>
      </trkpt>
      <trkpt lat="44.62218" lon="-0.27798">
        <ele>35</ele>
        <time>2019-05-23T10:44:56+02:00</time>
      </trkpt>
      <trkpt lat="44.62228" lon="-0.27791">
        <ele>36</ele>
        <time>2019-05-23T10:45:04+02:00</time>
      </trkpt>
      <trkpt lat="44.62236" lon="-0.27785">
        <ele>37</ele>
        <time>2019-05-23T10:45:12+02:00</time>
      </trkpt>
      <trkpt lat="44.62244" lon="-0.27779">
        <ele>38</ele>
        <time>2019-05-23T10:45:20+02:00</time>
      </trkpt>
      <trkpt lat="44.62254" lon="-0.27774">
        <ele>39</ele>
        <time>2019-05-23T10:45:28+02:00</time>
      </trkpt>
      <trkpt lat="44.62264" lon="-0.27773">
        <ele>41</ele>
        <time>2019-05-23T10:45:37+02:00</time>
      </trkpt>
      <trkpt lat="44.62273" lon="-0.27772">
        <ele>42</ele>
        <time>2019-05-23T10:45:47+02:00</time>
      </trkpt>
      <trkpt lat="44.62284" lon="-0.27772">
        <ele>43</ele>
        <time>2019-05-23T10:45:57+02:00</time>
      </trkpt>
      <trkpt lat="44.62293" lon="-0.27768">
        <ele>45</ele>
        <time>2019-05-23T10:46:05+02:00</time>
      </trkpt>
      <trkpt lat="44.62304" lon="-0.27767">
        <ele>46</ele>
        <time>2019-05-23T10:46:17+02:00</time>
      </trkpt>
      <trkpt lat="44.62316" lon="-0.27764">
        <ele>48</ele>
        <time>2019-05-23T10:46:27+02:00</time>
      </trkpt>
      <trkpt lat="44.62327" lon="-0.27764">
        <ele>50</ele>
        <time>2019-05-23T10:46:39+02:00</time>
      </trkpt>
      <trkpt lat="44.62337" lon="-0.27761">
        <ele>51</ele>
        <time>2019-05-23T10:46:49+02:00</time>
      </trkpt>
      <trkpt lat="44.62347" lon="-0.27758">
        <ele>52</ele>
        <time>2019-05-23T10:47:00+02:00</time>
      </trkpt>
      <trkpt lat="44.62356" lon="-0.27754">
        <ele>52</ele>
        <time>2019-05-23T10:47:12+02:00</time>
      </trkpt>
      <trkpt lat="44.62361" lon="-0.27747">
        <ele>53</ele>
        <time>2019-05-23T10:47:45+02:00</time>
      </trkpt>
      <trkpt lat="44.62368" lon="-0.27736">
        <ele>55</ele>
        <time>2019-05-23T10:47:53+02:00</time>
      </trkpt>
      <trkpt lat="44.62377" lon="-0.27726">
        <ele>56</ele>
        <time>2019-05-23T10:48:02+02:00</time>
      </trkpt>
      <trkpt lat="44.62385" lon="-0.27716">
        <ele>58</ele>
        <time>2019-05-23T10:48:37+02:00</time>
      </trkpt>
      <trkpt lat="44.62391" lon="-0.27709">
        <ele>58</ele>
        <time>2019-05-23T10:49:24+02:00</time>
      </trkpt>
      <trkpt lat="44.62391" lon="-0.27696">
        <ele>60</ele>
        <time>2019-05-23T10:49:49+02:00</time>
      </trkpt>
      <trkpt lat="44.62396" lon="-0.27688">
        <ele>61</ele>
        <time>2019-05-23T10:49:59+02:00</time>
      </trkpt>
      <trkpt lat="44.62401" lon="-0.27671">
        <ele>63</ele>
        <time>2019-05-23T10:50:08+02:00</time>
      </trkpt>
      <trkpt lat="44.62406" lon="-0.27659">
        <ele>64</ele>
        <time>2019-05-23T10:50:17+02:00</time>
      </trkpt>
      <trkpt lat="44.62413" lon="-0.27644">
        <ele>66</ele>
        <time>2019-05-23T10:50:26+02:00</time>
      </trkpt>
      <trkpt lat="44.62424" lon="-0.27627">
        <ele>68</ele>
        <time>2019-05-23T10:50:34+02:00</time>
      </trkpt>
      <trkpt lat="44.62429" lon="-0.27607">
        <ele>69</ele>
        <time>2019-05-23T10:50:42+02:00</time>
      </trkpt>
      <trkpt lat="44.62433" lon="-0.27588">
        <ele>71</ele>
        <time>2019-05-23T10:50:50+02:00</time>
      </trkpt>
      <trkpt lat="44.62434" lon="-0.27566">
        <ele>74</ele>
        <time>2019-05-23T10:50:59+02:00</time>
      </trkpt>
      <trkpt lat="44.62441" lon="-0.27539">
        <ele>77</ele>
        <time>2019-05-23T10:51:08+02:00</time>
      </trkpt>
      <trkpt lat="44.62444" lon="-0.27517">
        <ele>80</ele>
        <time>2019-05-23T10:51:18+02:00</time>
      </trkpt>
      <trkpt lat="44.62442" lon="-0.27491">
        <ele>83</ele>
        <time>2019-05-23T10:51:29+02:00</time>
      </trkpt>
      <trkpt lat="44.62444" lon="-0.27472">
        <ele>84</ele>
        <time>2019-05-23T10:51:41+02:00</time>
      </trkpt>
      <trkpt lat="44.62443" lon="-0.2746">
        <ele>85</ele>
        <time>2019-05-23T10:52:04+02:00</time>
      </trkpt>
      <trkpt lat="44.62441" lon="-0.2744">
        <ele>87</ele>
        <time>2019-05-23T10:52:16+02:00</time>
      </trkpt>
      <trkpt lat="44.62444" lon="-0.27423">
        <ele>88</ele>
        <time>2019-05-23T10:57:19+02:00</time>
      </trkpt>
      <trkpt lat="44.62449" lon="-0.27411">
        <ele>89</ele>
        <time>2019-05-23T10:57:27+02:00</time>
      </trkpt>
      <trkpt lat="44.62452" lon="-0.27398">
        <ele>89</ele>
        <time>2019-05-23T10:57:37+02:00</time>
      </trkpt>
      <trkpt lat="44.62453" lon="-0.27384">
        <ele>90</ele>
        <time>2019-05-23T10:57:45+02:00</time>
      </trkpt>
      <trkpt lat="44.62455" lon="-0.2737">
        <ele>90</ele>
        <time>2019-05-23T10:57:53+02:00</time>
      </trkpt>
      <trkpt lat="44.62458" lon="-0.27357">
        <ele>90</ele>
        <time>2019-05-23T10:58:00+02:00</time>
      </trkpt>
      <trkpt lat="44.6246" lon="-0.27344">
        <ele>91</ele>
        <time>2019-05-23T10:58:08+02:00</time>
      </trkpt>
      <trkpt lat="44.62461" lon="-0.27331">
        <ele>91</ele>
        <time>2019-05-23T10:58:15+02:00</time>
      </trkpt>
      <trkpt lat="44.62465" lon="-0.27316">
        <ele>92</ele>
        <time>2019-05-23T10:58:23+02:00</time>
      </trkpt>
      <trkpt lat="44.62468" lon="-0.27305">
        <ele>92</ele>
        <time>2019-05-23T10:58:30+02:00</time>
      </trkpt>
      <trkpt lat="44.62471" lon="-0.27292">
        <ele>93</ele>
        <time>2019-05-23T10:58:38+02:00</time>
      </trkpt>
      <trkpt lat="44.6247" lon="-0.27279">
        <ele>93</ele>
        <time>2019-05-23T10:58:48+02:00</time>
      </trkpt>
      <trkpt lat="44.62469" lon="-0.27265">
        <ele>93</ele>
        <time>2019-05-23T10:58:57+02:00</time>
      </trkpt>
      <trkpt lat="44.62466" lon="-0.27252">
        <ele>93</ele>
        <time>2019-05-23T10:59:05+02:00</time>
      </trkpt>
      <trkpt lat="44.62463" lon="-0.27238">
        <ele>93</ele>
        <time>2019-05-23T10:59:13+02:00</time>
      </trkpt>
      <trkpt lat="44.62459" lon="-0.27225">
        <ele>92</ele>
        <time>2019-05-23T10:59:21+02:00</time>
      </trkpt>
      <trkpt lat="44.62457" lon="-0.27212">
        <ele>92</ele>
        <time>2019-05-23T10:59:39+02:00</time>
      </trkpt>
      <trkpt lat="44.62457" lon="-0.27212">
        <ele>92</ele>
        <time>2019-05-23T11:00:17+02:00</time>
      </trkpt>
      <trkpt lat="44.62459" lon="-0.272">
        <ele>92</ele>
        <time>2019-05-23T11:00:49+02:00</time>
      </trkpt>
      <trkpt lat="44.62459" lon="-0.27186">
        <ele>92</ele>
        <time>2019-05-23T11:01:07+02:00</time>
      </trkpt>
      <trkpt lat="44.62461" lon="-0.27173">
        <ele>92</ele>
        <time>2019-05-23T11:01:18+02:00</time>
      </trkpt>
      <trkpt lat="44.62462" lon="-0.27161">
        <ele>92</ele>
        <time>2019-05-23T11:01:33+02:00</time>
      </trkpt>
      <trkpt lat="44.62464" lon="-0.27147">
        <ele>91</ele>
        <time>2019-05-23T11:01:49+02:00</time>
      </trkpt>
      <trkpt lat="44.62463" lon="-0.27134">
        <ele>91</ele>
        <time>2019-05-23T11:02:00+02:00</time>
      </trkpt>
      <trkpt lat="44.62465" lon="-0.27121">
        <ele>91</ele>
        <time>2019-05-23T11:02:31+02:00</time>
      </trkpt>
      <trkpt lat="44.62467" lon="-0.27106">
        <ele>90</ele>
        <time>2019-05-23T11:02:42+02:00</time>
      </trkpt>
      <trkpt lat="44.62469" lon="-0.27093">
        <ele>90</ele>
        <time>2019-05-23T11:02:52+02:00</time>
      </trkpt>
      <trkpt lat="44.62471" lon="-0.27079">
        <ele>90</ele>
        <time>2019-05-23T11:03:00+02:00</time>
      </trkpt>
      <trkpt lat="44.62474" lon="-0.27067">
        <ele>90</ele>
        <time>2019-05-23T11:03:08+02:00</time>
      </trkpt>
      <trkpt lat="44.62478" lon="-0.27055">
        <ele>89</ele>
        <time>2019-05-23T11:03:16+02:00</time>
      </trkpt>
      <trkpt lat="44.62483" lon="-0.27042">
        <ele>89</ele>
        <time>2019-05-23T11:03:24+02:00</time>
      </trkpt>
      <trkpt lat="44.62487" lon="-0.27031">
        <ele>90</ele>
        <time>2019-05-23T11:03:31+02:00</time>
      </trkpt>
      <trkpt lat="44.62491" lon="-0.27019">
        <ele>90</ele>
        <time>2019-05-23T11:03:38+02:00</time>
      </trkpt>
      <trkpt lat="44.62497" lon="-0.27005">
        <ele>90</ele>
        <time>2019-05-23T11:03:46+02:00</time>
      </trkpt>
      <trkpt lat="44.62502" lon="-0.26994">
        <ele>90</ele>
        <time>2019-05-23T11:03:53+02:00</time>
      </trkpt>
      <trkpt lat="44.62508" lon="-0.26982">
        <ele>89</ele>
        <time>2019-05-23T11:04:00+02:00</time>
      </trkpt>
      <trkpt lat="44.62512" lon="-0.26969">
        <ele>89</ele>
        <time>2019-05-23T11:04:07+02:00</time>
      </trkpt>
      <trkpt lat="44.62516" lon="-0.26956">
        <ele>89</ele>
        <time>2019-05-23T11:04:15+02:00</time>
      </trkpt>
      <trkpt lat="44.62521" lon="-0.26943">
        <ele>88</ele>
        <time>2019-05-23T11:04:23+02:00</time>
      </trkpt>
      <trkpt lat="44.62528" lon="-0.2693">
        <ele>88</ele>
        <time>2019-05-23T11:04:32+02:00</time>
      </trkpt>
      <trkpt lat="44.62526" lon="-0.26915">
        <ele>87</ele>
        <time>2019-05-23T11:04:41+02:00</time>
      </trkpt>
      <trkpt lat="44.62524" lon="-0.269">
        <ele>87</ele>
        <time>2019-05-23T11:04:51+02:00</time>
      </trkpt>
      <trkpt lat="44.62515" lon="-0.26891">
        <ele>85</ele>
        <time>2019-05-23T11:04:59+02:00</time>
      </trkpt>
      <trkpt lat="44.62508" lon="-0.26882">
        <ele>84</ele>
        <time>2019-05-23T11:05:06+02:00</time>
      </trkpt>
      <trkpt lat="44.625" lon="-0.26875">
        <ele>82</ele>
        <time>2019-05-23T11:05:13+02:00</time>
      </trkpt>
      <trkpt lat="44.62491" lon="-0.26867">
        <ele>81</ele>
        <time>2019-05-23T11:05:21+02:00</time>
      </trkpt>
      <trkpt lat="44.62482" lon="-0.26861">
        <ele>80</ele>
        <time>2019-05-23T11:05:28+02:00</time>
      </trkpt>
      <trkpt lat="44.62473" lon="-0.26853">
        <ele>78</ele>
        <time>2019-05-23T11:05:36+02:00</time>
      </trkpt>
      <trkpt lat="44.62465" lon="-0.26845">
        <ele>77</ele>
        <time>2019-05-23T11:05:43+02:00</time>
      </trkpt>
      <trkpt lat="44.62457" lon="-0.26836">
        <ele>76</ele>
        <time>2019-05-23T11:05:50+02:00</time>
      </trkpt>
      <trkpt lat="44.62451" lon="-0.26825">
        <ele>76</ele>
        <time>2019-05-23T11:05:58+02:00</time>
      </trkpt>
      <trkpt lat="44.62442" lon="-0.26817">
        <ele>75</ele>
        <time>2019-05-23T11:06:05+02:00</time>
      </trkpt>
      <trkpt lat="44.62434" lon="-0.26809">
        <ele>75</ele>
        <time>2019-05-23T11:06:12+02:00</time>
      </trkpt>
      <trkpt lat="44.62425" lon="-0.26803">
        <ele>74</ele>
        <time>2019-05-23T11:06:19+02:00</time>
      </trkpt>
      <trkpt lat="44.62415" lon="-0.268">
        <ele>73</ele>
        <time>2019-05-23T11:06:26+02:00</time>
      </trkpt>
      <trkpt lat="44.62406" lon="-0.26795">
        <ele>72</ele>
        <time>2019-05-23T11:06:33+02:00</time>
      </trkpt>
      <trkpt lat="44.62397" lon="-0.26792">
        <ele>70</ele>
        <time>2019-05-23T11:06:40+02:00</time>
      </trkpt>
      <trkpt lat="44.62387" lon="-0.26788">
        <ele>69</ele>
        <time>2019-05-23T11:06:47+02:00</time>
      </trkpt>
      <trkpt lat="44.62379" lon="-0.26783">
        <ele>68</ele>
        <time>2019-05-23T11:06:54+02:00</time>
      </trkpt>
      <trkpt lat="44.6237" lon="-0.26776">
        <ele>67</ele>
        <time>2019-05-23T11:07:02+02:00</time>
      </trkpt>
      <trkpt lat="44.62363" lon="-0.26766">
        <ele>66</ele>
        <time>2019-05-23T11:07:09+02:00</time>
      </trkpt>
      <trkpt lat="44.62362" lon="-0.26754">
        <ele>67</ele>
        <time>2019-05-23T11:07:16+02:00</time>
      </trkpt>
      <trkpt lat="44.62364" lon="-0.26742">
        <ele>68</ele>
        <time>2019-05-23T11:07:23+02:00</time>
      </trkpt>
      <trkpt lat="44.62367" lon="-0.26729">
        <ele>68</ele>
        <time>2019-05-23T11:07:30+02:00</time>
      </trkpt>
      <trkpt lat="44.62368" lon="-0.26717">
        <ele>68</ele>
        <time>2019-05-23T11:07:37+02:00</time>
      </trkpt>
      <trkpt lat="44.62369" lon="-0.26702">
        <ele>68</ele>
        <time>2019-05-23T11:07:45+02:00</time>
      </trkpt>
      <trkpt lat="44.62367" lon="-0.26689">
        <ele>67</ele>
        <time>2019-05-23T11:07:52+02:00</time>
      </trkpt>
      <trkpt lat="44.62364" lon="-0.26676">
        <ele>67</ele>
        <time>2019-05-23T11:07:59+02:00</time>
      </trkpt>
      <trkpt lat="44.62364" lon="-0.26663">
        <ele>66</ele>
        <time>2019-05-23T11:08:06+02:00</time>
      </trkpt>
      <trkpt lat="44.62366" lon="-0.2665">
        <ele>66</ele>
        <time>2019-05-23T11:08:13+02:00</time>
      </trkpt>
      <trkpt lat="44.62369" lon="-0.26638">
        <ele>66</ele>
        <time>2019-05-23T11:08:20+02:00</time>
      </trkpt>
      <trkpt lat="44.62375" lon="-0.26627">
        <ele>66</ele>
        <time>2019-05-23T11:08:26+02:00</time>
      </trkpt>
      <trkpt lat="44.62379" lon="-0.26615">
        <ele>66</ele>
        <time>2019-05-23T11:08:33+02:00</time>
      </trkpt>
      <trkpt lat="44.62383" lon="-0.26603">
        <ele>65</ele>
        <time>2019-05-23T11:08:40+02:00</time>
      </trkpt>
      <trkpt lat="44.62386" lon="-0.26589">
        <ele>65</ele>
        <time>2019-05-23T11:08:47+02:00</time>
      </trkpt>
      <trkpt lat="44.62387" lon="-0.26575">
        <ele>65</ele>
        <time>2019-05-23T11:08:54+02:00</time>
      </trkpt>
      <trkpt lat="44.62385" lon="-0.26562">
        <ele>65</ele>
        <time>2019-05-23T11:09:01+02:00</time>
      </trkpt>
      <trkpt lat="44.62378" lon="-0.26552">
        <ele>64</ele>
        <time>2019-05-23T11:09:10+02:00</time>
      </trkpt>
      <trkpt lat="44.62368" lon="-0.26545">
        <ele>63</ele>
        <time>2019-05-23T11:09:18+02:00</time>
      </trkpt>
      <trkpt lat="44.62365" lon="-0.26534">
        <ele>63</ele>
        <time>2019-05-23T11:09:25+02:00</time>
      </trkpt>
      <trkpt lat="44.62364" lon="-0.2652">
        <ele>63</ele>
        <time>2019-05-23T11:09:33+02:00</time>
      </trkpt>
      <trkpt lat="44.62364" lon="-0.26506">
        <ele>63</ele>
        <time>2019-05-23T11:09:40+02:00</time>
      </trkpt>
      <trkpt lat="44.62368" lon="-0.26494">
        <ele>64</ele>
        <time>2019-05-23T11:09:48+02:00</time>
      </trkpt>
      <trkpt lat="44.62371" lon="-0.26481">
        <ele>64</ele>
        <time>2019-05-23T11:09:55+02:00</time>
      </trkpt>
      <trkpt lat="44.62375" lon="-0.26469">
        <ele>66</ele>
        <time>2019-05-23T11:10:03+02:00</time>
      </trkpt>
      <trkpt lat="44.6238" lon="-0.26457">
        <ele>67</ele>
        <time>2019-05-23T11:10:11+02:00</time>
      </trkpt>
      <trkpt lat="44.62384" lon="-0.26444">
        <ele>68</ele>
        <time>2019-05-23T11:10:18+02:00</time>
      </trkpt>
      <trkpt lat="44.62388" lon="-0.26432">
        <ele>69</ele>
        <time>2019-05-23T11:10:26+02:00</time>
      </trkpt>
      <trkpt lat="44.62391" lon="-0.26421">
        <ele>70</ele>
        <time>2019-05-23T11:10:33+02:00</time>
      </trkpt>
      <trkpt lat="44.62396" lon="-0.26411">
        <ele>70</ele>
        <time>2019-05-23T11:10:41+02:00</time>
      </trkpt>
      <trkpt lat="44.624" lon="-0.26398">
        <ele>71</ele>
        <time>2019-05-23T11:10:49+02:00</time>
      </trkpt>
      <trkpt lat="44.62404" lon="-0.26386">
        <ele>71</ele>
        <time>2019-05-23T11:10:57+02:00</time>
      </trkpt>
      <trkpt lat="44.62409" lon="-0.26375">
        <ele>72</ele>
        <time>2019-05-23T11:11:04+02:00</time>
      </trkpt>
      <trkpt lat="44.62413" lon="-0.26364">
        <ele>72</ele>
        <time>2019-05-23T11:11:11+02:00</time>
      </trkpt>
      <trkpt lat="44.62417" lon="-0.26353">
        <ele>72</ele>
        <time>2019-05-23T11:11:18+02:00</time>
      </trkpt>
      <trkpt lat="44.62421" lon="-0.26341">
        <ele>73</ele>
        <time>2019-05-23T11:11:25+02:00</time>
      </trkpt>
      <trkpt lat="44.62426" lon="-0.26328">
        <ele>74</ele>
        <time>2019-05-23T11:11:33+02:00</time>
      </trkpt>
      <trkpt lat="44.62431" lon="-0.26317">
        <ele>76</ele>
        <time>2019-05-23T11:11:40+02:00</time>
      </trkpt>
      <trkpt lat="44.62436" lon="-0.26305">
        <ele>77</ele>
        <time>2019-05-23T11:11:47+02:00</time>
      </trkpt>
      <trkpt lat="44.62442" lon="-0.26293">
        <ele>78</ele>
        <time>2019-05-23T11:11:55+02:00</time>
      </trkpt>
      <trkpt lat="44.62445" lon="-0.26281">
        <ele>79</ele>
        <time>2019-05-23T11:12:02+02:00</time>
      </trkpt>
      <trkpt lat="44.6245" lon="-0.26269">
        <ele>80</ele>
        <time>2019-05-23T11:12:10+02:00</time>
      </trkpt>
      <trkpt lat="44.62456" lon="-0.2626">
        <ele>81</ele>
        <time>2019-05-23T11:12:16+02:00</time>
      </trkpt>
      <trkpt lat="44.62462" lon="-0.2625">
        <ele>82</ele>
        <time>2019-05-23T11:12:23+02:00</time>
      </trkpt>
      <trkpt lat="44.62466" lon="-0.26237">
        <ele>83</ele>
        <time>2019-05-23T11:12:34+02:00</time>
      </trkpt>
      <trkpt lat="44.62471" lon="-0.26221">
        <ele>82</ele>
        <time>2019-05-23T11:12:45+02:00</time>
      </trkpt>
      <trkpt lat="44.62478" lon="-0.26205">
        <ele>83</ele>
        <time>2019-05-23T11:12:54+02:00</time>
      </trkpt>
      <trkpt lat="44.62487" lon="-0.26191">
        <ele>84</ele>
        <time>2019-05-23T11:13:02+02:00</time>
      </trkpt>
      <trkpt lat="44.62492" lon="-0.26177">
        <ele>83</ele>
        <time>2019-05-23T11:13:09+02:00</time>
      </trkpt>
      <trkpt lat="44.62497" lon="-0.26162">
        <ele>83</ele>
        <time>2019-05-23T11:13:17+02:00</time>
      </trkpt>
      <trkpt lat="44.62502" lon="-0.26149">
        <ele>82</ele>
        <time>2019-05-23T11:13:25+02:00</time>
      </trkpt>
      <trkpt lat="44.62507" lon="-0.26135">
        <ele>82</ele>
        <time>2019-05-23T11:13:33+02:00</time>
      </trkpt>
      <trkpt lat="44.62509" lon="-0.26122">
        <ele>81</ele>
        <time>2019-05-23T11:13:40+02:00</time>
      </trkpt>
      <trkpt lat="44.62512" lon="-0.26109">
        <ele>80</ele>
        <time>2019-05-23T11:13:47+02:00</time>
      </trkpt>
      <trkpt lat="44.62515" lon="-0.26094">
        <ele>79</ele>
        <time>2019-05-23T11:13:55+02:00</time>
      </trkpt>
      <trkpt lat="44.62517" lon="-0.2608">
        <ele>78</ele>
        <time>2019-05-23T11:14:04+02:00</time>
      </trkpt>
      <trkpt lat="44.62517" lon="-0.26065">
        <ele>77</ele>
        <time>2019-05-23T11:14:12+02:00</time>
      </trkpt>
      <trkpt lat="44.62521" lon="-0.2605">
        <ele>77</ele>
        <time>2019-05-23T11:14:20+02:00</time>
      </trkpt>
      <trkpt lat="44.62522" lon="-0.26037">
        <ele>77</ele>
        <time>2019-05-23T11:14:27+02:00</time>
      </trkpt>
      <trkpt lat="44.62525" lon="-0.26024">
        <ele>77</ele>
        <time>2019-05-23T11:14:34+02:00</time>
      </trkpt>
      <trkpt lat="44.62525" lon="-0.26009">
        <ele>77</ele>
        <time>2019-05-23T11:14:41+02:00</time>
      </trkpt>
      <trkpt lat="44.62527" lon="-0.25995">
        <ele>77</ele>
        <time>2019-05-23T11:14:50+02:00</time>
      </trkpt>
      <trkpt lat="44.62528" lon="-0.25982">
        <ele>77</ele>
        <time>2019-05-23T11:14:57+02:00</time>
      </trkpt>
      <trkpt lat="44.6253" lon="-0.2597">
        <ele>78</ele>
        <time>2019-05-23T11:15:04+02:00</time>
      </trkpt>
      <trkpt lat="44.62534" lon="-0.25956">
        <ele>79</ele>
        <time>2019-05-23T11:15:12+02:00</time>
      </trkpt>
      <trkpt lat="44.62537" lon="-0.25944">
        <ele>79</ele>
        <time>2019-05-23T11:15:19+02:00</time>
      </trkpt>
      <trkpt lat="44.6254" lon="-0.25931">
        <ele>80</ele>
        <time>2019-05-23T11:15:27+02:00</time>
      </trkpt>
      <trkpt lat="44.62543" lon="-0.25917">
        <ele>81</ele>
        <time>2019-05-23T11:15:34+02:00</time>
      </trkpt>
      <trkpt lat="44.62548" lon="-0.25904">
        <ele>81</ele>
        <time>2019-05-23T11:15:42+02:00</time>
      </trkpt>
      <trkpt lat="44.62554" lon="-0.25892">
        <ele>82</ele>
        <time>2019-05-23T11:15:50+02:00</time>
      </trkpt>
      <trkpt lat="44.62559" lon="-0.25879">
        <ele>82</ele>
        <time>2019-05-23T11:15:58+02:00</time>
      </trkpt>
      <trkpt lat="44.62562" lon="-0.25864">
        <ele>82</ele>
        <time>2019-05-23T11:16:06+02:00</time>
      </trkpt>
      <trkpt lat="44.62564" lon="-0.2585">
        <ele>81</ele>
        <time>2019-05-23T11:16:14+02:00</time>
      </trkpt>
      <trkpt lat="44.6257" lon="-0.25837">
        <ele>81</ele>
        <time>2019-05-23T11:16:22+02:00</time>
      </trkpt>
      <trkpt lat="44.62575" lon="-0.25825">
        <ele>82</ele>
        <time>2019-05-23T11:16:29+02:00</time>
      </trkpt>
      <trkpt lat="44.62582" lon="-0.25814">
        <ele>82</ele>
        <time>2019-05-23T11:16:37+02:00</time>
      </trkpt>
      <trkpt lat="44.62587" lon="-0.25802">
        <ele>82</ele>
        <time>2019-05-23T11:16:45+02:00</time>
      </trkpt>
      <trkpt lat="44.62598" lon="-0.25792">
        <ele>82</ele>
        <time>2019-05-23T11:16:54+02:00</time>
      </trkpt>
      <trkpt lat="44.62607" lon="-0.25788">
        <ele>82</ele>
        <time>2019-05-23T11:17:05+02:00</time>
      </trkpt>
      <trkpt lat="44.62621" lon="-0.25782">
        <ele>83</ele>
        <time>2019-05-23T11:17:17+02:00</time>
      </trkpt>
      <trkpt lat="44.62632" lon="-0.25781">
        <ele>83</ele>
        <time>2019-05-23T11:17:26+02:00</time>
      </trkpt>
      <trkpt lat="44.62642" lon="-0.25782">
        <ele>83</ele>
        <time>2019-05-23T11:17:33+02:00</time>
      </trkpt>
      <trkpt lat="44.62656" lon="-0.25776">
        <ele>83</ele>
        <time>2019-05-23T11:18:45+02:00</time>
      </trkpt>
      <trkpt lat="44.62664" lon="-0.25763">
        <ele>83</ele>
        <time>2019-05-23T11:18:54+02:00</time>
      </trkpt>
      <trkpt lat="44.62669" lon="-0.25752">
        <ele>83</ele>
        <time>2019-05-23T11:19:01+02:00</time>
      </trkpt>
      <trkpt lat="44.62673" lon="-0.25738">
        <ele>83</ele>
        <time>2019-05-23T11:19:09+02:00</time>
      </trkpt>
      <trkpt lat="44.62678" lon="-0.25727">
        <ele>83</ele>
        <time>2019-05-23T11:19:16+02:00</time>
      </trkpt>
      <trkpt lat="44.62683" lon="-0.25714">
        <ele>83</ele>
        <time>2019-05-23T11:19:23+02:00</time>
      </trkpt>
      <trkpt lat="44.62683" lon="-0.257">
        <ele>83</ele>
        <time>2019-05-23T11:19:32+02:00</time>
      </trkpt>
      <trkpt lat="44.62684" lon="-0.25683">
        <ele>82</ele>
        <time>2019-05-23T11:19:40+02:00</time>
      </trkpt>
      <trkpt lat="44.62688" lon="-0.2567">
        <ele>83</ele>
        <time>2019-05-23T11:19:47+02:00</time>
      </trkpt>
      <trkpt lat="44.62693" lon="-0.25659">
        <ele>84</ele>
        <time>2019-05-23T11:19:54+02:00</time>
      </trkpt>
      <trkpt lat="44.62698" lon="-0.25647">
        <ele>84</ele>
        <time>2019-05-23T11:20:02+02:00</time>
      </trkpt>
      <trkpt lat="44.62703" lon="-0.25633">
        <ele>85</ele>
        <time>2019-05-23T11:20:10+02:00</time>
      </trkpt>
      <trkpt lat="44.62707" lon="-0.25619">
        <ele>85</ele>
        <time>2019-05-23T11:20:17+02:00</time>
      </trkpt>
      <trkpt lat="44.62712" lon="-0.25606">
        <ele>85</ele>
        <time>2019-05-23T11:20:26+02:00</time>
      </trkpt>
      <trkpt lat="44.62717" lon="-0.25594">
        <ele>85</ele>
        <time>2019-05-23T11:20:33+02:00</time>
      </trkpt>
      <trkpt lat="44.62723" lon="-0.2558">
        <ele>85</ele>
        <time>2019-05-23T11:20:43+02:00</time>
      </trkpt>
      <trkpt lat="44.62729" lon="-0.25567">
        <ele>86</ele>
        <time>2019-05-23T11:20:53+02:00</time>
      </trkpt>
      <trkpt lat="44.6274" lon="-0.25554">
        <ele>86</ele>
        <time>2019-05-23T11:21:04+02:00</time>
      </trkpt>
      <trkpt lat="44.62748" lon="-0.25538">
        <ele>85</ele>
        <time>2019-05-23T11:21:14+02:00</time>
      </trkpt>
      <trkpt lat="44.62755" lon="-0.25523">
        <ele>84</ele>
        <time>2019-05-23T11:21:22+02:00</time>
      </trkpt>
      <trkpt lat="44.62759" lon="-0.25507">
        <ele>83</ele>
        <time>2019-05-23T11:21:30+02:00</time>
      </trkpt>
      <trkpt lat="44.62765" lon="-0.25494">
        <ele>82</ele>
        <time>2019-05-23T11:21:38+02:00</time>
      </trkpt>
      <trkpt lat="44.62764" lon="-0.25482">
        <ele>83</ele>
        <time>2019-05-23T11:22:00+02:00</time>
      </trkpt>
      <trkpt lat="44.62757" lon="-0.25477">
        <ele>82</ele>
        <time>2019-05-23T11:22:31+02:00</time>
      </trkpt>
      <trkpt lat="44.62745" lon="-0.25473">
        <ele>82</ele>
        <time>2019-05-23T11:22:43+02:00</time>
      </trkpt>
      <trkpt lat="44.62732" lon="-0.25469">
        <ele>83</ele>
        <time>2019-05-23T11:22:53+02:00</time>
      </trkpt>
      <trkpt lat="44.62719" lon="-0.25464">
        <ele>83</ele>
        <time>2019-05-23T11:23:06+02:00</time>
      </trkpt>
      <trkpt lat="44.62707" lon="-0.25458">
        <ele>85</ele>
        <time>2019-05-23T11:23:23+02:00</time>
      </trkpt>
      <trkpt lat="44.62696" lon="-0.25456">
        <ele>86</ele>
        <time>2019-05-23T11:23:50+02:00</time>
      </trkpt>
      <trkpt lat="44.6269" lon="-0.2545">
        <ele>86</ele>
        <time>2019-05-23T11:24:13+02:00</time>
      </trkpt>
      <trkpt lat="44.62678" lon="-0.25443">
        <ele>88</ele>
        <time>2019-05-23T11:24:31+02:00</time>
      </trkpt>
      <trkpt lat="44.62666" lon="-0.25442">
        <ele>89</ele>
        <time>2019-05-23T11:24:48+02:00</time>
      </trkpt>
      <trkpt lat="44.62648" lon="-0.25453">
        <ele>90</ele>
        <time>2019-05-23T11:25:01+02:00</time>
      </trkpt>
      <trkpt lat="44.62631" lon="-0.25447">
        <ele>93</ele>
        <time>2019-05-23T11:25:19+02:00</time>
      </trkpt>
      <trkpt lat="44.6262" lon="-0.25435">
        <ele>96</ele>
        <time>2019-05-23T11:25:39+02:00</time>
      </trkpt>
      <trkpt lat="44.62616" lon="-0.2542">
        <ele>98</ele>
        <time>2019-05-23T11:25:55+02:00</time>
      </trkpt>
      <trkpt lat="44.62609" lon="-0.25402">
        <ele>99</ele>
        <time>2019-05-23T11:26:20+02:00</time>
      </trkpt>
      <trkpt lat="44.62605" lon="-0.25387">
        <ele>100</ele>
        <time>2019-05-23T11:26:48+02:00</time>
      </trkpt>
      <trkpt lat="44.62598" lon="-0.25363">
        <ele>101</ele>
        <time>2019-05-23T11:27:08+02:00</time>
      </trkpt>
      <trkpt lat="44.62595" lon="-0.25342">
        <ele>102</ele>
        <time>2019-05-23T11:27:34+02:00</time>
      </trkpt>
      <trkpt lat="44.62595" lon="-0.25322">
        <ele>102</ele>
        <time>2019-05-23T11:27:48+02:00</time>
      </trkpt>
      <trkpt lat="44.6259" lon="-0.25306">
        <ele>102</ele>
        <time>2019-05-23T11:27:59+02:00</time>
      </trkpt>
      <trkpt lat="44.62587" lon="-0.25292">
        <ele>102</ele>
        <time>2019-05-23T11:28:13+02:00</time>
      </trkpt>
      <trkpt lat="44.62578" lon="-0.25283">
        <ele>103</ele>
        <time>2019-05-23T11:28:26+02:00</time>
      </trkpt>
      <trkpt lat="44.62574" lon="-0.25271">
        <ele>103</ele>
        <time>2019-05-23T11:28:37+02:00</time>
      </trkpt>
      <trkpt lat="44.62564" lon="-0.25252">
        <ele>103</ele>
        <time>2019-05-23T11:28:53+02:00</time>
      </trkpt>
      <trkpt lat="44.62549" lon="-0.25243">
        <ele>105</ele>
        <time>2019-05-23T11:29:11+02:00</time>
      </trkpt>
      <trkpt lat="44.62532" lon="-0.25238">
        <ele>106</ele>
        <time>2019-05-23T11:29:29+02:00</time>
      </trkpt>
      <trkpt lat="44.62518" lon="-0.25234">
        <ele>108</ele>
        <time>2019-05-23T11:29:47+02:00</time>
      </trkpt>
      <trkpt lat="44.62509" lon="-0.25224">
        <ele>109</ele>
        <time>2019-05-23T11:29:56+02:00</time>
      </trkpt>
      <trkpt lat="44.62499" lon="-0.25215">
        <ele>110</ele>
        <time>2019-05-23T11:30:06+02:00</time>
      </trkpt>
      <trkpt lat="44.62489" lon="-0.25207">
        <ele>110</ele>
        <time>2019-05-23T11:30:16+02:00</time>
      </trkpt>
      <trkpt lat="44.62479" lon="-0.25201">
        <ele>111</ele>
        <time>2019-05-23T11:30:25+02:00</time>
      </trkpt>
      <trkpt lat="44.6247" lon="-0.25196">
        <ele>111</ele>
        <time>2019-05-23T11:30:38+02:00</time>
      </trkpt>
      <trkpt lat="44.62461" lon="-0.25188">
        <ele>111</ele>
        <time>2019-05-23T11:30:49+02:00</time>
      </trkpt>
      <trkpt lat="44.62451" lon="-0.25177">
        <ele>111</ele>
        <time>2019-05-23T11:30:59+02:00</time>
      </trkpt>
      <trkpt lat="44.62442" lon="-0.25168">
        <ele>112</ele>
        <time>2019-05-23T11:31:09+02:00</time>
      </trkpt>
      <trkpt lat="44.62433" lon="-0.25159">
        <ele>112</ele>
        <time>2019-05-23T11:31:20+02:00</time>
      </trkpt>
      <trkpt lat="44.62424" lon="-0.25149">
        <ele>112</ele>
        <time>2019-05-23T11:31:29+02:00</time>
      </trkpt>
      <trkpt lat="44.62414" lon="-0.25139">
        <ele>112</ele>
        <time>2019-05-23T11:31:40+02:00</time>
      </trkpt>
      <trkpt lat="44.62406" lon="-0.25128">
        <ele>112</ele>
        <time>2019-05-23T11:31:51+02:00</time>
      </trkpt>
      <trkpt lat="44.62406" lon="-0.25115">
        <ele>112</ele>
        <time>2019-05-23T11:32:18+02:00</time>
      </trkpt>
      <trkpt lat="44.62409" lon="-0.25103">
        <ele>112</ele>
        <time>2019-05-23T11:32:26+02:00</time>
      </trkpt>
      <trkpt lat="44.62417" lon="-0.25095">
        <ele>112</ele>
        <time>2019-05-23T11:32:34+02:00</time>
      </trkpt>
      <trkpt lat="44.62426" lon="-0.25087">
        <ele>112</ele>
        <time>2019-05-23T11:32:42+02:00</time>
      </trkpt>
      <trkpt lat="44.62435" lon="-0.25079">
        <ele>112</ele>
        <time>2019-05-23T11:32:50+02:00</time>
      </trkpt>
      <trkpt lat="44.62443" lon="-0.25071">
        <ele>111</ele>
        <time>2019-05-23T11:32:58+02:00</time>
      </trkpt>
      <trkpt lat="44.62453" lon="-0.25063">
        <ele>111</ele>
        <time>2019-05-23T11:33:06+02:00</time>
      </trkpt>
      <trkpt lat="44.62461" lon="-0.25053">
        <ele>111</ele>
        <time>2019-05-23T11:33:14+02:00</time>
      </trkpt>
      <trkpt lat="44.62466" lon="-0.25046">
        <ele>111</ele>
        <time>2019-05-23T11:33:42+02:00</time>
      </trkpt>
      <trkpt lat="44.62475" lon="-0.25042">
        <ele>111</ele>
        <time>2019-05-23T11:33:51+02:00</time>
      </trkpt>
      <trkpt lat="44.62484" lon="-0.25034">
        <ele>111</ele>
        <time>2019-05-23T11:34:00+02:00</time>
      </trkpt>
      <trkpt lat="44.62488" lon="-0.25032">
        <ele>111</ele>
        <time>2019-05-23T11:34:26+02:00</time>
      </trkpt>
      <trkpt lat="44.62494" lon="-0.2503">
        <ele>111</ele>
        <time>2019-05-23T11:34:46+02:00</time>
      </trkpt>
      <trkpt lat="44.62501" lon="-0.2502">
        <ele>111</ele>
        <time>2019-05-23T11:34:56+02:00</time>
      </trkpt>
      <trkpt lat="44.62505" lon="-0.25011">
        <ele>111</ele>
        <time>2019-05-23T11:35:25+02:00</time>
      </trkpt>
      <trkpt lat="44.62514" lon="-0.25008">
        <ele>111</ele>
        <time>2019-05-23T11:35:33+02:00</time>
      </trkpt>
      <trkpt lat="44.62523" lon="-0.25002">
        <ele>111</ele>
        <time>2019-05-23T11:35:40+02:00</time>
      </trkpt>
      <trkpt lat="44.62532" lon="-0.24995">
        <ele>111</ele>
        <time>2019-05-23T11:35:48+02:00</time>
      </trkpt>
      <trkpt lat="44.62541" lon="-0.24988">
        <ele>111</ele>
        <time>2019-05-23T11:35:56+02:00</time>
      </trkpt>
      <trkpt lat="44.62549" lon="-0.24979">
        <ele>111</ele>
        <time>2019-05-23T11:36:03+02:00</time>
      </trkpt>
      <trkpt lat="44.62544" lon="-0.24966">
        <ele>111</ele>
        <time>2019-05-23T11:36:13+02:00</time>
      </trkpt>
      <trkpt lat="44.62541" lon="-0.24952">
        <ele>111</ele>
        <time>2019-05-23T11:36:21+02:00</time>
      </trkpt>
      <trkpt lat="44.62538" lon="-0.2494">
        <ele>111</ele>
        <time>2019-05-23T11:36:28+02:00</time>
      </trkpt>
      <trkpt lat="44.62534" lon="-0.24928">
        <ele>111</ele>
        <time>2019-05-23T11:36:35+02:00</time>
      </trkpt>
      <trkpt lat="44.62531" lon="-0.24915">
        <ele>111</ele>
        <time>2019-05-23T11:36:43+02:00</time>
      </trkpt>
      <trkpt lat="44.62527" lon="-0.24902">
        <ele>111</ele>
        <time>2019-05-23T11:36:50+02:00</time>
      </trkpt>
      <trkpt lat="44.62523" lon="-0.24889">
        <ele>110</ele>
        <time>2019-05-23T11:36:57+02:00</time>
      </trkpt>
      <trkpt lat="44.6252" lon="-0.24877">
        <ele>110</ele>
        <time>2019-05-23T11:37:04+02:00</time>
      </trkpt>
      <trkpt lat="44.62516" lon="-0.24862">
        <ele>110</ele>
        <time>2019-05-23T11:37:12+02:00</time>
      </trkpt>
      <trkpt lat="44.62511" lon="-0.2485">
        <ele>109</ele>
        <time>2019-05-23T11:37:21+02:00</time>
      </trkpt>
      <trkpt lat="44.62502" lon="-0.24852">
        <ele>109</ele>
        <time>2019-05-23T11:37:32+02:00</time>
      </trkpt>
      <trkpt lat="44.62493" lon="-0.2486">
        <ele>110</ele>
        <time>2019-05-23T11:37:41+02:00</time>
      </trkpt>
      <trkpt lat="44.62481" lon="-0.24863">
        <ele>110</ele>
        <time>2019-05-23T11:37:51+02:00</time>
      </trkpt>
      <trkpt lat="44.6247" lon="-0.24862">
        <ele>110</ele>
        <time>2019-05-23T11:37:59+02:00</time>
      </trkpt>
      <trkpt lat="44.62459" lon="-0.24861">
        <ele>109</ele>
        <time>2019-05-23T11:38:07+02:00</time>
      </trkpt>
      <trkpt lat="44.6245" lon="-0.24858">
        <ele>109</ele>
        <time>2019-05-23T11:38:14+02:00</time>
      </trkpt>
      <trkpt lat="44.62443" lon="-0.24856">
        <ele>109</ele>
        <time>2019-05-23T11:38:22+02:00</time>
      </trkpt>
      <trkpt lat="44.62434" lon="-0.24853">
        <ele>109</ele>
        <time>2019-05-23T11:38:29+02:00</time>
      </trkpt>
      <trkpt lat="44.62424" lon="-0.2485">
        <ele>109</ele>
        <time>2019-05-23T11:38:36+02:00</time>
      </trkpt>
      <trkpt lat="44.62415" lon="-0.24847">
        <ele>109</ele>
        <time>2019-05-23T11:38:43+02:00</time>
      </trkpt>
      <trkpt lat="44.62406" lon="-0.24842">
        <ele>109</ele>
        <time>2019-05-23T11:38:51+02:00</time>
      </trkpt>
      <trkpt lat="44.62397" lon="-0.24837">
        <ele>109</ele>
        <time>2019-05-23T11:38:58+02:00</time>
      </trkpt>
      <trkpt lat="44.62387" lon="-0.24834">
        <ele>109</ele>
        <time>2019-05-23T11:39:06+02:00</time>
      </trkpt>
      <trkpt lat="44.62378" lon="-0.2483">
        <ele>109</ele>
        <time>2019-05-23T11:39:14+02:00</time>
      </trkpt>
      <trkpt lat="44.62369" lon="-0.24831">
        <ele>109</ele>
        <time>2019-05-23T11:39:22+02:00</time>
      </trkpt>
      <trkpt lat="44.62366" lon="-0.24829">
        <ele>109</ele>
        <time>2019-05-23T11:40:07+02:00</time>
      </trkpt>
      <trkpt lat="44.62368" lon="-0.24816">
        <ele>109</ele>
        <time>2019-05-23T11:40:14+02:00</time>
      </trkpt>
      <trkpt lat="44.62373" lon="-0.24802">
        <ele>109</ele>
        <time>2019-05-23T11:40:22+02:00</time>
      </trkpt>
      <trkpt lat="44.62376" lon="-0.2479">
        <ele>109</ele>
        <time>2019-05-23T11:40:30+02:00</time>
      </trkpt>
      <trkpt lat="44.62381" lon="-0.24778">
        <ele>109</ele>
        <time>2019-05-23T11:40:37+02:00</time>
      </trkpt>
      <trkpt lat="44.62385" lon="-0.24764">
        <ele>109</ele>
        <time>2019-05-23T11:40:45+02:00</time>
      </trkpt>
      <trkpt lat="44.62388" lon="-0.24751">
        <ele>109</ele>
        <time>2019-05-23T11:40:53+02:00</time>
      </trkpt>
      <trkpt lat="44.62392" lon="-0.24737">
        <ele>109</ele>
        <time>2019-05-23T11:41:01+02:00</time>
      </trkpt>
      <trkpt lat="44.62394" lon="-0.24725">
        <ele>108</ele>
        <time>2019-05-23T11:41:09+02:00</time>
      </trkpt>
      <trkpt lat="44.62389" lon="-0.24717">
        <ele>108</ele>
        <time>2019-05-23T11:41:19+02:00</time>
      </trkpt>
      <trkpt lat="44.6238" lon="-0.2471">
        <ele>108</ele>
        <time>2019-05-23T11:41:27+02:00</time>
      </trkpt>
      <trkpt lat="44.62372" lon="-0.24702">
        <ele>107</ele>
        <time>2019-05-23T11:41:35+02:00</time>
      </trkpt>
      <trkpt lat="44.62363" lon="-0.24698">
        <ele>107</ele>
        <time>2019-05-23T11:41:42+02:00</time>
      </trkpt>
      <trkpt lat="44.62353" lon="-0.24691">
        <ele>107</ele>
        <time>2019-05-23T11:41:50+02:00</time>
      </trkpt>
      <trkpt lat="44.62345" lon="-0.24683">
        <ele>107</ele>
        <time>2019-05-23T11:41:58+02:00</time>
      </trkpt>
      <trkpt lat="44.62336" lon="-0.24676">
        <ele>107</ele>
        <time>2019-05-23T11:42:07+02:00</time>
      </trkpt>
      <trkpt lat="44.62327" lon="-0.24667">
        <ele>107</ele>
        <time>2019-05-23T11:42:19+02:00</time>
      </trkpt>
      <trkpt lat="44.62324" lon="-0.24654">
        <ele>107</ele>
        <time>2019-05-23T11:42:30+02:00</time>
      </trkpt>
      <trkpt lat="44.6232" lon="-0.24638">
        <ele>107</ele>
        <time>2019-05-23T11:42:42+02:00</time>
      </trkpt>
      <trkpt lat="44.62319" lon="-0.24626">
        <ele>107</ele>
        <time>2019-05-23T11:42:54+02:00</time>
      </trkpt>
      <trkpt lat="44.62309" lon="-0.24627">
        <ele>107</ele>
        <time>2019-05-23T11:43:03+02:00</time>
      </trkpt>
      <trkpt lat="44.62299" lon="-0.24624">
        <ele>107</ele>
        <time>2019-05-23T11:43:11+02:00</time>
      </trkpt>
      <trkpt lat="44.6229" lon="-0.24625">
        <ele>107</ele>
        <time>2019-05-23T11:43:19+02:00</time>
      </trkpt>
      <trkpt lat="44.62284" lon="-0.2464">
        <ele>107</ele>
        <time>2019-05-23T11:43:30+02:00</time>
      </trkpt>
      <trkpt lat="44.62275" lon="-0.24653">
        <ele>106</ele>
        <time>2019-05-23T11:43:41+02:00</time>
      </trkpt>
      <trkpt lat="44.62269" lon="-0.24665">
        <ele>106</ele>
        <time>2019-05-23T11:43:51+02:00</time>
      </trkpt>
      <trkpt lat="44.62259" lon="-0.24671">
        <ele>106</ele>
        <time>2019-05-23T11:44:00+02:00</time>
      </trkpt>
      <trkpt lat="44.62248" lon="-0.24665">
        <ele>106</ele>
        <time>2019-05-23T11:44:14+02:00</time>
      </trkpt>
      <trkpt lat="44.62233" lon="-0.24658">
        <ele>105</ele>
        <time>2019-05-23T11:44:27+02:00</time>
      </trkpt>
      <trkpt lat="44.62219" lon="-0.24648">
        <ele>105</ele>
        <time>2019-05-23T11:44:39+02:00</time>
      </trkpt>
      <trkpt lat="44.62205" lon="-0.24643">
        <ele>104</ele>
        <time>2019-05-23T11:44:48+02:00</time>
      </trkpt>
      <trkpt lat="44.62195" lon="-0.24646">
        <ele>104</ele>
        <time>2019-05-23T11:44:59+02:00</time>
      </trkpt>
      <trkpt lat="44.62187" lon="-0.24649">
        <ele>103</ele>
        <time>2019-05-23T11:45:12+02:00</time>
      </trkpt>
      <trkpt lat="44.6218" lon="-0.24649">
        <ele>103</ele>
        <time>2019-05-23T11:45:28+02:00</time>
      </trkpt>
      <trkpt lat="44.62176" lon="-0.24649">
        <ele>103</ele>
        <time>2019-05-23T11:45:49+02:00</time>
      </trkpt>
      <trkpt lat="44.62171" lon="-0.24648">
        <ele>103</ele>
        <time>2019-05-23T11:51:33+02:00</time>
      </trkpt>
      <trkpt lat="44.62161" lon="-0.24649">
        <ele>102</ele>
        <time>2019-05-23T11:51:44+02:00</time>
      </trkpt>
      <trkpt lat="44.62154" lon="-0.24657">
        <ele>102</ele>
        <time>2019-05-23T11:51:57+02:00</time>
      </trkpt>
      <trkpt lat="44.62154" lon="-0.24664">
        <ele>102</ele>
        <time>2019-05-23T11:52:18+02:00</time>
      </trkpt>
      <trkpt lat="44.62156" lon="-0.24677">
        <ele>103</ele>
        <time>2019-05-23T11:52:27+02:00</time>
      </trkpt>
      <trkpt lat="44.62156" lon="-0.24692">
        <ele>104</ele>
        <time>2019-05-23T11:52:36+02:00</time>
      </trkpt>
      <trkpt lat="44.62155" lon="-0.24705">
        <ele>105</ele>
        <time>2019-05-23T11:52:45+02:00</time>
      </trkpt>
      <trkpt lat="44.62153" lon="-0.24719">
        <ele>105</ele>
        <time>2019-05-23T11:52:54+02:00</time>
      </trkpt>
      <trkpt lat="44.62151" lon="-0.24732">
        <ele>106</ele>
        <time>2019-05-23T11:53:02+02:00</time>
      </trkpt>
      <trkpt lat="44.62147" lon="-0.24745">
        <ele>106</ele>
        <time>2019-05-23T11:53:12+02:00</time>
      </trkpt>
      <trkpt lat="44.62141" lon="-0.24752">
        <ele>107</ele>
        <time>2019-05-23T11:53:23+02:00</time>
      </trkpt>
      <trkpt lat="44.62134" lon="-0.24747">
        <ele>106</ele>
        <time>2019-05-23T11:53:37+02:00</time>
      </trkpt>
      <trkpt lat="44.62125" lon="-0.2474">
        <ele>106</ele>
        <time>2019-05-23T11:53:46+02:00</time>
      </trkpt>
      <trkpt lat="44.62117" lon="-0.24734">
        <ele>105</ele>
        <time>2019-05-23T11:53:54+02:00</time>
      </trkpt>
      <trkpt lat="44.62108" lon="-0.24727">
        <ele>105</ele>
        <time>2019-05-23T11:54:02+02:00</time>
      </trkpt>
      <trkpt lat="44.621" lon="-0.24723">
        <ele>104</ele>
        <time>2019-05-23T11:54:10+02:00</time>
      </trkpt>
      <trkpt lat="44.62092" lon="-0.24716">
        <ele>104</ele>
        <time>2019-05-23T11:54:19+02:00</time>
      </trkpt>
      <trkpt lat="44.62082" lon="-0.24714">
        <ele>103</ele>
        <time>2019-05-23T11:54:27+02:00</time>
      </trkpt>
      <trkpt lat="44.62077" lon="-0.24726">
        <ele>104</ele>
        <time>2019-05-23T11:54:35+02:00</time>
      </trkpt>
      <trkpt lat="44.62074" lon="-0.2474">
        <ele>105</ele>
        <time>2019-05-23T11:54:43+02:00</time>
      </trkpt>
      <trkpt lat="44.62072" lon="-0.24753">
        <ele>106</ele>
        <time>2019-05-23T11:54:51+02:00</time>
      </trkpt>
      <trkpt lat="44.62068" lon="-0.24767">
        <ele>107</ele>
        <time>2019-05-23T11:55:00+02:00</time>
      </trkpt>
      <trkpt lat="44.62065" lon="-0.2478">
        <ele>108</ele>
        <time>2019-05-23T11:55:08+02:00</time>
      </trkpt>
      <trkpt lat="44.62062" lon="-0.24794">
        <ele>109</ele>
        <time>2019-05-23T11:55:17+02:00</time>
      </trkpt>
      <trkpt lat="44.62056" lon="-0.24805">
        <ele>109</ele>
        <time>2019-05-23T11:55:26+02:00</time>
      </trkpt>
      <trkpt lat="44.62047" lon="-0.24805">
        <ele>109</ele>
        <time>2019-05-23T11:55:34+02:00</time>
      </trkpt>
      <trkpt lat="44.62038" lon="-0.24797">
        <ele>109</ele>
        <time>2019-05-23T11:55:42+02:00</time>
      </trkpt>
      <trkpt lat="44.62029" lon="-0.24791">
        <ele>108</ele>
        <time>2019-05-23T11:55:50+02:00</time>
      </trkpt>
      <trkpt lat="44.62021" lon="-0.24783">
        <ele>108</ele>
        <time>2019-05-23T11:55:58+02:00</time>
      </trkpt>
      <trkpt lat="44.62012" lon="-0.24778">
        <ele>108</ele>
        <time>2019-05-23T11:56:06+02:00</time>
      </trkpt>
      <trkpt lat="44.62006" lon="-0.24774">
        <ele>107</ele>
        <time>2019-05-23T11:56:19+02:00</time>
      </trkpt>
      <trkpt lat="44.61998" lon="-0.24767">
        <ele>107</ele>
        <time>2019-05-23T11:56:27+02:00</time>
      </trkpt>
      <trkpt lat="44.6199" lon="-0.24759">
        <ele>107</ele>
        <time>2019-05-23T11:56:35+02:00</time>
      </trkpt>
      <trkpt lat="44.6198" lon="-0.24753">
        <ele>108</ele>
        <time>2019-05-23T11:56:43+02:00</time>
      </trkpt>
      <trkpt lat="44.61972" lon="-0.24758">
        <ele>108</ele>
        <time>2019-05-23T11:56:51+02:00</time>
      </trkpt>
      <trkpt lat="44.61966" lon="-0.24769">
        <ele>109</ele>
        <time>2019-05-23T11:56:59+02:00</time>
      </trkpt>
      <trkpt lat="44.61959" lon="-0.2478">
        <ele>110</ele>
        <time>2019-05-23T11:57:07+02:00</time>
      </trkpt>
      <trkpt lat="44.61952" lon="-0.2479">
        <ele>111</ele>
        <time>2019-05-23T11:57:15+02:00</time>
      </trkpt>
      <trkpt lat="44.61947" lon="-0.248">
        <ele>111</ele>
        <time>2019-05-23T11:57:22+02:00</time>
      </trkpt>
      <trkpt lat="44.61941" lon="-0.24811">
        <ele>112</ele>
        <time>2019-05-23T11:57:30+02:00</time>
      </trkpt>
      <trkpt lat="44.61932" lon="-0.24817">
        <ele>112</ele>
        <time>2019-05-23T11:57:38+02:00</time>
      </trkpt>
      <trkpt lat="44.61922" lon="-0.2482">
        <ele>113</ele>
        <time>2019-05-23T11:57:46+02:00</time>
      </trkpt>
      <trkpt lat="44.61915" lon="-0.24831">
        <ele>113</ele>
        <time>2019-05-23T11:57:54+02:00</time>
      </trkpt>
      <trkpt lat="44.61909" lon="-0.24841">
        <ele>113</ele>
        <time>2019-05-23T11:58:03+02:00</time>
      </trkpt>
      <trkpt lat="44.61902" lon="-0.24851">
        <ele>113</ele>
        <time>2019-05-23T11:58:12+02:00</time>
      </trkpt>
      <trkpt lat="44.61895" lon="-0.24862">
        <ele>112</ele>
        <time>2019-05-23T11:58:22+02:00</time>
      </trkpt>
      <trkpt lat="44.61888" lon="-0.24874">
        <ele>112</ele>
        <time>2019-05-23T11:58:31+02:00</time>
      </trkpt>
      <trkpt lat="44.6188" lon="-0.24871">
        <ele>112</ele>
        <time>2019-05-23T11:58:51+02:00</time>
      </trkpt>
      <trkpt lat="44.61871" lon="-0.24864">
        <ele>112</ele>
        <time>2019-05-23T11:58:59+02:00</time>
      </trkpt>
      <trkpt lat="44.61864" lon="-0.24855">
        <ele>113</ele>
        <time>2019-05-23T11:59:07+02:00</time>
      </trkpt>
      <trkpt lat="44.61856" lon="-0.24846">
        <ele>113</ele>
        <time>2019-05-23T11:59:16+02:00</time>
      </trkpt>
      <trkpt lat="44.61848" lon="-0.24838">
        <ele>114</ele>
        <time>2019-05-23T11:59:25+02:00</time>
      </trkpt>
      <trkpt lat="44.6185" lon="-0.24826">
        <ele>114</ele>
        <time>2019-05-23T11:59:33+02:00</time>
      </trkpt>
      <trkpt lat="44.61842" lon="-0.24821">
        <ele>114</ele>
        <time>2019-05-23T11:59:41+02:00</time>
      </trkpt>
      <trkpt lat="44.61833" lon="-0.24822">
        <ele>114</ele>
        <time>2019-05-23T11:59:49+02:00</time>
      </trkpt>
      <trkpt lat="44.61825" lon="-0.24814">
        <ele>114</ele>
        <time>2019-05-23T11:59:56+02:00</time>
      </trkpt>
      <trkpt lat="44.61819" lon="-0.24805">
        <ele>114</ele>
        <time>2019-05-23T12:00:03+02:00</time>
      </trkpt>
      <trkpt lat="44.61812" lon="-0.24797">
        <ele>115</ele>
        <time>2019-05-23T12:00:11+02:00</time>
      </trkpt>
      <trkpt lat="44.61805" lon="-0.24787">
        <ele>115</ele>
        <time>2019-05-23T12:00:19+02:00</time>
      </trkpt>
      <trkpt lat="44.61798" lon="-0.24779">
        <ele>115</ele>
        <time>2019-05-23T12:00:27+02:00</time>
      </trkpt>
      <trkpt lat="44.61791" lon="-0.2477">
        <ele>115</ele>
        <time>2019-05-23T12:00:36+02:00</time>
      </trkpt>
      <trkpt lat="44.61784" lon="-0.24759">
        <ele>116</ele>
        <time>2019-05-23T12:00:44+02:00</time>
      </trkpt>
      <trkpt lat="44.61778" lon="-0.24748">
        <ele>116</ele>
        <time>2019-05-23T12:00:52+02:00</time>
      </trkpt>
      <trkpt lat="44.61772" lon="-0.24737">
        <ele>116</ele>
        <time>2019-05-23T12:01:00+02:00</time>
      </trkpt>
      <trkpt lat="44.61766" lon="-0.24726">
        <ele>117</ele>
        <time>2019-05-23T12:01:08+02:00</time>
      </trkpt>
      <trkpt lat="44.6176" lon="-0.24716">
        <ele>117</ele>
        <time>2019-05-23T12:01:16+02:00</time>
      </trkpt>
      <trkpt lat="44.61754" lon="-0.24705">
        <ele>118</ele>
        <time>2019-05-23T12:01:24+02:00</time>
      </trkpt>
      <trkpt lat="44.61746" lon="-0.24695">
        <ele>118</ele>
        <time>2019-05-23T12:01:33+02:00</time>
      </trkpt>
      <trkpt lat="44.61739" lon="-0.24683">
        <ele>119</ele>
        <time>2019-05-23T12:01:42+02:00</time>
      </trkpt>
      <trkpt lat="44.61731" lon="-0.24675">
        <ele>119</ele>
        <time>2019-05-23T12:01:50+02:00</time>
      </trkpt>
      <trkpt lat="44.61724" lon="-0.24666">
        <ele>119</ele>
        <time>2019-05-23T12:02:00+02:00</time>
      </trkpt>
      <trkpt lat="44.61714" lon="-0.24663">
        <ele>119</ele>
        <time>2019-05-23T12:02:11+02:00</time>
      </trkpt>
      <trkpt lat="44.61705" lon="-0.24658">
        <ele>120</ele>
        <time>2019-05-23T12:02:27+02:00</time>
      </trkpt>
      <trkpt lat="44.61698" lon="-0.24649">
        <ele>120</ele>
        <time>2019-05-23T12:02:51+02:00</time>
      </trkpt>
      <trkpt lat="44.61697" lon="-0.24638">
        <ele>120</ele>
        <time>2019-05-23T12:03:29+02:00</time>
      </trkpt>
      <trkpt lat="44.61698" lon="-0.24625">
        <ele>120</ele>
        <time>2019-05-23T12:03:40+02:00</time>
      </trkpt>
      <trkpt lat="44.61702" lon="-0.2461">
        <ele>120</ele>
        <time>2019-05-23T12:03:50+02:00</time>
      </trkpt>
      <trkpt lat="44.61705" lon="-0.24597">
        <ele>120</ele>
        <time>2019-05-23T12:03:58+02:00</time>
      </trkpt>
      <trkpt lat="44.61708" lon="-0.24583">
        <ele>120</ele>
        <time>2019-05-23T12:04:06+02:00</time>
      </trkpt>
      <trkpt lat="44.61709" lon="-0.2457">
        <ele>120</ele>
        <time>2019-05-23T12:04:13+02:00</time>
      </trkpt>
      <trkpt lat="44.6171" lon="-0.24556">
        <ele>119</ele>
        <time>2019-05-23T12:04:21+02:00</time>
      </trkpt>
      <trkpt lat="44.61713" lon="-0.24542">
        <ele>119</ele>
        <time>2019-05-23T12:04:29+02:00</time>
      </trkpt>
      <trkpt lat="44.61714" lon="-0.24528">
        <ele>118</ele>
        <time>2019-05-23T12:04:36+02:00</time>
      </trkpt>
      <trkpt lat="44.61718" lon="-0.24515">
        <ele>118</ele>
        <time>2019-05-23T12:04:44+02:00</time>
      </trkpt>
      <trkpt lat="44.6172" lon="-0.24501">
        <ele>118</ele>
        <time>2019-05-23T12:04:51+02:00</time>
      </trkpt>
      <trkpt lat="44.61723" lon="-0.24489">
        <ele>117</ele>
        <time>2019-05-23T12:04:58+02:00</time>
      </trkpt>
      <trkpt lat="44.61725" lon="-0.24476">
        <ele>117</ele>
        <time>2019-05-23T12:05:05+02:00</time>
      </trkpt>
      <trkpt lat="44.6173" lon="-0.24465">
        <ele>116</ele>
        <time>2019-05-23T12:05:12+02:00</time>
      </trkpt>
      <trkpt lat="44.61734" lon="-0.24453">
        <ele>116</ele>
        <time>2019-05-23T12:05:19+02:00</time>
      </trkpt>
      <trkpt lat="44.61739" lon="-0.24439">
        <ele>116</ele>
        <time>2019-05-23T12:05:27+02:00</time>
      </trkpt>
      <trkpt lat="44.61743" lon="-0.24427">
        <ele>115</ele>
        <time>2019-05-23T12:05:34+02:00</time>
      </trkpt>
      <trkpt lat="44.61748" lon="-0.24415">
        <ele>115</ele>
        <time>2019-05-23T12:05:41+02:00</time>
      </trkpt>
      <trkpt lat="44.61752" lon="-0.24402">
        <ele>115</ele>
        <time>2019-05-23T12:05:49+02:00</time>
      </trkpt>
      <trkpt lat="44.61756" lon="-0.2439">
        <ele>114</ele>
        <time>2019-05-23T12:05:56+02:00</time>
      </trkpt>
      <trkpt lat="44.61761" lon="-0.24377">
        <ele>114</ele>
        <time>2019-05-23T12:06:04+02:00</time>
      </trkpt>
      <trkpt lat="44.61766" lon="-0.24365">
        <ele>114</ele>
        <time>2019-05-23T12:06:11+02:00</time>
      </trkpt>
      <trkpt lat="44.6177" lon="-0.24353">
        <ele>114</ele>
        <time>2019-05-23T12:06:18+02:00</time>
      </trkpt>
      <trkpt lat="44.61774" lon="-0.24341">
        <ele>113</ele>
        <time>2019-05-23T12:06:25+02:00</time>
      </trkpt>
      <trkpt lat="44.61779" lon="-0.24329">
        <ele>113</ele>
        <time>2019-05-23T12:06:32+02:00</time>
      </trkpt>
      <trkpt lat="44.61784" lon="-0.24315">
        <ele>113</ele>
        <time>2019-05-23T12:06:40+02:00</time>
      </trkpt>
      <trkpt lat="44.61788" lon="-0.24304">
        <ele>112</ele>
        <time>2019-05-23T12:06:47+02:00</time>
      </trkpt>
      <trkpt lat="44.61794" lon="-0.24292">
        <ele>112</ele>
        <time>2019-05-23T12:06:55+02:00</time>
      </trkpt>
      <trkpt lat="44.6179" lon="-0.24281">
        <ele>111</ele>
        <time>2019-05-23T12:07:04+02:00</time>
      </trkpt>
      <trkpt lat="44.61782" lon="-0.24272">
        <ele>111</ele>
        <time>2019-05-23T12:07:12+02:00</time>
      </trkpt>
      <trkpt lat="44.61774" lon="-0.24264">
        <ele>111</ele>
        <time>2019-05-23T12:07:20+02:00</time>
      </trkpt>
      <trkpt lat="44.61766" lon="-0.24256">
        <ele>111</ele>
        <time>2019-05-23T12:07:27+02:00</time>
      </trkpt>
      <trkpt lat="44.61758" lon="-0.24249">
        <ele>111</ele>
        <time>2019-05-23T12:07:34+02:00</time>
      </trkpt>
      <trkpt lat="44.6175" lon="-0.24242">
        <ele>111</ele>
        <time>2019-05-23T12:07:41+02:00</time>
      </trkpt>
      <trkpt lat="44.6174" lon="-0.24236">
        <ele>110</ele>
        <time>2019-05-23T12:07:49+02:00</time>
      </trkpt>
      <trkpt lat="44.61732" lon="-0.24229">
        <ele>109</ele>
        <time>2019-05-23T12:07:57+02:00</time>
      </trkpt>
      <trkpt lat="44.61724" lon="-0.2422">
        <ele>108</ele>
        <time>2019-05-23T12:08:05+02:00</time>
      </trkpt>
      <trkpt lat="44.61715" lon="-0.24213">
        <ele>107</ele>
        <time>2019-05-23T12:08:13+02:00</time>
      </trkpt>
      <trkpt lat="44.61707" lon="-0.24205">
        <ele>106</ele>
        <time>2019-05-23T12:08:22+02:00</time>
      </trkpt>
      <trkpt lat="44.61697" lon="-0.24198">
        <ele>105</ele>
        <time>2019-05-23T12:08:31+02:00</time>
      </trkpt>
      <trkpt lat="44.61688" lon="-0.2419">
        <ele>104</ele>
        <time>2019-05-23T12:08:40+02:00</time>
      </trkpt>
      <trkpt lat="44.61679" lon="-0.24181">
        <ele>103</ele>
        <time>2019-05-23T12:08:49+02:00</time>
      </trkpt>
      <trkpt lat="44.61672" lon="-0.24172">
        <ele>102</ele>
        <time>2019-05-23T12:08:57+02:00</time>
      </trkpt>
      <trkpt lat="44.61664" lon="-0.24164">
        <ele>101</ele>
        <time>2019-05-23T12:09:04+02:00</time>
      </trkpt>
      <trkpt lat="44.61656" lon="-0.24155">
        <ele>100</ele>
        <time>2019-05-23T12:09:12+02:00</time>
      </trkpt>
      <trkpt lat="44.61647" lon="-0.24147">
        <ele>99</ele>
        <time>2019-05-23T12:09:21+02:00</time>
      </trkpt>
      <trkpt lat="44.61638" lon="-0.24139">
        <ele>98</ele>
        <time>2019-05-23T12:09:29+02:00</time>
      </trkpt>
      <trkpt lat="44.6163" lon="-0.24131">
        <ele>98</ele>
        <time>2019-05-23T12:09:37+02:00</time>
      </trkpt>
      <trkpt lat="44.61621" lon="-0.24124">
        <ele>97</ele>
        <time>2019-05-23T12:09:46+02:00</time>
      </trkpt>
      <trkpt lat="44.61612" lon="-0.24117">
        <ele>96</ele>
        <time>2019-05-23T12:09:54+02:00</time>
      </trkpt>
      <trkpt lat="44.61603" lon="-0.24112">
        <ele>95</ele>
        <time>2019-05-23T12:10:09+02:00</time>
      </trkpt>
      <trkpt lat="44.61595" lon="-0.24115">
        <ele>95</ele>
        <time>2019-05-23T12:10:26+02:00</time>
      </trkpt>
      <trkpt lat="44.61585" lon="-0.24114">
        <ele>95</ele>
        <time>2019-05-23T12:10:35+02:00</time>
      </trkpt>
      <trkpt lat="44.61583" lon="-0.24128">
        <ele>95</ele>
        <time>2019-05-23T12:10:44+02:00</time>
      </trkpt>
      <trkpt lat="44.61582" lon="-0.24143">
        <ele>96</ele>
        <time>2019-05-23T12:10:53+02:00</time>
      </trkpt>
      <trkpt lat="44.6158" lon="-0.24157">
        <ele>97</ele>
        <time>2019-05-23T12:11:01+02:00</time>
      </trkpt>
      <trkpt lat="44.6158" lon="-0.24171">
        <ele>97</ele>
        <time>2019-05-23T12:11:09+02:00</time>
      </trkpt>
      <trkpt lat="44.61578" lon="-0.24184">
        <ele>98</ele>
        <time>2019-05-23T12:11:18+02:00</time>
      </trkpt>
      <trkpt lat="44.61578" lon="-0.24198">
        <ele>99</ele>
        <time>2019-05-23T12:11:27+02:00</time>
      </trkpt>
      <trkpt lat="44.61577" lon="-0.24211">
        <ele>100</ele>
        <time>2019-05-23T12:11:37+02:00</time>
      </trkpt>
      <trkpt lat="44.61576" lon="-0.24224">
        <ele>101</ele>
        <time>2019-05-23T12:11:46+02:00</time>
      </trkpt>
      <trkpt lat="44.61574" lon="-0.24252">
        <ele>102</ele>
        <time>2019-05-23T12:14:15+02:00</time>
      </trkpt>
      <trkpt lat="44.61575" lon="-0.24271">
        <ele>103</ele>
        <time>2019-05-23T12:14:24+02:00</time>
      </trkpt>
      <trkpt lat="44.61573" lon="-0.24297">
        <ele>105</ele>
        <time>2019-05-23T12:14:33+02:00</time>
      </trkpt>
      <trkpt lat="44.61564" lon="-0.24296">
        <ele>105</ele>
        <time>2019-05-23T12:14:42+02:00</time>
      </trkpt>
      <trkpt lat="44.61539" lon="-0.24274">
        <ele>104</ele>
        <time>2019-05-23T12:14:51+02:00</time>
      </trkpt>
      <trkpt lat="44.61517" lon="-0.24261">
        <ele>103</ele>
        <time>2019-05-23T12:15:00+02:00</time>
      </trkpt>
      <trkpt lat="44.61496" lon="-0.24247">
        <ele>102</ele>
        <time>2019-05-23T12:15:10+02:00</time>
      </trkpt>
      <trkpt lat="44.6148" lon="-0.24233">
        <ele>102</ele>
        <time>2019-05-23T12:15:19+02:00</time>
      </trkpt>
      <trkpt lat="44.61466" lon="-0.24225">
        <ele>102</ele>
        <time>2019-05-23T12:15:29+02:00</time>
      </trkpt>
      <trkpt lat="44.61452" lon="-0.24248">
        <ele>103</ele>
        <time>2019-05-23T12:15:40+02:00</time>
      </trkpt>
      <trkpt lat="44.61438" lon="-0.24244">
        <ele>103</ele>
        <time>2019-05-23T12:15:49+02:00</time>
      </trkpt>
      <trkpt lat="44.61422" lon="-0.24233">
        <ele>103</ele>
        <time>2019-05-23T12:15:58+02:00</time>
      </trkpt>
      <trkpt lat="44.61404" lon="-0.24229">
        <ele>103</ele>
        <time>2019-05-23T12:16:08+02:00</time>
      </trkpt>
      <trkpt lat="44.61379" lon="-0.24238">
        <ele>104</ele>
        <time>2019-05-23T12:16:17+02:00</time>
      </trkpt>
      <trkpt lat="44.61362" lon="-0.24242">
        <ele>104</ele>
        <time>2019-05-23T12:16:26+02:00</time>
      </trkpt>
      <trkpt lat="44.61348" lon="-0.24241">
        <ele>105</ele>
        <time>2019-05-23T12:16:34+02:00</time>
      </trkpt>
      <trkpt lat="44.6133" lon="-0.24238">
        <ele>105</ele>
        <time>2019-05-23T12:16:42+02:00</time>
      </trkpt>
      <trkpt lat="44.61337" lon="-0.24171">
        <ele>105</ele>
        <time>2019-05-23T12:16:51+02:00</time>
      </trkpt>
      <trkpt lat="44.61344" lon="-0.24111">
        <ele>102</ele>
        <time>2019-05-23T12:17:00+02:00</time>
      </trkpt>
      <trkpt lat="44.6134" lon="-0.24058">
        <ele>102</ele>
        <time>2019-05-23T12:17:08+02:00</time>
      </trkpt>
      <trkpt lat="44.6134" lon="-0.24014">
        <ele>101</ele>
        <time>2019-05-23T12:17:17+02:00</time>
      </trkpt>
      <trkpt lat="44.61341" lon="-0.2399">
        <ele>101</ele>
        <time>2019-05-23T12:17:26+02:00</time>
      </trkpt>
      <trkpt lat="44.6134" lon="-0.23954">
        <ele>100</ele>
        <time>2019-05-23T12:17:34+02:00</time>
      </trkpt>
      <trkpt lat="44.6134" lon="-0.23913">
        <ele>99</ele>
        <time>2019-05-23T12:17:42+02:00</time>
      </trkpt>
      <trkpt lat="44.6134" lon="-0.23883">
        <ele>100</ele>
        <time>2019-05-23T12:17:50+02:00</time>
      </trkpt>
      <trkpt lat="44.61337" lon="-0.23849">
        <ele>100</ele>
        <time>2019-05-23T12:17:59+02:00</time>
      </trkpt>
      <trkpt lat="44.61332" lon="-0.23819">
        <ele>101</ele>
        <time>2019-05-23T12:18:10+02:00</time>
      </trkpt>
      <trkpt lat="44.6133" lon="-0.23798">
        <ele>100</ele>
        <time>2019-05-23T12:18:24+02:00</time>
      </trkpt>
      <trkpt lat="44.61327" lon="-0.23776">
        <ele>100</ele>
        <time>2019-05-23T12:18:33+02:00</time>
      </trkpt>
      <trkpt lat="44.61333" lon="-0.2375">
        <ele>100</ele>
        <time>2019-05-23T12:22:56+02:00</time>
      </trkpt>
      <trkpt lat="44.61333" lon="-0.23752">
        <ele>100</ele>
        <time>2019-05-23T12:23:12+02:00</time>
      </trkpt>
      <trkpt lat="44.61328" lon="-0.23741">
        <ele>99</ele>
        <time>2019-05-23T12:23:20+02:00</time>
      </trkpt>
      <trkpt lat="44.61322" lon="-0.23731">
        <ele>97</ele>
        <time>2019-05-23T12:23:27+02:00</time>
      </trkpt>
      <trkpt lat="44.61314" lon="-0.23725">
        <ele>96</ele>
        <time>2019-05-23T12:23:35+02:00</time>
      </trkpt>
      <trkpt lat="44.61306" lon="-0.23729">
        <ele>95</ele>
        <time>2019-05-23T12:23:45+02:00</time>
      </trkpt>
      <trkpt lat="44.61304" lon="-0.23729">
        <ele>95</ele>
        <time>2019-05-23T12:50:03+02:00</time>
      </trkpt>
      <trkpt lat="44.61308" lon="-0.23736">
        <ele>96</ele>
        <time>2019-05-23T12:50:27+02:00</time>
      </trkpt>
      <trkpt lat="44.61306" lon="-0.23747">
        <ele>97</ele>
        <time>2019-05-23T12:50:47+02:00</time>
      </trkpt>
      <trkpt lat="44.61307" lon="-0.23748">
        <ele>98</ele>
        <time>2019-05-23T12:51:36+02:00</time>
      </trkpt>
      <trkpt lat="44.61316" lon="-0.23743">
        <ele>98</ele>
        <time>2019-05-23T12:51:47+02:00</time>
      </trkpt>
      <trkpt lat="44.61323" lon="-0.23752">
        <ele>99</ele>
        <time>2019-05-23T12:51:55+02:00</time>
      </trkpt>
      <trkpt lat="44.61323" lon="-0.23764">
        <ele>99</ele>
        <time>2019-05-23T12:52:05+02:00</time>
      </trkpt>
      <trkpt lat="44.61316" lon="-0.2377">
        <ele>99</ele>
        <time>2019-05-23T12:52:34+02:00</time>
      </trkpt>
      <trkpt lat="44.61308" lon="-0.23767">
        <ele>98</ele>
        <time>2019-05-23T12:52:56+02:00</time>
      </trkpt>
      <trkpt lat="44.61299" lon="-0.23763">
        <ele>98</ele>
        <time>2019-05-23T12:53:05+02:00</time>
      </trkpt>
      <trkpt lat="44.61287" lon="-0.23758">
        <ele>96</ele>
        <time>2019-05-23T12:53:14+02:00</time>
      </trkpt>
      <trkpt lat="44.61273" lon="-0.23763">
        <ele>96</ele>
        <time>2019-05-23T12:53:22+02:00</time>
      </trkpt>
      <trkpt lat="44.61262" lon="-0.23771">
        <ele>95</ele>
        <time>2019-05-23T12:53:31+02:00</time>
      </trkpt>
      <trkpt lat="44.61255" lon="-0.23774">
        <ele>95</ele>
        <time>2019-05-23T12:54:20+02:00</time>
      </trkpt>
      <trkpt lat="44.61248" lon="-0.23778">
        <ele>95</ele>
        <time>2019-05-23T12:54:29+02:00</time>
      </trkpt>
      <trkpt lat="44.61241" lon="-0.23783">
        <ele>95</ele>
        <time>2019-05-23T12:54:40+02:00</time>
      </trkpt>
      <trkpt lat="44.61235" lon="-0.23786">
        <ele>95</ele>
        <time>2019-05-23T12:54:49+02:00</time>
      </trkpt>
      <trkpt lat="44.6123" lon="-0.23786">
        <ele>94</ele>
        <time>2019-05-23T12:55:05+02:00</time>
      </trkpt>
      <trkpt lat="44.61222" lon="-0.23787">
        <ele>94</ele>
        <time>2019-05-23T12:55:21+02:00</time>
      </trkpt>
      <trkpt lat="44.61209" lon="-0.23783">
        <ele>93</ele>
        <time>2019-05-23T12:55:40+02:00</time>
      </trkpt>
      <trkpt lat="44.61195" lon="-0.23776">
        <ele>91</ele>
        <time>2019-05-23T12:55:49+02:00</time>
      </trkpt>
      <trkpt lat="44.61184" lon="-0.2377">
        <ele>91</ele>
        <time>2019-05-23T12:55:58+02:00</time>
      </trkpt>
      <trkpt lat="44.61164" lon="-0.23765">
        <ele>89</ele>
        <time>2019-05-23T12:56:14+02:00</time>
      </trkpt>
      <trkpt lat="44.61151" lon="-0.23763">
        <ele>88</ele>
        <time>2019-05-23T12:56:22+02:00</time>
      </trkpt>
      <trkpt lat="44.61136" lon="-0.23761">
        <ele>87</ele>
        <time>2019-05-23T12:56:34+02:00</time>
      </trkpt>
      <trkpt lat="44.61122" lon="-0.23761">
        <ele>87</ele>
        <time>2019-05-23T12:56:47+02:00</time>
      </trkpt>
      <trkpt lat="44.6111" lon="-0.23748">
        <ele>85</ele>
        <time>2019-05-23T12:57:02+02:00</time>
      </trkpt>
      <trkpt lat="44.61104" lon="-0.23748">
        <ele>85</ele>
        <time>2019-05-23T12:57:13+02:00</time>
      </trkpt>
      <trkpt lat="44.61088" lon="-0.23749">
        <ele>84</ele>
        <time>2019-05-23T12:57:27+02:00</time>
      </trkpt>
      <trkpt lat="44.61074" lon="-0.23758">
        <ele>84</ele>
        <time>2019-05-23T12:58:03+02:00</time>
      </trkpt>
      <trkpt lat="44.61061" lon="-0.2377">
        <ele>85</ele>
        <time>2019-05-23T12:58:28+02:00</time>
      </trkpt>
      <trkpt lat="44.61043" lon="-0.23765">
        <ele>86</ele>
        <time>2019-05-23T12:58:45+02:00</time>
      </trkpt>
      <trkpt lat="44.6103" lon="-0.2376">
        <ele>86</ele>
        <time>2019-05-23T12:59:01+02:00</time>
      </trkpt>
      <trkpt lat="44.61017" lon="-0.23752">
        <ele>86</ele>
        <time>2019-05-23T12:59:24+02:00</time>
      </trkpt>
      <trkpt lat="44.61009" lon="-0.23755">
        <ele>87</ele>
        <time>2019-05-23T12:59:58+02:00</time>
      </trkpt>
      <trkpt lat="44.61004" lon="-0.23767">
        <ele>87</ele>
        <time>2019-05-23T13:00:07+02:00</time>
      </trkpt>
      <trkpt lat="44.60999" lon="-0.23782">
        <ele>88</ele>
        <time>2019-05-23T13:00:15+02:00</time>
      </trkpt>
      <trkpt lat="44.60996" lon="-0.23796">
        <ele>89</ele>
        <time>2019-05-23T13:00:27+02:00</time>
      </trkpt>
      <trkpt lat="44.60994" lon="-0.23811">
        <ele>90</ele>
        <time>2019-05-23T13:00:35+02:00</time>
      </trkpt>
      <trkpt lat="44.6099" lon="-0.23824">
        <ele>91</ele>
        <time>2019-05-23T13:00:42+02:00</time>
      </trkpt>
      <trkpt lat="44.60985" lon="-0.2384">
        <ele>92</ele>
        <time>2019-05-23T13:00:51+02:00</time>
      </trkpt>
      <trkpt lat="44.60978" lon="-0.23848">
        <ele>93</ele>
        <time>2019-05-23T13:00:59+02:00</time>
      </trkpt>
      <trkpt lat="44.60967" lon="-0.23852">
        <ele>95</ele>
        <time>2019-05-23T13:01:09+02:00</time>
      </trkpt>
      <trkpt lat="44.60957" lon="-0.23853">
        <ele>96</ele>
        <time>2019-05-23T13:01:18+02:00</time>
      </trkpt>
      <trkpt lat="44.60948" lon="-0.23855">
        <ele>97</ele>
        <time>2019-05-23T13:01:30+02:00</time>
      </trkpt>
      <trkpt lat="44.60938" lon="-0.23857">
        <ele>98</ele>
        <time>2019-05-23T13:01:42+02:00</time>
      </trkpt>
      <trkpt lat="44.60929" lon="-0.23858">
        <ele>98</ele>
        <time>2019-05-23T13:01:55+02:00</time>
      </trkpt>
      <trkpt lat="44.60918" lon="-0.23862">
        <ele>100</ele>
        <time>2019-05-23T13:02:08+02:00</time>
      </trkpt>
      <trkpt lat="44.60911" lon="-0.2387">
        <ele>100</ele>
        <time>2019-05-23T13:02:20+02:00</time>
      </trkpt>
      <trkpt lat="44.60902" lon="-0.23878">
        <ele>101</ele>
        <time>2019-05-23T13:02:29+02:00</time>
      </trkpt>
      <trkpt lat="44.60898" lon="-0.2389">
        <ele>102</ele>
        <time>2019-05-23T13:02:39+02:00</time>
      </trkpt>
      <trkpt lat="44.60894" lon="-0.239">
        <ele>102</ele>
        <time>2019-05-23T13:02:49+02:00</time>
      </trkpt>
      <trkpt lat="44.60889" lon="-0.23907">
        <ele>102</ele>
        <time>2019-05-23T13:03:02+02:00</time>
      </trkpt>
      <trkpt lat="44.60892" lon="-0.23921">
        <ele>103</ele>
        <time>2019-05-23T13:03:17+02:00</time>
      </trkpt>
      <trkpt lat="44.60894" lon="-0.23935">
        <ele>103</ele>
        <time>2019-05-23T13:03:27+02:00</time>
      </trkpt>
      <trkpt lat="44.60898" lon="-0.23948">
        <ele>104</ele>
        <time>2019-05-23T13:03:36+02:00</time>
      </trkpt>
      <trkpt lat="44.60901" lon="-0.23961">
        <ele>104</ele>
        <time>2019-05-23T13:03:45+02:00</time>
      </trkpt>
      <trkpt lat="44.60904" lon="-0.23973">
        <ele>105</ele>
        <time>2019-05-23T13:03:54+02:00</time>
      </trkpt>
      <trkpt lat="44.60909" lon="-0.23987">
        <ele>105</ele>
        <time>2019-05-23T13:04:04+02:00</time>
      </trkpt>
      <trkpt lat="44.60912" lon="-0.24001">
        <ele>106</ele>
        <time>2019-05-23T13:04:12+02:00</time>
      </trkpt>
      <trkpt lat="44.60916" lon="-0.24014">
        <ele>106</ele>
        <time>2019-05-23T13:04:20+02:00</time>
      </trkpt>
      <trkpt lat="44.6092" lon="-0.24027">
        <ele>106</ele>
        <time>2019-05-23T13:04:28+02:00</time>
      </trkpt>
      <trkpt lat="44.60923" lon="-0.24041">
        <ele>106</ele>
        <time>2019-05-23T13:04:36+02:00</time>
      </trkpt>
      <trkpt lat="44.60927" lon="-0.24054">
        <ele>106</ele>
        <time>2019-05-23T13:04:44+02:00</time>
      </trkpt>
      <trkpt lat="44.60932" lon="-0.24067">
        <ele>106</ele>
        <time>2019-05-23T13:04:52+02:00</time>
      </trkpt>
      <trkpt lat="44.60937" lon="-0.24081">
        <ele>106</ele>
        <time>2019-05-23T13:05:02+02:00</time>
      </trkpt>
      <trkpt lat="44.60941" lon="-0.24095">
        <ele>106</ele>
        <time>2019-05-23T13:05:12+02:00</time>
      </trkpt>
      <trkpt lat="44.60946" lon="-0.24109">
        <ele>106</ele>
        <time>2019-05-23T13:05:22+02:00</time>
      </trkpt>
      <trkpt lat="44.60949" lon="-0.24124">
        <ele>106</ele>
        <time>2019-05-23T13:05:30+02:00</time>
      </trkpt>
      <trkpt lat="44.60953" lon="-0.24138">
        <ele>107</ele>
        <time>2019-05-23T13:05:37+02:00</time>
      </trkpt>
      <trkpt lat="44.60955" lon="-0.24153">
        <ele>107</ele>
        <time>2019-05-23T13:05:44+02:00</time>
      </trkpt>
      <trkpt lat="44.60958" lon="-0.24165">
        <ele>107</ele>
        <time>2019-05-23T13:05:51+02:00</time>
      </trkpt>
      <trkpt lat="44.60961" lon="-0.24179">
        <ele>107</ele>
        <time>2019-05-23T13:05:59+02:00</time>
      </trkpt>
      <trkpt lat="44.60963" lon="-0.24192">
        <ele>108</ele>
        <time>2019-05-23T13:06:06+02:00</time>
      </trkpt>
      <trkpt lat="44.60966" lon="-0.24204">
        <ele>108</ele>
        <time>2019-05-23T13:06:13+02:00</time>
      </trkpt>
      <trkpt lat="44.60968" lon="-0.24217">
        <ele>109</ele>
        <time>2019-05-23T13:06:20+02:00</time>
      </trkpt>
      <trkpt lat="44.60971" lon="-0.24229">
        <ele>109</ele>
        <time>2019-05-23T13:06:27+02:00</time>
      </trkpt>
      <trkpt lat="44.60974" lon="-0.24243">
        <ele>109</ele>
        <time>2019-05-23T13:06:35+02:00</time>
      </trkpt>
      <trkpt lat="44.60978" lon="-0.24257">
        <ele>110</ele>
        <time>2019-05-23T13:06:43+02:00</time>
      </trkpt>
      <trkpt lat="44.6098" lon="-0.2427">
        <ele>110</ele>
        <time>2019-05-23T13:06:50+02:00</time>
      </trkpt>
      <trkpt lat="44.60983" lon="-0.24284">
        <ele>110</ele>
        <time>2019-05-23T13:06:58+02:00</time>
      </trkpt>
      <trkpt lat="44.60985" lon="-0.24298">
        <ele>110</ele>
        <time>2019-05-23T13:07:06+02:00</time>
      </trkpt>
      <trkpt lat="44.60979" lon="-0.2431">
        <ele>110</ele>
        <time>2019-05-23T13:07:15+02:00</time>
      </trkpt>
      <trkpt lat="44.6097" lon="-0.24311">
        <ele>109</ele>
        <time>2019-05-23T13:07:22+02:00</time>
      </trkpt>
      <trkpt lat="44.6096" lon="-0.24312">
        <ele>109</ele>
        <time>2019-05-23T13:07:29+02:00</time>
      </trkpt>
      <trkpt lat="44.60957" lon="-0.24324">
        <ele>109</ele>
        <time>2019-05-23T13:07:38+02:00</time>
      </trkpt>
      <trkpt lat="44.60953" lon="-0.24338">
        <ele>108</ele>
        <time>2019-05-23T13:07:46+02:00</time>
      </trkpt>
      <trkpt lat="44.60951" lon="-0.24352">
        <ele>108</ele>
        <time>2019-05-23T13:07:53+02:00</time>
      </trkpt>
      <trkpt lat="44.60948" lon="-0.24365">
        <ele>107</ele>
        <time>2019-05-23T13:08:01+02:00</time>
      </trkpt>
      <trkpt lat="44.60944" lon="-0.24379">
        <ele>107</ele>
        <time>2019-05-23T13:08:09+02:00</time>
      </trkpt>
      <trkpt lat="44.60939" lon="-0.24392">
        <ele>106</ele>
        <time>2019-05-23T13:08:16+02:00</time>
      </trkpt>
      <trkpt lat="44.60934" lon="-0.24405">
        <ele>106</ele>
        <time>2019-05-23T13:08:23+02:00</time>
      </trkpt>
      <trkpt lat="44.60929" lon="-0.24417">
        <ele>105</ele>
        <time>2019-05-23T13:08:30+02:00</time>
      </trkpt>
      <trkpt lat="44.60926" lon="-0.2443">
        <ele>105</ele>
        <time>2019-05-23T13:08:37+02:00</time>
      </trkpt>
      <trkpt lat="44.60921" lon="-0.24442">
        <ele>105</ele>
        <time>2019-05-23T13:08:44+02:00</time>
      </trkpt>
      <trkpt lat="44.60918" lon="-0.24455">
        <ele>105</ele>
        <time>2019-05-23T13:08:51+02:00</time>
      </trkpt>
      <trkpt lat="44.60914" lon="-0.24469">
        <ele>105</ele>
        <time>2019-05-23T13:08:58+02:00</time>
      </trkpt>
      <trkpt lat="44.6091" lon="-0.2448">
        <ele>104</ele>
        <time>2019-05-23T13:09:04+02:00</time>
      </trkpt>
      <trkpt lat="44.60906" lon="-0.24493">
        <ele>104</ele>
        <time>2019-05-23T13:09:11+02:00</time>
      </trkpt>
      <trkpt lat="44.60902" lon="-0.24504">
        <ele>103</ele>
        <time>2019-05-23T13:09:18+02:00</time>
      </trkpt>
      <trkpt lat="44.60899" lon="-0.24516">
        <ele>102</ele>
        <time>2019-05-23T13:09:26+02:00</time>
      </trkpt>
      <trkpt lat="44.60896" lon="-0.24529">
        <ele>102</ele>
        <time>2019-05-23T13:09:33+02:00</time>
      </trkpt>
      <trkpt lat="44.60893" lon="-0.24541">
        <ele>101</ele>
        <time>2019-05-23T13:09:40+02:00</time>
      </trkpt>
      <trkpt lat="44.60891" lon="-0.24554">
        <ele>101</ele>
        <time>2019-05-23T13:09:47+02:00</time>
      </trkpt>
      <trkpt lat="44.60888" lon="-0.24567">
        <ele>100</ele>
        <time>2019-05-23T13:09:54+02:00</time>
      </trkpt>
      <trkpt lat="44.60885" lon="-0.24581">
        <ele>100</ele>
        <time>2019-05-23T13:10:01+02:00</time>
      </trkpt>
      <trkpt lat="44.60885" lon="-0.24595">
        <ele>100</ele>
        <time>2019-05-23T13:10:08+02:00</time>
      </trkpt>
      <trkpt lat="44.60881" lon="-0.24608">
        <ele>100</ele>
        <time>2019-05-23T13:10:15+02:00</time>
      </trkpt>
      <trkpt lat="44.6088" lon="-0.24622">
        <ele>100</ele>
        <time>2019-05-23T13:10:22+02:00</time>
      </trkpt>
      <trkpt lat="44.60877" lon="-0.24636">
        <ele>99</ele>
        <time>2019-05-23T13:10:29+02:00</time>
      </trkpt>
      <trkpt lat="44.60874" lon="-0.24649">
        <ele>99</ele>
        <time>2019-05-23T13:10:36+02:00</time>
      </trkpt>
      <trkpt lat="44.60872" lon="-0.24663">
        <ele>99</ele>
        <time>2019-05-23T13:10:43+02:00</time>
      </trkpt>
      <trkpt lat="44.60867" lon="-0.24676">
        <ele>99</ele>
        <time>2019-05-23T13:10:50+02:00</time>
      </trkpt>
      <trkpt lat="44.60864" lon="-0.24688">
        <ele>99</ele>
        <time>2019-05-23T13:10:57+02:00</time>
      </trkpt>
      <trkpt lat="44.60861" lon="-0.24702">
        <ele>99</ele>
        <time>2019-05-23T13:11:04+02:00</time>
      </trkpt>
      <trkpt lat="44.60857" lon="-0.24715">
        <ele>99</ele>
        <time>2019-05-23T13:11:11+02:00</time>
      </trkpt>
      <trkpt lat="44.60853" lon="-0.24728">
        <ele>99</ele>
        <time>2019-05-23T13:11:18+02:00</time>
      </trkpt>
      <trkpt lat="44.6085" lon="-0.24742">
        <ele>98</ele>
        <time>2019-05-23T13:11:25+02:00</time>
      </trkpt>
      <trkpt lat="44.60845" lon="-0.24754">
        <ele>98</ele>
        <time>2019-05-23T13:11:32+02:00</time>
      </trkpt>
      <trkpt lat="44.60842" lon="-0.24767">
        <ele>98</ele>
        <time>2019-05-23T13:11:39+02:00</time>
      </trkpt>
      <trkpt lat="44.60838" lon="-0.24779">
        <ele>98</ele>
        <time>2019-05-23T13:11:46+02:00</time>
      </trkpt>
      <trkpt lat="44.60833" lon="-0.24791">
        <ele>98</ele>
        <time>2019-05-23T13:11:53+02:00</time>
      </trkpt>
      <trkpt lat="44.6083" lon="-0.24805">
        <ele>98</ele>
        <time>2019-05-23T13:12:00+02:00</time>
      </trkpt>
      <trkpt lat="44.60825" lon="-0.24816">
        <ele>98</ele>
        <time>2019-05-23T13:12:07+02:00</time>
      </trkpt>
      <trkpt lat="44.60822" lon="-0.24828">
        <ele>97</ele>
        <time>2019-05-23T13:12:14+02:00</time>
      </trkpt>
      <trkpt lat="44.60818" lon="-0.24841">
        <ele>97</ele>
        <time>2019-05-23T13:12:21+02:00</time>
      </trkpt>
      <trkpt lat="44.60813" lon="-0.24853">
        <ele>96</ele>
        <time>2019-05-23T13:12:28+02:00</time>
      </trkpt>
      <trkpt lat="44.6081" lon="-0.24866">
        <ele>96</ele>
        <time>2019-05-23T13:12:35+02:00</time>
      </trkpt>
      <trkpt lat="44.60806" lon="-0.24878">
        <ele>95</ele>
        <time>2019-05-23T13:12:42+02:00</time>
      </trkpt>
      <trkpt lat="44.60801" lon="-0.2489">
        <ele>95</ele>
        <time>2019-05-23T13:12:49+02:00</time>
      </trkpt>
      <trkpt lat="44.60795" lon="-0.24899">
        <ele>94</ele>
        <time>2019-05-23T13:12:56+02:00</time>
      </trkpt>
      <trkpt lat="44.60789" lon="-0.24903">
        <ele>94</ele>
        <time>2019-05-23T13:13:09+02:00</time>
      </trkpt>
      <trkpt lat="44.60781" lon="-0.24898">
        <ele>93</ele>
        <time>2019-05-23T13:13:17+02:00</time>
      </trkpt>
      <trkpt lat="44.60772" lon="-0.24894">
        <ele>92</ele>
        <time>2019-05-23T13:13:24+02:00</time>
      </trkpt>
      <trkpt lat="44.60763" lon="-0.24888">
        <ele>91</ele>
        <time>2019-05-23T13:13:32+02:00</time>
      </trkpt>
      <trkpt lat="44.60757" lon="-0.24878">
        <ele>90</ele>
        <time>2019-05-23T13:13:42+02:00</time>
      </trkpt>
      <trkpt lat="44.60751" lon="-0.24867">
        <ele>89</ele>
        <time>2019-05-23T13:13:51+02:00</time>
      </trkpt>
      <trkpt lat="44.60743" lon="-0.24859">
        <ele>87</ele>
        <time>2019-05-23T13:13:59+02:00</time>
      </trkpt>
      <trkpt lat="44.60734" lon="-0.24856">
        <ele>86</ele>
        <time>2019-05-23T13:14:07+02:00</time>
      </trkpt>
      <trkpt lat="44.60724" lon="-0.24851">
        <ele>85</ele>
        <time>2019-05-23T13:14:16+02:00</time>
      </trkpt>
      <trkpt lat="44.60714" lon="-0.24847">
        <ele>83</ele>
        <time>2019-05-23T13:14:24+02:00</time>
      </trkpt>
      <trkpt lat="44.60704" lon="-0.24843">
        <ele>82</ele>
        <time>2019-05-23T13:14:33+02:00</time>
      </trkpt>
      <trkpt lat="44.60694" lon="-0.24843">
        <ele>81</ele>
        <time>2019-05-23T13:14:41+02:00</time>
      </trkpt>
      <trkpt lat="44.60685" lon="-0.24847">
        <ele>80</ele>
        <time>2019-05-23T13:14:49+02:00</time>
      </trkpt>
      <trkpt lat="44.60675" lon="-0.24854">
        <ele>79</ele>
        <time>2019-05-23T13:14:57+02:00</time>
      </trkpt>
      <trkpt lat="44.60666" lon="-0.24859">
        <ele>78</ele>
        <time>2019-05-23T13:15:04+02:00</time>
      </trkpt>
      <trkpt lat="44.60658" lon="-0.24864">
        <ele>77</ele>
        <time>2019-05-23T13:15:11+02:00</time>
      </trkpt>
      <trkpt lat="44.60649" lon="-0.2487">
        <ele>77</ele>
        <time>2019-05-23T13:15:19+02:00</time>
      </trkpt>
      <trkpt lat="44.60639" lon="-0.24873">
        <ele>75</ele>
        <time>2019-05-23T13:15:29+02:00</time>
      </trkpt>
      <trkpt lat="44.60629" lon="-0.24872">
        <ele>74</ele>
        <time>2019-05-23T13:15:37+02:00</time>
      </trkpt>
      <trkpt lat="44.60618" lon="-0.24876">
        <ele>73</ele>
        <time>2019-05-23T13:15:45+02:00</time>
      </trkpt>
      <trkpt lat="44.60609" lon="-0.24881">
        <ele>72</ele>
        <time>2019-05-23T13:15:52+02:00</time>
      </trkpt>
      <trkpt lat="44.606" lon="-0.24888">
        <ele>71</ele>
        <time>2019-05-23T13:15:59+02:00</time>
      </trkpt>
      <trkpt lat="44.60593" lon="-0.24896">
        <ele>70</ele>
        <time>2019-05-23T13:16:06+02:00</time>
      </trkpt>
      <trkpt lat="44.60586" lon="-0.24907">
        <ele>70</ele>
        <time>2019-05-23T13:16:13+02:00</time>
      </trkpt>
      <trkpt lat="44.60579" lon="-0.24917">
        <ele>70</ele>
        <time>2019-05-23T13:16:20+02:00</time>
      </trkpt>
      <trkpt lat="44.60573" lon="-0.24926">
        <ele>69</ele>
        <time>2019-05-23T13:16:27+02:00</time>
      </trkpt>
      <trkpt lat="44.60566" lon="-0.24936">
        <ele>69</ele>
        <time>2019-05-23T13:16:34+02:00</time>
      </trkpt>
      <trkpt lat="44.60559" lon="-0.24946">
        <ele>69</ele>
        <time>2019-05-23T13:16:41+02:00</time>
      </trkpt>
      <trkpt lat="44.60552" lon="-0.24955">
        <ele>68</ele>
        <time>2019-05-23T13:16:48+02:00</time>
      </trkpt>
      <trkpt lat="44.60547" lon="-0.24967">
        <ele>68</ele>
        <time>2019-05-23T13:16:55+02:00</time>
      </trkpt>
      <trkpt lat="44.6054" lon="-0.24977">
        <ele>68</ele>
        <time>2019-05-23T13:17:02+02:00</time>
      </trkpt>
      <trkpt lat="44.60534" lon="-0.24989">
        <ele>67</ele>
        <time>2019-05-23T13:17:09+02:00</time>
      </trkpt>
      <trkpt lat="44.60529" lon="-0.25001">
        <ele>67</ele>
        <time>2019-05-23T13:17:16+02:00</time>
      </trkpt>
      <trkpt lat="44.60523" lon="-0.25013">
        <ele>66</ele>
        <time>2019-05-23T13:17:23+02:00</time>
      </trkpt>
      <trkpt lat="44.60519" lon="-0.25026">
        <ele>66</ele>
        <time>2019-05-23T13:17:30+02:00</time>
      </trkpt>
      <trkpt lat="44.60514" lon="-0.25038">
        <ele>66</ele>
        <time>2019-05-23T13:17:37+02:00</time>
      </trkpt>
      <trkpt lat="44.60507" lon="-0.2505">
        <ele>65</ele>
        <time>2019-05-23T13:17:44+02:00</time>
      </trkpt>
      <trkpt lat="44.60503" lon="-0.25063">
        <ele>65</ele>
        <time>2019-05-23T13:17:51+02:00</time>
      </trkpt>
      <trkpt lat="44.60498" lon="-0.25075">
        <ele>65</ele>
        <time>2019-05-23T13:17:58+02:00</time>
      </trkpt>
      <trkpt lat="44.60494" lon="-0.25088">
        <ele>64</ele>
        <time>2019-05-23T13:18:05+02:00</time>
      </trkpt>
      <trkpt lat="44.60491" lon="-0.25101">
        <ele>64</ele>
        <time>2019-05-23T13:18:12+02:00</time>
      </trkpt>
      <trkpt lat="44.60486" lon="-0.25114">
        <ele>63</ele>
        <time>2019-05-23T13:18:19+02:00</time>
      </trkpt>
      <trkpt lat="44.60483" lon="-0.25128">
        <ele>62</ele>
        <time>2019-05-23T13:18:26+02:00</time>
      </trkpt>
      <trkpt lat="44.6048" lon="-0.25141">
        <ele>62</ele>
        <time>2019-05-23T13:18:33+02:00</time>
      </trkpt>
      <trkpt lat="44.60476" lon="-0.25154">
        <ele>61</ele>
        <time>2019-05-23T13:18:40+02:00</time>
      </trkpt>
      <trkpt lat="44.60472" lon="-0.25166">
        <ele>61</ele>
        <time>2019-05-23T13:18:47+02:00</time>
      </trkpt>
      <trkpt lat="44.60467" lon="-0.25179">
        <ele>60</ele>
        <time>2019-05-23T13:18:54+02:00</time>
      </trkpt>
      <trkpt lat="44.60464" lon="-0.25192">
        <ele>60</ele>
        <time>2019-05-23T13:19:01+02:00</time>
      </trkpt>
      <trkpt lat="44.6046" lon="-0.25204">
        <ele>60</ele>
        <time>2019-05-23T13:19:08+02:00</time>
      </trkpt>
      <trkpt lat="44.60458" lon="-0.25219">
        <ele>60</ele>
        <time>2019-05-23T13:19:15+02:00</time>
      </trkpt>
      <trkpt lat="44.60454" lon="-0.25233">
        <ele>60</ele>
        <time>2019-05-23T13:19:23+02:00</time>
      </trkpt>
      <trkpt lat="44.60451" lon="-0.25245">
        <ele>59</ele>
        <time>2019-05-23T13:19:30+02:00</time>
      </trkpt>
      <trkpt lat="44.60444" lon="-0.25256">
        <ele>59</ele>
        <time>2019-05-23T13:19:37+02:00</time>
      </trkpt>
      <trkpt lat="44.60439" lon="-0.25267">
        <ele>59</ele>
        <time>2019-05-23T13:19:44+02:00</time>
      </trkpt>
      <trkpt lat="44.60434" lon="-0.25279">
        <ele>58</ele>
        <time>2019-05-23T13:19:51+02:00</time>
      </trkpt>
      <trkpt lat="44.60427" lon="-0.2529">
        <ele>58</ele>
        <time>2019-05-23T13:19:58+02:00</time>
      </trkpt>
      <trkpt lat="44.60422" lon="-0.25303">
        <ele>58</ele>
        <time>2019-05-23T13:20:05+02:00</time>
      </trkpt>
      <trkpt lat="44.60415" lon="-0.25314">
        <ele>57</ele>
        <time>2019-05-23T13:20:12+02:00</time>
      </trkpt>
      <trkpt lat="44.60408" lon="-0.25324">
        <ele>57</ele>
        <time>2019-05-23T13:20:19+02:00</time>
      </trkpt>
      <trkpt lat="44.60402" lon="-0.25335">
        <ele>56</ele>
        <time>2019-05-23T13:20:26+02:00</time>
      </trkpt>
      <trkpt lat="44.60396" lon="-0.25346">
        <ele>56</ele>
        <time>2019-05-23T13:20:33+02:00</time>
      </trkpt>
      <trkpt lat="44.6039" lon="-0.25357">
        <ele>56</ele>
        <time>2019-05-23T13:20:40+02:00</time>
      </trkpt>
      <trkpt lat="44.60385" lon="-0.25368">
        <ele>56</ele>
        <time>2019-05-23T13:20:48+02:00</time>
      </trkpt>
      <trkpt lat="44.60379" lon="-0.25379">
        <ele>56</ele>
        <time>2019-05-23T13:21:09+02:00</time>
      </trkpt>
      <trkpt lat="44.60375" lon="-0.25393">
        <ele>57</ele>
        <time>2019-05-23T13:21:17+02:00</time>
      </trkpt>
      <trkpt lat="44.60367" lon="-0.254">
        <ele>56</ele>
        <time>2019-05-23T13:21:33+02:00</time>
      </trkpt>
      <trkpt lat="44.60358" lon="-0.25408">
        <ele>55</ele>
        <time>2019-05-23T13:21:40+02:00</time>
      </trkpt>
      <trkpt lat="44.60349" lon="-0.25415">
        <ele>54</ele>
        <time>2019-05-23T13:21:48+02:00</time>
      </trkpt>
      <trkpt lat="44.6034" lon="-0.25424">
        <ele>53</ele>
        <time>2019-05-23T13:21:56+02:00</time>
      </trkpt>
      <trkpt lat="44.60332" lon="-0.25431">
        <ele>52</ele>
        <time>2019-05-23T13:22:03+02:00</time>
      </trkpt>
      <trkpt lat="44.60324" lon="-0.25439">
        <ele>52</ele>
        <time>2019-05-23T13:22:10+02:00</time>
      </trkpt>
      <trkpt lat="44.60316" lon="-0.25446">
        <ele>52</ele>
        <time>2019-05-23T13:22:17+02:00</time>
      </trkpt>
      <trkpt lat="44.60306" lon="-0.25453">
        <ele>51</ele>
        <time>2019-05-23T13:22:24+02:00</time>
      </trkpt>
      <trkpt lat="44.60297" lon="-0.2546">
        <ele>51</ele>
        <time>2019-05-23T13:22:31+02:00</time>
      </trkpt>
      <trkpt lat="44.60289" lon="-0.25468">
        <ele>50</ele>
        <time>2019-05-23T13:22:38+02:00</time>
      </trkpt>
      <trkpt lat="44.60279" lon="-0.25472">
        <ele>49</ele>
        <time>2019-05-23T13:22:46+02:00</time>
      </trkpt>
      <trkpt lat="44.60269" lon="-0.25476">
        <ele>49</ele>
        <time>2019-05-23T13:22:54+02:00</time>
      </trkpt>
      <trkpt lat="44.60259" lon="-0.25477">
        <ele>48</ele>
        <time>2019-05-23T13:23:01+02:00</time>
      </trkpt>
      <trkpt lat="44.60248" lon="-0.25481">
        <ele>47</ele>
        <time>2019-05-23T13:23:09+02:00</time>
      </trkpt>
      <trkpt lat="44.60237" lon="-0.25484">
        <ele>46</ele>
        <time>2019-05-23T13:23:17+02:00</time>
      </trkpt>
      <trkpt lat="44.60227" lon="-0.25486">
        <ele>45</ele>
        <time>2019-05-23T13:23:25+02:00</time>
      </trkpt>
      <trkpt lat="44.60217" lon="-0.25493">
        <ele>44</ele>
        <time>2019-05-23T13:23:33+02:00</time>
      </trkpt>
      <trkpt lat="44.60207" lon="-0.25495">
        <ele>44</ele>
        <time>2019-05-23T13:23:43+02:00</time>
      </trkpt>
      <trkpt lat="44.60199" lon="-0.2549">
        <ele>43</ele>
        <time>2019-05-23T13:23:52+02:00</time>
      </trkpt>
      <trkpt lat="44.60188" lon="-0.25491">
        <ele>42</ele>
        <time>2019-05-23T13:24:01+02:00</time>
      </trkpt>
      <trkpt lat="44.60178" lon="-0.25493">
        <ele>41</ele>
        <time>2019-05-23T13:24:10+02:00</time>
      </trkpt>
      <trkpt lat="44.60173" lon="-0.25492">
        <ele>41</ele>
        <time>2019-05-23T13:24:19+02:00</time>
      </trkpt>
      <trkpt lat="44.60166" lon="-0.25499">
        <ele>40</ele>
        <time>2019-05-23T13:24:28+02:00</time>
      </trkpt>
      <trkpt lat="44.60162" lon="-0.25511">
        <ele>40</ele>
        <time>2019-05-23T13:24:36+02:00</time>
      </trkpt>
      <trkpt lat="44.60158" lon="-0.25526">
        <ele>40</ele>
        <time>2019-05-23T13:24:45+02:00</time>
      </trkpt>
      <trkpt lat="44.60153" lon="-0.25543">
        <ele>40</ele>
        <time>2019-05-23T13:25:02+02:00</time>
      </trkpt>
      <trkpt lat="44.60145" lon="-0.2555">
        <ele>40</ele>
        <time>2019-05-23T13:25:45+02:00</time>
      </trkpt>
      <trkpt lat="44.60142" lon="-0.25567">
        <ele>40</ele>
        <time>2019-05-23T13:25:53+02:00</time>
      </trkpt>
      <trkpt lat="44.60139" lon="-0.25582">
        <ele>40</ele>
        <time>2019-05-23T13:26:01+02:00</time>
      </trkpt>
      <trkpt lat="44.60136" lon="-0.25597">
        <ele>41</ele>
        <time>2019-05-23T13:26:09+02:00</time>
      </trkpt>
      <trkpt lat="44.60135" lon="-0.2561">
        <ele>41</ele>
        <time>2019-05-23T13:26:18+02:00</time>
      </trkpt>
      <trkpt lat="44.60132" lon="-0.25624">
        <ele>42</ele>
        <time>2019-05-23T13:26:25+02:00</time>
      </trkpt>
      <trkpt lat="44.60128" lon="-0.25638">
        <ele>43</ele>
        <time>2019-05-23T13:26:33+02:00</time>
      </trkpt>
      <trkpt lat="44.60126" lon="-0.25652">
        <ele>44</ele>
        <time>2019-05-23T13:26:40+02:00</time>
      </trkpt>
      <trkpt lat="44.60124" lon="-0.25666">
        <ele>45</ele>
        <time>2019-05-23T13:26:47+02:00</time>
      </trkpt>
      <trkpt lat="44.6012" lon="-0.2568">
        <ele>45</ele>
        <time>2019-05-23T13:26:57+02:00</time>
      </trkpt>
      <trkpt lat="44.60112" lon="-0.25692">
        <ele>46</ele>
        <time>2019-05-23T13:27:06+02:00</time>
      </trkpt>
      <trkpt lat="44.60106" lon="-0.25703">
        <ele>47</ele>
        <time>2019-05-23T13:27:15+02:00</time>
      </trkpt>
      <trkpt lat="44.60096" lon="-0.25714">
        <ele>48</ele>
        <time>2019-05-23T13:27:23+02:00</time>
      </trkpt>
      <trkpt lat="44.60086" lon="-0.25723">
        <ele>49</ele>
        <time>2019-05-23T13:27:33+02:00</time>
      </trkpt>
      <trkpt lat="44.60077" lon="-0.25727">
        <ele>50</ele>
        <time>2019-05-23T13:27:43+02:00</time>
      </trkpt>
      <trkpt lat="44.60063" lon="-0.25729">
        <ele>50</ele>
        <time>2019-05-23T13:27:52+02:00</time>
      </trkpt>
      <trkpt lat="44.6005" lon="-0.25731">
        <ele>51</ele>
        <time>2019-05-23T13:28:01+02:00</time>
      </trkpt>
      <trkpt lat="44.6004" lon="-0.25731">
        <ele>52</ele>
        <time>2019-05-23T13:28:09+02:00</time>
      </trkpt>
      <trkpt lat="44.60029" lon="-0.25735">
        <ele>52</ele>
        <time>2019-05-23T13:28:17+02:00</time>
      </trkpt>
      <trkpt lat="44.60018" lon="-0.25736">
        <ele>53</ele>
        <time>2019-05-23T13:28:25+02:00</time>
      </trkpt>
      <trkpt lat="44.60008" lon="-0.25741">
        <ele>54</ele>
        <time>2019-05-23T13:28:33+02:00</time>
      </trkpt>
      <trkpt lat="44.59998" lon="-0.25743">
        <ele>54</ele>
        <time>2019-05-23T13:28:41+02:00</time>
      </trkpt>
      <trkpt lat="44.59989" lon="-0.25748">
        <ele>54</ele>
        <time>2019-05-23T13:28:48+02:00</time>
      </trkpt>
      <trkpt lat="44.59979" lon="-0.25754">
        <ele>54</ele>
        <time>2019-05-23T13:28:56+02:00</time>
      </trkpt>
      <trkpt lat="44.5997" lon="-0.25758">
        <ele>54</ele>
        <time>2019-05-23T13:29:03+02:00</time>
      </trkpt>
      <trkpt lat="44.59963" lon="-0.25766">
        <ele>54</ele>
        <time>2019-05-23T13:29:10+02:00</time>
      </trkpt>
      <trkpt lat="44.59955" lon="-0.25773">
        <ele>55</ele>
        <time>2019-05-23T13:29:17+02:00</time>
      </trkpt>
      <trkpt lat="44.59945" lon="-0.25776">
        <ele>55</ele>
        <time>2019-05-23T13:29:25+02:00</time>
      </trkpt>
      <trkpt lat="44.59941" lon="-0.25767">
        <ele>54</ele>
        <time>2019-05-23T13:29:49+02:00</time>
      </trkpt>
      <trkpt lat="44.59935" lon="-0.25757">
        <ele>54</ele>
        <time>2019-05-23T13:29:57+02:00</time>
      </trkpt>
      <trkpt lat="44.59927" lon="-0.25748">
        <ele>54</ele>
        <time>2019-05-23T13:30:04+02:00</time>
      </trkpt>
      <trkpt lat="44.59921" lon="-0.25738">
        <ele>54</ele>
        <time>2019-05-23T13:30:11+02:00</time>
      </trkpt>
      <trkpt lat="44.59914" lon="-0.25729">
        <ele>53</ele>
        <time>2019-05-23T13:30:18+02:00</time>
      </trkpt>
      <trkpt lat="44.59908" lon="-0.25719">
        <ele>53</ele>
        <time>2019-05-23T13:30:25+02:00</time>
      </trkpt>
      <trkpt lat="44.59902" lon="-0.25709">
        <ele>53</ele>
        <time>2019-05-23T13:30:32+02:00</time>
      </trkpt>
      <trkpt lat="44.59894" lon="-0.257">
        <ele>52</ele>
        <time>2019-05-23T13:30:39+02:00</time>
      </trkpt>
      <trkpt lat="44.59888" lon="-0.2569">
        <ele>52</ele>
        <time>2019-05-23T13:30:46+02:00</time>
      </trkpt>
      <trkpt lat="44.59881" lon="-0.25681">
        <ele>51</ele>
        <time>2019-05-23T13:30:53+02:00</time>
      </trkpt>
      <trkpt lat="44.59874" lon="-0.25671">
        <ele>51</ele>
        <time>2019-05-23T13:31:00+02:00</time>
      </trkpt>
      <trkpt lat="44.59867" lon="-0.25661">
        <ele>50</ele>
        <time>2019-05-23T13:31:07+02:00</time>
      </trkpt>
      <trkpt lat="44.5986" lon="-0.25651">
        <ele>50</ele>
        <time>2019-05-23T13:31:15+02:00</time>
      </trkpt>
      <trkpt lat="44.59852" lon="-0.2564">
        <ele>50</ele>
        <time>2019-05-23T13:31:23+02:00</time>
      </trkpt>
      <trkpt lat="44.59845" lon="-0.25648">
        <ele>50</ele>
        <time>2019-05-23T13:31:31+02:00</time>
      </trkpt>
      <trkpt lat="44.59839" lon="-0.25661">
        <ele>49</ele>
        <time>2019-05-23T13:31:39+02:00</time>
      </trkpt>
      <trkpt lat="44.59833" lon="-0.25672">
        <ele>49</ele>
        <time>2019-05-23T13:31:47+02:00</time>
      </trkpt>
      <trkpt lat="44.59826" lon="-0.25684">
        <ele>50</ele>
        <time>2019-05-23T13:31:56+02:00</time>
      </trkpt>
      <trkpt lat="44.59821" lon="-0.25696">
        <ele>51</ele>
        <time>2019-05-23T13:32:06+02:00</time>
      </trkpt>
      <trkpt lat="44.59814" lon="-0.25704">
        <ele>51</ele>
        <time>2019-05-23T13:32:16+02:00</time>
      </trkpt>
      <trkpt lat="44.59807" lon="-0.25713">
        <ele>52</ele>
        <time>2019-05-23T13:32:25+02:00</time>
      </trkpt>
      <trkpt lat="44.59802" lon="-0.25723">
        <ele>53</ele>
        <time>2019-05-23T13:32:33+02:00</time>
      </trkpt>
      <trkpt lat="44.59794" lon="-0.25732">
        <ele>54</ele>
        <time>2019-05-23T13:32:42+02:00</time>
      </trkpt>
      <trkpt lat="44.59788" lon="-0.25741">
        <ele>55</ele>
        <time>2019-05-23T13:32:50+02:00</time>
      </trkpt>
      <trkpt lat="44.59782" lon="-0.25751">
        <ele>56</ele>
        <time>2019-05-23T13:33:01+02:00</time>
      </trkpt>
      <trkpt lat="44.59776" lon="-0.2576">
        <ele>56</ele>
        <time>2019-05-23T13:33:09+02:00</time>
      </trkpt>
      <trkpt lat="44.59769" lon="-0.2577">
        <ele>57</ele>
        <time>2019-05-23T13:33:17+02:00</time>
      </trkpt>
      <trkpt lat="44.59762" lon="-0.25779">
        <ele>58</ele>
        <time>2019-05-23T13:33:25+02:00</time>
      </trkpt>
      <trkpt lat="44.59756" lon="-0.25791">
        <ele>59</ele>
        <time>2019-05-23T13:33:33+02:00</time>
      </trkpt>
      <trkpt lat="44.59753" lon="-0.25805">
        <ele>60</ele>
        <time>2019-05-23T13:33:40+02:00</time>
      </trkpt>
      <trkpt lat="44.59747" lon="-0.25815">
        <ele>60</ele>
        <time>2019-05-23T13:33:47+02:00</time>
      </trkpt>
      <trkpt lat="44.59743" lon="-0.25827">
        <ele>61</ele>
        <time>2019-05-23T13:33:54+02:00</time>
      </trkpt>
      <trkpt lat="44.59736" lon="-0.25836">
        <ele>61</ele>
        <time>2019-05-23T13:34:02+02:00</time>
      </trkpt>
      <trkpt lat="44.59729" lon="-0.25848">
        <ele>62</ele>
        <time>2019-05-23T13:34:10+02:00</time>
      </trkpt>
      <trkpt lat="44.59721" lon="-0.25855">
        <ele>63</ele>
        <time>2019-05-23T13:34:18+02:00</time>
      </trkpt>
      <trkpt lat="44.59712" lon="-0.25862">
        <ele>64</ele>
        <time>2019-05-23T13:34:25+02:00</time>
      </trkpt>
      <trkpt lat="44.59705" lon="-0.25871">
        <ele>65</ele>
        <time>2019-05-23T13:34:33+02:00</time>
      </trkpt>
      <trkpt lat="44.59697" lon="-0.25879">
        <ele>66</ele>
        <time>2019-05-23T13:34:41+02:00</time>
      </trkpt>
      <trkpt lat="44.59689" lon="-0.25887">
        <ele>67</ele>
        <time>2019-05-23T13:34:48+02:00</time>
      </trkpt>
      <trkpt lat="44.59679" lon="-0.25891">
        <ele>67</ele>
        <time>2019-05-23T13:34:56+02:00</time>
      </trkpt>
      <trkpt lat="44.59672" lon="-0.25899">
        <ele>68</ele>
        <time>2019-05-23T13:35:03+02:00</time>
      </trkpt>
      <trkpt lat="44.59665" lon="-0.25906">
        <ele>69</ele>
        <time>2019-05-23T13:35:10+02:00</time>
      </trkpt>
      <trkpt lat="44.59656" lon="-0.25914">
        <ele>71</ele>
        <time>2019-05-23T13:35:19+02:00</time>
      </trkpt>
      <trkpt lat="44.59647" lon="-0.2592">
        <ele>72</ele>
        <time>2019-05-23T13:35:27+02:00</time>
      </trkpt>
      <trkpt lat="44.59639" lon="-0.25926">
        <ele>73</ele>
        <time>2019-05-23T13:35:35+02:00</time>
      </trkpt>
      <trkpt lat="44.59629" lon="-0.25925">
        <ele>74</ele>
        <time>2019-05-23T13:35:43+02:00</time>
      </trkpt>
      <trkpt lat="44.59621" lon="-0.25917">
        <ele>74</ele>
        <time>2019-05-23T13:35:50+02:00</time>
      </trkpt>
      <trkpt lat="44.59612" lon="-0.25911">
        <ele>74</ele>
        <time>2019-05-23T13:35:57+02:00</time>
      </trkpt>
      <trkpt lat="44.59604" lon="-0.25904">
        <ele>74</ele>
        <time>2019-05-23T13:36:03+02:00</time>
      </trkpt>
      <trkpt lat="44.59597" lon="-0.25898">
        <ele>75</ele>
        <time>2019-05-23T13:36:10+02:00</time>
      </trkpt>
      <trkpt lat="44.59589" lon="-0.2589">
        <ele>75</ele>
        <time>2019-05-23T13:36:17+02:00</time>
      </trkpt>
      <trkpt lat="44.59579" lon="-0.25884">
        <ele>75</ele>
        <time>2019-05-23T13:36:24+02:00</time>
      </trkpt>
      <trkpt lat="44.59572" lon="-0.25874">
        <ele>75</ele>
        <time>2019-05-23T13:36:32+02:00</time>
      </trkpt>
      <trkpt lat="44.59564" lon="-0.25865">
        <ele>75</ele>
        <time>2019-05-23T13:36:39+02:00</time>
      </trkpt>
      <trkpt lat="44.59558" lon="-0.25855">
        <ele>75</ele>
        <time>2019-05-23T13:36:46+02:00</time>
      </trkpt>
      <trkpt lat="44.5955" lon="-0.25847">
        <ele>75</ele>
        <time>2019-05-23T13:36:53+02:00</time>
      </trkpt>
      <trkpt lat="44.59543" lon="-0.25839">
        <ele>75</ele>
        <time>2019-05-23T13:37:00+02:00</time>
      </trkpt>
      <trkpt lat="44.59537" lon="-0.25848">
        <ele>76</ele>
        <time>2019-05-23T13:37:08+02:00</time>
      </trkpt>
      <trkpt lat="44.59531" lon="-0.25861">
        <ele>77</ele>
        <time>2019-05-23T13:37:18+02:00</time>
      </trkpt>
      <trkpt lat="44.59526" lon="-0.25873">
        <ele>79</ele>
        <time>2019-05-23T13:37:26+02:00</time>
      </trkpt>
      <trkpt lat="44.59521" lon="-0.25884">
        <ele>80</ele>
        <time>2019-05-23T13:37:35+02:00</time>
      </trkpt>
      <trkpt lat="44.59513" lon="-0.25892">
        <ele>81</ele>
        <time>2019-05-23T13:37:44+02:00</time>
      </trkpt>
      <trkpt lat="44.59507" lon="-0.259">
        <ele>82</ele>
        <time>2019-05-23T13:38:44+02:00</time>
      </trkpt>
      <trkpt lat="44.59498" lon="-0.25904">
        <ele>82</ele>
        <time>2019-05-23T13:39:37+02:00</time>
      </trkpt>
      <trkpt lat="44.59489" lon="-0.25907">
        <ele>81</ele>
        <time>2019-05-23T13:39:46+02:00</time>
      </trkpt>
      <trkpt lat="44.59479" lon="-0.2591">
        <ele>80</ele>
        <time>2019-05-23T13:39:56+02:00</time>
      </trkpt>
      <trkpt lat="44.59471" lon="-0.25913">
        <ele>79</ele>
        <time>2019-05-23T13:40:29+02:00</time>
      </trkpt>
      <trkpt lat="44.59463" lon="-0.25915">
        <ele>78</ele>
        <time>2019-05-23T13:41:03+02:00</time>
      </trkpt>
      <trkpt lat="44.59454" lon="-0.25919">
        <ele>77</ele>
        <time>2019-05-23T13:41:13+02:00</time>
      </trkpt>
      <trkpt lat="44.59444" lon="-0.25921">
        <ele>76</ele>
        <time>2019-05-23T13:41:22+02:00</time>
      </trkpt>
      <trkpt lat="44.59434" lon="-0.25924">
        <ele>74</ele>
        <time>2019-05-23T13:41:31+02:00</time>
      </trkpt>
      <trkpt lat="44.59424" lon="-0.25926">
        <ele>73</ele>
        <time>2019-05-23T13:41:39+02:00</time>
      </trkpt>
      <trkpt lat="44.59414" lon="-0.25929">
        <ele>72</ele>
        <time>2019-05-23T13:41:47+02:00</time>
      </trkpt>
      <trkpt lat="44.59403" lon="-0.25928">
        <ele>70</ele>
        <time>2019-05-23T13:41:56+02:00</time>
      </trkpt>
      <trkpt lat="44.59394" lon="-0.25926">
        <ele>69</ele>
        <time>2019-05-23T13:42:04+02:00</time>
      </trkpt>
      <trkpt lat="44.59385" lon="-0.25928">
        <ele>68</ele>
        <time>2019-05-23T13:42:12+02:00</time>
      </trkpt>
      <trkpt lat="44.59374" lon="-0.25928">
        <ele>66</ele>
        <time>2019-05-23T13:42:21+02:00</time>
      </trkpt>
      <trkpt lat="44.59364" lon="-0.25929">
        <ele>65</ele>
        <time>2019-05-23T13:42:28+02:00</time>
      </trkpt>
      <trkpt lat="44.59354" lon="-0.2593">
        <ele>64</ele>
        <time>2019-05-23T13:42:36+02:00</time>
      </trkpt>
      <trkpt lat="44.59344" lon="-0.25931">
        <ele>62</ele>
        <time>2019-05-23T13:42:44+02:00</time>
      </trkpt>
      <trkpt lat="44.59334" lon="-0.25932">
        <ele>61</ele>
        <time>2019-05-23T13:42:52+02:00</time>
      </trkpt>
      <trkpt lat="44.59324" lon="-0.25932">
        <ele>60</ele>
        <time>2019-05-23T13:43:00+02:00</time>
      </trkpt>
      <trkpt lat="44.59318" lon="-0.25923">
        <ele>60</ele>
        <time>2019-05-23T13:43:10+02:00</time>
      </trkpt>
      <trkpt lat="44.59316" lon="-0.25911">
        <ele>60</ele>
        <time>2019-05-23T13:43:22+02:00</time>
      </trkpt>
      <trkpt lat="44.59315" lon="-0.25896">
        <ele>60</ele>
        <time>2019-05-23T13:43:30+02:00</time>
      </trkpt>
      <trkpt lat="44.59312" lon="-0.25882">
        <ele>61</ele>
        <time>2019-05-23T13:43:38+02:00</time>
      </trkpt>
      <trkpt lat="44.59309" lon="-0.25868">
        <ele>61</ele>
        <time>2019-05-23T13:43:46+02:00</time>
      </trkpt>
      <trkpt lat="44.59304" lon="-0.25856">
        <ele>61</ele>
        <time>2019-05-23T13:43:52+02:00</time>
      </trkpt>
      <trkpt lat="44.59296" lon="-0.25849">
        <ele>60</ele>
        <time>2019-05-23T13:44:00+02:00</time>
      </trkpt>
      <trkpt lat="44.59289" lon="-0.25849">
        <ele>60</ele>
        <time>2019-05-23T13:44:10+02:00</time>
      </trkpt>
      <trkpt lat="44.5928" lon="-0.25841">
        <ele>59</ele>
        <time>2019-05-23T13:44:18+02:00</time>
      </trkpt>
      <trkpt lat="44.59272" lon="-0.25833">
        <ele>58</ele>
        <time>2019-05-23T13:44:26+02:00</time>
      </trkpt>
      <trkpt lat="44.59265" lon="-0.25826">
        <ele>57</ele>
        <time>2019-05-23T13:44:33+02:00</time>
      </trkpt>
      <trkpt lat="44.59258" lon="-0.25817">
        <ele>57</ele>
        <time>2019-05-23T13:44:41+02:00</time>
      </trkpt>
      <trkpt lat="44.5925" lon="-0.25812">
        <ele>57</ele>
        <time>2019-05-23T13:44:50+02:00</time>
      </trkpt>
      <trkpt lat="44.59247" lon="-0.25825">
        <ele>55</ele>
        <time>2019-05-23T13:44:59+02:00</time>
      </trkpt>
      <trkpt lat="44.59244" lon="-0.25839">
        <ele>54</ele>
        <time>2019-05-23T13:45:06+02:00</time>
      </trkpt>
      <trkpt lat="44.59241" lon="-0.25854">
        <ele>54</ele>
        <time>2019-05-23T13:45:15+02:00</time>
      </trkpt>
      <trkpt lat="44.59237" lon="-0.25866">
        <ele>54</ele>
        <time>2019-05-23T13:45:23+02:00</time>
      </trkpt>
      <trkpt lat="44.59234" lon="-0.2588">
        <ele>53</ele>
        <time>2019-05-23T13:45:31+02:00</time>
      </trkpt>
      <trkpt lat="44.59231" lon="-0.25894">
        <ele>53</ele>
        <time>2019-05-23T13:45:39+02:00</time>
      </trkpt>
      <trkpt lat="44.59228" lon="-0.25908">
        <ele>52</ele>
        <time>2019-05-23T13:45:47+02:00</time>
      </trkpt>
      <trkpt lat="44.59224" lon="-0.25921">
        <ele>52</ele>
        <time>2019-05-23T13:45:54+02:00</time>
      </trkpt>
      <trkpt lat="44.59222" lon="-0.25933">
        <ele>52</ele>
        <time>2019-05-23T13:46:01+02:00</time>
      </trkpt>
      <trkpt lat="44.59218" lon="-0.25947">
        <ele>52</ele>
        <time>2019-05-23T13:46:08+02:00</time>
      </trkpt>
      <trkpt lat="44.59215" lon="-0.25959">
        <ele>51</ele>
        <time>2019-05-23T13:46:15+02:00</time>
      </trkpt>
      <trkpt lat="44.59209" lon="-0.25964">
        <ele>51</ele>
        <time>2019-05-23T13:46:23+02:00</time>
      </trkpt>
      <trkpt lat="44.59209" lon="-0.2595">
        <ele>51</ele>
        <time>2019-05-23T13:46:30+02:00</time>
      </trkpt>
      <trkpt lat="44.59202" lon="-0.25941">
        <ele>50</ele>
        <time>2019-05-23T13:46:37+02:00</time>
      </trkpt>
      <trkpt lat="44.59193" lon="-0.25935">
        <ele>49</ele>
        <time>2019-05-23T13:46:44+02:00</time>
      </trkpt>
      <trkpt lat="44.59184" lon="-0.2593">
        <ele>49</ele>
        <time>2019-05-23T13:46:50+02:00</time>
      </trkpt>
      <trkpt lat="44.59173" lon="-0.25925">
        <ele>48</ele>
        <time>2019-05-23T13:46:57+02:00</time>
      </trkpt>
      <trkpt lat="44.59163" lon="-0.25919">
        <ele>47</ele>
        <time>2019-05-23T13:47:03+02:00</time>
      </trkpt>
      <trkpt lat="44.59154" lon="-0.25913">
        <ele>46</ele>
        <time>2019-05-23T13:47:09+02:00</time>
      </trkpt>
      <trkpt lat="44.59145" lon="-0.25906">
        <ele>46</ele>
        <time>2019-05-23T13:47:15+02:00</time>
      </trkpt>
      <trkpt lat="44.59135" lon="-0.25903">
        <ele>45</ele>
        <time>2019-05-23T13:47:21+02:00</time>
      </trkpt>
      <trkpt lat="44.59127" lon="-0.25897">
        <ele>45</ele>
        <time>2019-05-23T13:47:28+02:00</time>
      </trkpt>
      <trkpt lat="44.59117" lon="-0.2589">
        <ele>44</ele>
        <time>2019-05-23T13:47:35+02:00</time>
      </trkpt>
      <trkpt lat="44.59108" lon="-0.25884">
        <ele>44</ele>
        <time>2019-05-23T13:47:42+02:00</time>
      </trkpt>
      <trkpt lat="44.59099" lon="-0.25878">
        <ele>43</ele>
        <time>2019-05-23T13:47:48+02:00</time>
      </trkpt>
      <trkpt lat="44.5909" lon="-0.25874">
        <ele>42</ele>
        <time>2019-05-23T13:47:55+02:00</time>
      </trkpt>
      <trkpt lat="44.59081" lon="-0.2587">
        <ele>42</ele>
        <time>2019-05-23T13:48:01+02:00</time>
      </trkpt>
      <trkpt lat="44.59073" lon="-0.25863">
        <ele>42</ele>
        <time>2019-05-23T13:48:08+02:00</time>
      </trkpt>
      <trkpt lat="44.59063" lon="-0.2586">
        <ele>41</ele>
        <time>2019-05-23T13:48:15+02:00</time>
      </trkpt>
      <trkpt lat="44.59054" lon="-0.25854">
        <ele>41</ele>
        <time>2019-05-23T13:48:22+02:00</time>
      </trkpt>
      <trkpt lat="44.59044" lon="-0.25847">
        <ele>40</ele>
        <time>2019-05-23T13:48:30+02:00</time>
      </trkpt>
      <trkpt lat="44.59035" lon="-0.25842">
        <ele>40</ele>
        <time>2019-05-23T13:48:39+02:00</time>
      </trkpt>
      <trkpt lat="44.59026" lon="-0.25835">
        <ele>39</ele>
        <time>2019-05-23T13:48:48+02:00</time>
      </trkpt>
      <trkpt lat="44.59015" lon="-0.25828">
        <ele>39</ele>
        <time>2019-05-23T13:48:57+02:00</time>
      </trkpt>
      <trkpt lat="44.59004" lon="-0.25821">
        <ele>39</ele>
        <time>2019-05-23T13:49:07+02:00</time>
      </trkpt>
      <trkpt lat="44.58993" lon="-0.25815">
        <ele>38</ele>
        <time>2019-05-23T13:49:15+02:00</time>
      </trkpt>
      <trkpt lat="44.58983" lon="-0.2581">
        <ele>38</ele>
        <time>2019-05-23T13:49:23+02:00</time>
      </trkpt>
      <trkpt lat="44.58974" lon="-0.25805">
        <ele>38</ele>
        <time>2019-05-23T13:49:31+02:00</time>
      </trkpt>
      <trkpt lat="44.58964" lon="-0.25799">
        <ele>37</ele>
        <time>2019-05-23T13:49:38+02:00</time>
      </trkpt>
      <trkpt lat="44.58955" lon="-0.25795">
        <ele>37</ele>
        <time>2019-05-23T13:49:45+02:00</time>
      </trkpt>
      <trkpt lat="44.58946" lon="-0.25788">
        <ele>37</ele>
        <time>2019-05-23T13:49:53+02:00</time>
      </trkpt>
      <trkpt lat="44.58936" lon="-0.25784">
        <ele>36</ele>
        <time>2019-05-23T13:50:02+02:00</time>
      </trkpt>
      <trkpt lat="44.58926" lon="-0.25792">
        <ele>35</ele>
        <time>2019-05-23T13:50:15+02:00</time>
      </trkpt>
      <trkpt lat="44.58915" lon="-0.25797">
        <ele>35</ele>
        <time>2019-05-23T13:50:27+02:00</time>
      </trkpt>
      <trkpt lat="44.58914" lon="-0.25813">
        <ele>35</ele>
        <time>2019-05-23T13:50:40+02:00</time>
      </trkpt>
      <trkpt lat="44.58911" lon="-0.25828">
        <ele>36</ele>
        <time>2019-05-23T13:50:49+02:00</time>
      </trkpt>
      <trkpt lat="44.58906" lon="-0.25842">
        <ele>36</ele>
        <time>2019-05-23T13:50:57+02:00</time>
      </trkpt>
      <trkpt lat="44.58904" lon="-0.25858">
        <ele>36</ele>
        <time>2019-05-23T13:51:05+02:00</time>
      </trkpt>
      <trkpt lat="44.589" lon="-0.25872">
        <ele>36</ele>
        <time>2019-05-23T13:51:13+02:00</time>
      </trkpt>
      <trkpt lat="44.58898" lon="-0.25886">
        <ele>37</ele>
        <time>2019-05-23T13:51:21+02:00</time>
      </trkpt>
      <trkpt lat="44.58899" lon="-0.25901">
        <ele>37</ele>
        <time>2019-05-23T13:51:32+02:00</time>
      </trkpt>
      <trkpt lat="44.58895" lon="-0.25917">
        <ele>37</ele>
        <time>2019-05-23T13:52:04+02:00</time>
      </trkpt>
      <trkpt lat="44.58893" lon="-0.25938">
        <ele>36</ele>
        <time>2019-05-23T13:52:17+02:00</time>
      </trkpt>
      <trkpt lat="44.58886" lon="-0.25958">
        <ele>36</ele>
        <time>2019-05-23T13:52:27+02:00</time>
      </trkpt>
      <trkpt lat="44.58876" lon="-0.25971">
        <ele>35</ele>
        <time>2019-05-23T13:52:36+02:00</time>
      </trkpt>
      <trkpt lat="44.5887" lon="-0.25983">
        <ele>34</ele>
        <time>2019-05-23T13:52:44+02:00</time>
      </trkpt>
      <trkpt lat="44.58866" lon="-0.25999">
        <ele>33</ele>
        <time>2019-05-23T13:52:55+02:00</time>
      </trkpt>
      <trkpt lat="44.58862" lon="-0.26015">
        <ele>33</ele>
        <time>2019-05-23T13:53:04+02:00</time>
      </trkpt>
      <trkpt lat="44.58856" lon="-0.2603">
        <ele>32</ele>
        <time>2019-05-23T13:53:12+02:00</time>
      </trkpt>
      <trkpt lat="44.58853" lon="-0.26042">
        <ele>32</ele>
        <time>2019-05-23T13:53:19+02:00</time>
      </trkpt>
      <trkpt lat="44.58851" lon="-0.26057">
        <ele>32</ele>
        <time>2019-05-23T13:53:26+02:00</time>
      </trkpt>
      <trkpt lat="44.58849" lon="-0.26069">
        <ele>31</ele>
        <time>2019-05-23T13:53:33+02:00</time>
      </trkpt>
      <trkpt lat="44.58845" lon="-0.26083">
        <ele>31</ele>
        <time>2019-05-23T13:53:40+02:00</time>
      </trkpt>
      <trkpt lat="44.58843" lon="-0.26096">
        <ele>32</ele>
        <time>2019-05-23T13:53:47+02:00</time>
      </trkpt>
      <trkpt lat="44.58838" lon="-0.26108">
        <ele>32</ele>
        <time>2019-05-23T13:53:55+02:00</time>
      </trkpt>
      <trkpt lat="44.58833" lon="-0.26121">
        <ele>33</ele>
        <time>2019-05-23T13:54:03+02:00</time>
      </trkpt>
      <trkpt lat="44.5883" lon="-0.26135">
        <ele>33</ele>
        <time>2019-05-23T13:54:11+02:00</time>
      </trkpt>
      <trkpt lat="44.58826" lon="-0.26146">
        <ele>34</ele>
        <time>2019-05-23T13:54:18+02:00</time>
      </trkpt>
      <trkpt lat="44.58819" lon="-0.26158">
        <ele>34</ele>
        <time>2019-05-23T13:54:27+02:00</time>
      </trkpt>
      <trkpt lat="44.58812" lon="-0.26169">
        <ele>34</ele>
        <time>2019-05-23T13:54:35+02:00</time>
      </trkpt>
      <trkpt lat="44.58811" lon="-0.26181">
        <ele>35</ele>
        <time>2019-05-23T13:54:43+02:00</time>
      </trkpt>
      <trkpt lat="44.58808" lon="-0.26194">
        <ele>35</ele>
        <time>2019-05-23T13:54:54+02:00</time>
      </trkpt>
      <trkpt lat="44.58802" lon="-0.26209">
        <ele>36</ele>
        <time>2019-05-23T13:55:08+02:00</time>
      </trkpt>
      <trkpt lat="44.58793" lon="-0.2622">
        <ele>36</ele>
        <time>2019-05-23T13:55:20+02:00</time>
      </trkpt>
      <trkpt lat="44.58781" lon="-0.26232">
        <ele>36</ele>
        <time>2019-05-23T13:55:32+02:00</time>
      </trkpt>
      <trkpt lat="44.58768" lon="-0.26242">
        <ele>35</ele>
        <time>2019-05-23T13:55:41+02:00</time>
      </trkpt>
      <trkpt lat="44.58756" lon="-0.26254">
        <ele>34</ele>
        <time>2019-05-23T13:55:52+02:00</time>
      </trkpt>
      <trkpt lat="44.58744" lon="-0.26263">
        <ele>33</ele>
        <time>2019-05-23T13:56:02+02:00</time>
      </trkpt>
      <trkpt lat="44.58733" lon="-0.26279">
        <ele>31</ele>
        <time>2019-05-23T13:56:13+02:00</time>
      </trkpt>
      <trkpt lat="44.58724" lon="-0.26288">
        <ele>30</ele>
        <time>2019-05-23T13:56:21+02:00</time>
      </trkpt>
      <trkpt lat="44.58713" lon="-0.26299">
        <ele>28</ele>
        <time>2019-05-23T13:56:29+02:00</time>
      </trkpt>
      <trkpt lat="44.58702" lon="-0.26308">
        <ele>27</ele>
        <time>2019-05-23T13:56:37+02:00</time>
      </trkpt>
      <trkpt lat="44.58692" lon="-0.26318">
        <ele>25</ele>
        <time>2019-05-23T13:56:46+02:00</time>
      </trkpt>
      <trkpt lat="44.58689" lon="-0.26332">
        <ele>24</ele>
        <time>2019-05-23T13:56:55+02:00</time>
      </trkpt>
      <trkpt lat="44.5869" lon="-0.26346">
        <ele>24</ele>
        <time>2019-05-23T13:57:02+02:00</time>
      </trkpt>
      <trkpt lat="44.58688" lon="-0.26362">
        <ele>24</ele>
        <time>2019-05-23T13:57:10+02:00</time>
      </trkpt>
      <trkpt lat="44.58685" lon="-0.26377">
        <ele>24</ele>
        <time>2019-05-23T13:57:18+02:00</time>
      </trkpt>
      <trkpt lat="44.58683" lon="-0.26392">
        <ele>24</ele>
        <time>2019-05-23T13:57:26+02:00</time>
      </trkpt>
      <trkpt lat="44.5868" lon="-0.26405">
        <ele>24</ele>
        <time>2019-05-23T13:57:33+02:00</time>
      </trkpt>
      <trkpt lat="44.58678" lon="-0.26419">
        <ele>24</ele>
        <time>2019-05-23T13:57:41+02:00</time>
      </trkpt>
      <trkpt lat="44.58674" lon="-0.26433">
        <ele>24</ele>
        <time>2019-05-23T13:57:49+02:00</time>
      </trkpt>
      <trkpt lat="44.5867" lon="-0.26446">
        <ele>24</ele>
        <time>2019-05-23T13:57:57+02:00</time>
      </trkpt>
      <trkpt lat="44.58665" lon="-0.26459">
        <ele>23</ele>
        <time>2019-05-23T13:58:05+02:00</time>
      </trkpt>
      <trkpt lat="44.5866" lon="-0.2647">
        <ele>23</ele>
        <time>2019-05-23T13:58:13+02:00</time>
      </trkpt>
      <trkpt lat="44.58654" lon="-0.26483">
        <ele>22</ele>
        <time>2019-05-23T13:58:21+02:00</time>
      </trkpt>
      <trkpt lat="44.58649" lon="-0.26497">
        <ele>22</ele>
        <time>2019-05-23T13:58:29+02:00</time>
      </trkpt>
      <trkpt lat="44.58645" lon="-0.26512">
        <ele>22</ele>
        <time>2019-05-23T13:58:37+02:00</time>
      </trkpt>
      <trkpt lat="44.58642" lon="-0.26527">
        <ele>21</ele>
        <time>2019-05-23T13:58:45+02:00</time>
      </trkpt>
      <trkpt lat="44.58638" lon="-0.26541">
        <ele>21</ele>
        <time>2019-05-23T13:58:53+02:00</time>
      </trkpt>
      <trkpt lat="44.58635" lon="-0.26555">
        <ele>21</ele>
        <time>2019-05-23T13:59:00+02:00</time>
      </trkpt>
      <trkpt lat="44.58632" lon="-0.26569">
        <ele>21</ele>
        <time>2019-05-23T13:59:08+02:00</time>
      </trkpt>
      <trkpt lat="44.58628" lon="-0.26583">
        <ele>21</ele>
        <time>2019-05-23T13:59:16+02:00</time>
      </trkpt>
      <trkpt lat="44.58626" lon="-0.26596">
        <ele>20</ele>
        <time>2019-05-23T13:59:24+02:00</time>
      </trkpt>
      <trkpt lat="44.58628" lon="-0.26609">
        <ele>20</ele>
        <time>2019-05-23T13:59:33+02:00</time>
      </trkpt>
      <trkpt lat="44.58634" lon="-0.2662">
        <ele>21</ele>
        <time>2019-05-23T13:59:43+02:00</time>
      </trkpt>
      <trkpt lat="44.58641" lon="-0.26628">
        <ele>21</ele>
        <time>2019-05-23T13:59:51+02:00</time>
      </trkpt>
      <trkpt lat="44.58649" lon="-0.26635">
        <ele>22</ele>
        <time>2019-05-23T13:59:58+02:00</time>
      </trkpt>
      <trkpt lat="44.58656" lon="-0.26643">
        <ele>22</ele>
        <time>2019-05-23T14:00:06+02:00</time>
      </trkpt>
      <trkpt lat="44.58665" lon="-0.26651">
        <ele>23</ele>
        <time>2019-05-23T14:00:14+02:00</time>
      </trkpt>
      <trkpt lat="44.58674" lon="-0.26659">
        <ele>24</ele>
        <time>2019-05-23T14:00:22+02:00</time>
      </trkpt>
      <trkpt lat="44.58682" lon="-0.26666">
        <ele>26</ele>
        <time>2019-05-23T14:00:30+02:00</time>
      </trkpt>
      <trkpt lat="44.58691" lon="-0.26674">
        <ele>27</ele>
        <time>2019-05-23T14:00:39+02:00</time>
      </trkpt>
      <trkpt lat="44.58699" lon="-0.26683">
        <ele>28</ele>
        <time>2019-05-23T14:00:48+02:00</time>
      </trkpt>
      <trkpt lat="44.58707" lon="-0.26691">
        <ele>30</ele>
        <time>2019-05-23T14:00:57+02:00</time>
      </trkpt>
      <trkpt lat="44.58715" lon="-0.26699">
        <ele>31</ele>
        <time>2019-05-23T14:01:06+02:00</time>
      </trkpt>
      <trkpt lat="44.58723" lon="-0.26708">
        <ele>32</ele>
        <time>2019-05-23T14:01:15+02:00</time>
      </trkpt>
      <trkpt lat="44.5873" lon="-0.26717">
        <ele>33</ele>
        <time>2019-05-23T14:01:23+02:00</time>
      </trkpt>
      <trkpt lat="44.58735" lon="-0.26729">
        <ele>34</ele>
        <time>2019-05-23T14:01:32+02:00</time>
      </trkpt>
      <trkpt lat="44.58742" lon="-0.2674">
        <ele>35</ele>
        <time>2019-05-23T14:01:40+02:00</time>
      </trkpt>
      <trkpt lat="44.58747" lon="-0.26752">
        <ele>35</ele>
        <time>2019-05-23T14:01:48+02:00</time>
      </trkpt>
      <trkpt lat="44.58754" lon="-0.26761">
        <ele>36</ele>
        <time>2019-05-23T14:01:57+02:00</time>
      </trkpt>
      <trkpt lat="44.58763" lon="-0.26768">
        <ele>38</ele>
        <time>2019-05-23T14:02:07+02:00</time>
      </trkpt>
      <trkpt lat="44.58773" lon="-0.2677">
        <ele>39</ele>
        <time>2019-05-23T14:02:16+02:00</time>
      </trkpt>
      <trkpt lat="44.58783" lon="-0.2677">
        <ele>41</ele>
        <time>2019-05-23T14:02:32+02:00</time>
      </trkpt>
      <trkpt lat="44.58793" lon="-0.26767">
        <ele>43</ele>
        <time>2019-05-23T14:02:41+02:00</time>
      </trkpt>
      <trkpt lat="44.58802" lon="-0.26773">
        <ele>44</ele>
        <time>2019-05-23T14:02:53+02:00</time>
      </trkpt>
      <trkpt lat="44.58811" lon="-0.26774">
        <ele>46</ele>
        <time>2019-05-23T14:03:03+02:00</time>
      </trkpt>
      <trkpt lat="44.58821" lon="-0.26773">
        <ele>47</ele>
        <time>2019-05-23T14:03:13+02:00</time>
      </trkpt>
      <trkpt lat="44.5883" lon="-0.26773">
        <ele>49</ele>
        <time>2019-05-23T14:03:23+02:00</time>
      </trkpt>
      <trkpt lat="44.58841" lon="-0.26773">
        <ele>52</ele>
        <time>2019-05-23T14:03:34+02:00</time>
      </trkpt>
      <trkpt lat="44.58852" lon="-0.26773">
        <ele>55</ele>
        <time>2019-05-23T14:03:45+02:00</time>
      </trkpt>
      <trkpt lat="44.58862" lon="-0.26771">
        <ele>58</ele>
        <time>2019-05-23T14:03:56+02:00</time>
      </trkpt>
      <trkpt lat="44.58873" lon="-0.26776">
        <ele>61</ele>
        <time>2019-05-23T14:04:07+02:00</time>
      </trkpt>
      <trkpt lat="44.58884" lon="-0.26777">
        <ele>64</ele>
        <time>2019-05-23T14:04:17+02:00</time>
      </trkpt>
      <trkpt lat="44.58894" lon="-0.26777">
        <ele>67</ele>
        <time>2019-05-23T14:04:29+02:00</time>
      </trkpt>
      <trkpt lat="44.58904" lon="-0.26778">
        <ele>69</ele>
        <time>2019-05-23T14:04:43+02:00</time>
      </trkpt>
      <trkpt lat="44.58915" lon="-0.2678">
        <ele>72</ele>
        <time>2019-05-23T14:04:57+02:00</time>
      </trkpt>
      <trkpt lat="44.58918" lon="-0.26789">
        <ele>73</ele>
        <time>2019-05-23T14:06:21+02:00</time>
      </trkpt>
      <trkpt lat="44.58921" lon="-0.26801">
        <ele>73</ele>
        <time>2019-05-23T14:06:29+02:00</time>
      </trkpt>
      <trkpt lat="44.58923" lon="-0.26814">
        <ele>73</ele>
        <time>2019-05-23T14:06:38+02:00</time>
      </trkpt>
      <trkpt lat="44.58926" lon="-0.26826">
        <ele>73</ele>
        <time>2019-05-23T14:06:46+02:00</time>
      </trkpt>
      <trkpt lat="44.58928" lon="-0.26841">
        <ele>73</ele>
        <time>2019-05-23T14:06:56+02:00</time>
      </trkpt>
      <trkpt lat="44.5893" lon="-0.26855">
        <ele>74</ele>
        <time>2019-05-23T14:07:05+02:00</time>
      </trkpt>
      <trkpt lat="44.58932" lon="-0.26869">
        <ele>75</ele>
        <time>2019-05-23T14:07:15+02:00</time>
      </trkpt>
      <trkpt lat="44.58933" lon="-0.26884">
        <ele>75</ele>
        <time>2019-05-23T14:07:24+02:00</time>
      </trkpt>
      <trkpt lat="44.58935" lon="-0.26899">
        <ele>75</ele>
        <time>2019-05-23T14:07:33+02:00</time>
      </trkpt>
      <trkpt lat="44.58934" lon="-0.26914">
        <ele>76</ele>
        <time>2019-05-23T14:07:41+02:00</time>
      </trkpt>
      <trkpt lat="44.58933" lon="-0.26928">
        <ele>75</ele>
        <time>2019-05-23T14:07:51+02:00</time>
      </trkpt>
      <trkpt lat="44.58937" lon="-0.26923">
        <ele>76</ele>
        <time>2019-05-23T14:08:02+02:00</time>
      </trkpt>
      <trkpt lat="44.5894" lon="-0.2691">
        <ele>77</ele>
        <time>2019-05-23T14:08:17+02:00</time>
      </trkpt>
      <trkpt lat="44.58948" lon="-0.26898">
        <ele>78</ele>
        <time>2019-05-23T14:08:29+02:00</time>
      </trkpt>
      <trkpt lat="44.58957" lon="-0.26891">
        <ele>80</ele>
        <time>2019-05-23T14:08:39+02:00</time>
      </trkpt>
      <trkpt lat="44.58967" lon="-0.26896">
        <ele>82</ele>
        <time>2019-05-23T14:08:51+02:00</time>
      </trkpt>
      <trkpt lat="44.58976" lon="-0.26897">
        <ele>84</ele>
        <time>2019-05-23T14:09:00+02:00</time>
      </trkpt>
      <trkpt lat="44.58984" lon="-0.26905">
        <ele>86</ele>
        <time>2019-05-23T14:09:10+02:00</time>
      </trkpt>
      <trkpt lat="44.5899" lon="-0.26916">
        <ele>87</ele>
        <time>2019-05-23T14:09:19+02:00</time>
      </trkpt>
      <trkpt lat="44.58999" lon="-0.26918">
        <ele>89</ele>
        <time>2019-05-23T14:09:27+02:00</time>
      </trkpt>
      <trkpt lat="44.59009" lon="-0.2692">
        <ele>90</ele>
        <time>2019-05-23T14:09:35+02:00</time>
      </trkpt>
      <trkpt lat="44.59018" lon="-0.26921">
        <ele>90</ele>
        <time>2019-05-23T14:09:43+02:00</time>
      </trkpt>
      <trkpt lat="44.59029" lon="-0.26924">
        <ele>91</ele>
        <time>2019-05-23T14:09:51+02:00</time>
      </trkpt>
      <trkpt lat="44.59038" lon="-0.26928">
        <ele>91</ele>
        <time>2019-05-23T14:09:59+02:00</time>
      </trkpt>
      <trkpt lat="44.59047" lon="-0.26933">
        <ele>92</ele>
        <time>2019-05-23T14:10:07+02:00</time>
      </trkpt>
      <trkpt lat="44.59057" lon="-0.26938">
        <ele>93</ele>
        <time>2019-05-23T14:10:15+02:00</time>
      </trkpt>
      <trkpt lat="44.59067" lon="-0.26942">
        <ele>93</ele>
        <time>2019-05-23T14:10:23+02:00</time>
      </trkpt>
      <trkpt lat="44.59076" lon="-0.26946">
        <ele>94</ele>
        <time>2019-05-23T14:10:31+02:00</time>
      </trkpt>
      <trkpt lat="44.59085" lon="-0.26951">
        <ele>94</ele>
        <time>2019-05-23T14:10:39+02:00</time>
      </trkpt>
      <trkpt lat="44.59094" lon="-0.26956">
        <ele>95</ele>
        <time>2019-05-23T14:10:47+02:00</time>
      </trkpt>
      <trkpt lat="44.59104" lon="-0.2696">
        <ele>95</ele>
        <time>2019-05-23T14:10:55+02:00</time>
      </trkpt>
      <trkpt lat="44.59114" lon="-0.26963">
        <ele>96</ele>
        <time>2019-05-23T14:11:03+02:00</time>
      </trkpt>
      <trkpt lat="44.59124" lon="-0.26968">
        <ele>96</ele>
        <time>2019-05-23T14:11:11+02:00</time>
      </trkpt>
      <trkpt lat="44.59133" lon="-0.26972">
        <ele>97</ele>
        <time>2019-05-23T14:11:18+02:00</time>
      </trkpt>
      <trkpt lat="44.59142" lon="-0.26977">
        <ele>97</ele>
        <time>2019-05-23T14:11:25+02:00</time>
      </trkpt>
      <trkpt lat="44.59151" lon="-0.2698">
        <ele>98</ele>
        <time>2019-05-23T14:11:32+02:00</time>
      </trkpt>
      <trkpt lat="44.59161" lon="-0.26986">
        <ele>98</ele>
        <time>2019-05-23T14:11:40+02:00</time>
      </trkpt>
      <trkpt lat="44.5917" lon="-0.26991">
        <ele>99</ele>
        <time>2019-05-23T14:11:47+02:00</time>
      </trkpt>
      <trkpt lat="44.59178" lon="-0.26997">
        <ele>99</ele>
        <time>2019-05-23T14:11:54+02:00</time>
      </trkpt>
      <trkpt lat="44.59187" lon="-0.27006">
        <ele>99</ele>
        <time>2019-05-23T14:12:02+02:00</time>
      </trkpt>
      <trkpt lat="44.59195" lon="-0.27013">
        <ele>99</ele>
        <time>2019-05-23T14:12:10+02:00</time>
      </trkpt>
      <trkpt lat="44.59204" lon="-0.2702">
        <ele>99</ele>
        <time>2019-05-23T14:12:17+02:00</time>
      </trkpt>
      <trkpt lat="44.59212" lon="-0.27026">
        <ele>99</ele>
        <time>2019-05-23T14:12:25+02:00</time>
      </trkpt>
      <trkpt lat="44.5922" lon="-0.27033">
        <ele>100</ele>
        <time>2019-05-23T14:12:32+02:00</time>
      </trkpt>
      <trkpt lat="44.59229" lon="-0.27041">
        <ele>100</ele>
        <time>2019-05-23T14:12:40+02:00</time>
      </trkpt>
      <trkpt lat="44.59237" lon="-0.27047">
        <ele>100</ele>
        <time>2019-05-23T14:12:47+02:00</time>
      </trkpt>
      <trkpt lat="44.59244" lon="-0.27057">
        <ele>101</ele>
        <time>2019-05-23T14:12:54+02:00</time>
      </trkpt>
      <trkpt lat="44.59251" lon="-0.27065">
        <ele>101</ele>
        <time>2019-05-23T14:13:01+02:00</time>
      </trkpt>
      <trkpt lat="44.59256" lon="-0.27076">
        <ele>102</ele>
        <time>2019-05-23T14:13:08+02:00</time>
      </trkpt>
      <trkpt lat="44.5926" lon="-0.27088">
        <ele>102</ele>
        <time>2019-05-23T14:13:15+02:00</time>
      </trkpt>
      <trkpt lat="44.59263" lon="-0.27102">
        <ele>102</ele>
        <time>2019-05-23T14:13:23+02:00</time>
      </trkpt>
      <trkpt lat="44.59266" lon="-0.27116">
        <ele>101</ele>
        <time>2019-05-23T14:13:31+02:00</time>
      </trkpt>
      <trkpt lat="44.5927" lon="-0.2713">
        <ele>101</ele>
        <time>2019-05-23T14:13:39+02:00</time>
      </trkpt>
      <trkpt lat="44.59273" lon="-0.27144">
        <ele>101</ele>
        <time>2019-05-23T14:13:47+02:00</time>
      </trkpt>
      <trkpt lat="44.59276" lon="-0.27156">
        <ele>101</ele>
        <time>2019-05-23T14:13:54+02:00</time>
      </trkpt>
      <trkpt lat="44.59281" lon="-0.27168">
        <ele>101</ele>
        <time>2019-05-23T14:14:02+02:00</time>
      </trkpt>
      <trkpt lat="44.59285" lon="-0.27181">
        <ele>101</ele>
        <time>2019-05-23T14:14:10+02:00</time>
      </trkpt>
      <trkpt lat="44.59289" lon="-0.27194">
        <ele>101</ele>
        <time>2019-05-23T14:14:18+02:00</time>
      </trkpt>
      <trkpt lat="44.59295" lon="-0.27205">
        <ele>101</ele>
        <time>2019-05-23T14:14:25+02:00</time>
      </trkpt>
      <trkpt lat="44.59299" lon="-0.27217">
        <ele>101</ele>
        <time>2019-05-23T14:14:32+02:00</time>
      </trkpt>
      <trkpt lat="44.59305" lon="-0.27228">
        <ele>101</ele>
        <time>2019-05-23T14:14:39+02:00</time>
      </trkpt>
      <trkpt lat="44.59309" lon="-0.2724">
        <ele>101</ele>
        <time>2019-05-23T14:14:47+02:00</time>
      </trkpt>
      <trkpt lat="44.59314" lon="-0.27253">
        <ele>102</ele>
        <time>2019-05-23T14:14:54+02:00</time>
      </trkpt>
      <trkpt lat="44.59318" lon="-0.27264">
        <ele>102</ele>
        <time>2019-05-23T14:15:01+02:00</time>
      </trkpt>
      <trkpt lat="44.59322" lon="-0.27277">
        <ele>102</ele>
        <time>2019-05-23T14:15:08+02:00</time>
      </trkpt>
      <trkpt lat="44.59327" lon="-0.27288">
        <ele>103</ele>
        <time>2019-05-23T14:15:15+02:00</time>
      </trkpt>
      <trkpt lat="44.59332" lon="-0.273">
        <ele>103</ele>
        <time>2019-05-23T14:15:22+02:00</time>
      </trkpt>
      <trkpt lat="44.59338" lon="-0.27312">
        <ele>103</ele>
        <time>2019-05-23T14:15:30+02:00</time>
      </trkpt>
      <trkpt lat="44.59345" lon="-0.27321">
        <ele>103</ele>
        <time>2019-05-23T14:15:38+02:00</time>
      </trkpt>
      <trkpt lat="44.59353" lon="-0.27331">
        <ele>103</ele>
        <time>2019-05-23T14:15:46+02:00</time>
      </trkpt>
      <trkpt lat="44.59359" lon="-0.27343">
        <ele>103</ele>
        <time>2019-05-23T14:15:55+02:00</time>
      </trkpt>
      <trkpt lat="44.59361" lon="-0.27359">
        <ele>103</ele>
        <time>2019-05-23T14:16:04+02:00</time>
      </trkpt>
      <trkpt lat="44.59365" lon="-0.27374">
        <ele>103</ele>
        <time>2019-05-23T14:16:12+02:00</time>
      </trkpt>
      <trkpt lat="44.59366" lon="-0.2739">
        <ele>102</ele>
        <time>2019-05-23T14:16:21+02:00</time>
      </trkpt>
      <trkpt lat="44.59366" lon="-0.27407">
        <ele>102</ele>
        <time>2019-05-23T14:16:30+02:00</time>
      </trkpt>
      <trkpt lat="44.59366" lon="-0.27423">
        <ele>101</ele>
        <time>2019-05-23T14:16:38+02:00</time>
      </trkpt>
      <trkpt lat="44.59367" lon="-0.27437">
        <ele>101</ele>
        <time>2019-05-23T14:16:46+02:00</time>
      </trkpt>
      <trkpt lat="44.59368" lon="-0.27452">
        <ele>100</ele>
        <time>2019-05-23T14:16:54+02:00</time>
      </trkpt>
      <trkpt lat="44.59371" lon="-0.27466">
        <ele>100</ele>
        <time>2019-05-23T14:17:02+02:00</time>
      </trkpt>
      <trkpt lat="44.59372" lon="-0.27481">
        <ele>100</ele>
        <time>2019-05-23T14:17:10+02:00</time>
      </trkpt>
      <trkpt lat="44.59373" lon="-0.27495">
        <ele>99</ele>
        <time>2019-05-23T14:17:17+02:00</time>
      </trkpt>
      <trkpt lat="44.59373" lon="-0.27508">
        <ele>99</ele>
        <time>2019-05-23T14:17:25+02:00</time>
      </trkpt>
      <trkpt lat="44.59372" lon="-0.27523">
        <ele>98</ele>
        <time>2019-05-23T14:17:33+02:00</time>
      </trkpt>
      <trkpt lat="44.59369" lon="-0.27538">
        <ele>98</ele>
        <time>2019-05-23T14:17:42+02:00</time>
      </trkpt>
      <trkpt lat="44.59367" lon="-0.27554">
        <ele>97</ele>
        <time>2019-05-23T14:17:50+02:00</time>
      </trkpt>
      <trkpt lat="44.59364" lon="-0.27568">
        <ele>96</ele>
        <time>2019-05-23T14:17:58+02:00</time>
      </trkpt>
      <trkpt lat="44.59362" lon="-0.27582">
        <ele>96</ele>
        <time>2019-05-23T14:18:05+02:00</time>
      </trkpt>
      <trkpt lat="44.59358" lon="-0.27596">
        <ele>95</ele>
        <time>2019-05-23T14:18:13+02:00</time>
      </trkpt>
      <trkpt lat="44.59356" lon="-0.27611">
        <ele>95</ele>
        <time>2019-05-23T14:18:21+02:00</time>
      </trkpt>
      <trkpt lat="44.59354" lon="-0.27625">
        <ele>95</ele>
        <time>2019-05-23T14:18:28+02:00</time>
      </trkpt>
      <trkpt lat="44.59351" lon="-0.27638">
        <ele>95</ele>
        <time>2019-05-23T14:18:36+02:00</time>
      </trkpt>
      <trkpt lat="44.5935" lon="-0.27653">
        <ele>94</ele>
        <time>2019-05-23T14:18:43+02:00</time>
      </trkpt>
      <trkpt lat="44.59347" lon="-0.27665">
        <ele>94</ele>
        <time>2019-05-23T14:18:50+02:00</time>
      </trkpt>
      <trkpt lat="44.59346" lon="-0.27679">
        <ele>94</ele>
        <time>2019-05-23T14:18:57+02:00</time>
      </trkpt>
      <trkpt lat="44.59344" lon="-0.27693">
        <ele>94</ele>
        <time>2019-05-23T14:19:05+02:00</time>
      </trkpt>
      <trkpt lat="44.59342" lon="-0.27705">
        <ele>94</ele>
        <time>2019-05-23T14:19:12+02:00</time>
      </trkpt>
      <trkpt lat="44.59341" lon="-0.27719">
        <ele>93</ele>
        <time>2019-05-23T14:19:19+02:00</time>
      </trkpt>
      <trkpt lat="44.59339" lon="-0.27732">
        <ele>93</ele>
        <time>2019-05-23T14:19:27+02:00</time>
      </trkpt>
      <trkpt lat="44.59339" lon="-0.27745">
        <ele>93</ele>
        <time>2019-05-23T14:19:34+02:00</time>
      </trkpt>
      <trkpt lat="44.59337" lon="-0.2776">
        <ele>93</ele>
        <time>2019-05-23T14:19:42+02:00</time>
      </trkpt>
      <trkpt lat="44.59335" lon="-0.27775">
        <ele>92</ele>
        <time>2019-05-23T14:19:50+02:00</time>
      </trkpt>
      <trkpt lat="44.59333" lon="-0.27789">
        <ele>92</ele>
        <time>2019-05-23T14:19:58+02:00</time>
      </trkpt>
      <trkpt lat="44.59333" lon="-0.27803">
        <ele>92</ele>
        <time>2019-05-23T14:20:06+02:00</time>
      </trkpt>
      <trkpt lat="44.59331" lon="-0.27816">
        <ele>91</ele>
        <time>2019-05-23T14:20:14+02:00</time>
      </trkpt>
      <trkpt lat="44.59327" lon="-0.27831">
        <ele>91</ele>
        <time>2019-05-23T14:20:22+02:00</time>
      </trkpt>
      <trkpt lat="44.59322" lon="-0.27846">
        <ele>91</ele>
        <time>2019-05-23T14:20:30+02:00</time>
      </trkpt>
      <trkpt lat="44.59318" lon="-0.27861">
        <ele>91</ele>
        <time>2019-05-23T14:20:38+02:00</time>
      </trkpt>
      <trkpt lat="44.59314" lon="-0.27874">
        <ele>90</ele>
        <time>2019-05-23T14:20:46+02:00</time>
      </trkpt>
      <trkpt lat="44.5931" lon="-0.27888">
        <ele>90</ele>
        <time>2019-05-23T14:20:54+02:00</time>
      </trkpt>
      <trkpt lat="44.59305" lon="-0.27902">
        <ele>90</ele>
        <time>2019-05-23T14:21:02+02:00</time>
      </trkpt>
      <trkpt lat="44.59299" lon="-0.27915">
        <ele>90</ele>
        <time>2019-05-23T14:21:09+02:00</time>
      </trkpt>
      <trkpt lat="44.59295" lon="-0.27926">
        <ele>90</ele>
        <time>2019-05-23T14:21:16+02:00</time>
      </trkpt>
      <trkpt lat="44.5929" lon="-0.27939">
        <ele>89</ele>
        <time>2019-05-23T14:21:23+02:00</time>
      </trkpt>
      <trkpt lat="44.59283" lon="-0.2795">
        <ele>89</ele>
        <time>2019-05-23T14:21:31+02:00</time>
      </trkpt>
      <trkpt lat="44.59281" lon="-0.27963">
        <ele>88</ele>
        <time>2019-05-23T14:21:38+02:00</time>
      </trkpt>
      <trkpt lat="44.59281" lon="-0.27977">
        <ele>88</ele>
        <time>2019-05-23T14:21:46+02:00</time>
      </trkpt>
      <trkpt lat="44.59284" lon="-0.2799">
        <ele>87</ele>
        <time>2019-05-23T14:21:53+02:00</time>
      </trkpt>
      <trkpt lat="44.59288" lon="-0.28002">
        <ele>87</ele>
        <time>2019-05-23T14:22:00+02:00</time>
      </trkpt>
      <trkpt lat="44.59292" lon="-0.28014">
        <ele>87</ele>
        <time>2019-05-23T14:22:06+02:00</time>
      </trkpt>
      <trkpt lat="44.59296" lon="-0.28028">
        <ele>87</ele>
        <time>2019-05-23T14:22:14+02:00</time>
      </trkpt>
      <trkpt lat="44.593" lon="-0.28041">
        <ele>87</ele>
        <time>2019-05-23T14:22:21+02:00</time>
      </trkpt>
      <trkpt lat="44.59305" lon="-0.28054">
        <ele>87</ele>
        <time>2019-05-23T14:22:29+02:00</time>
      </trkpt>
      <trkpt lat="44.5931" lon="-0.28067">
        <ele>87</ele>
        <time>2019-05-23T14:22:36+02:00</time>
      </trkpt>
      <trkpt lat="44.59314" lon="-0.28079">
        <ele>87</ele>
        <time>2019-05-23T14:22:43+02:00</time>
      </trkpt>
      <trkpt lat="44.59319" lon="-0.28091">
        <ele>87</ele>
        <time>2019-05-23T14:22:50+02:00</time>
      </trkpt>
      <trkpt lat="44.59321" lon="-0.28104">
        <ele>87</ele>
        <time>2019-05-23T14:22:57+02:00</time>
      </trkpt>
      <trkpt lat="44.59328" lon="-0.28115">
        <ele>88</ele>
        <time>2019-05-23T14:23:05+02:00</time>
      </trkpt>
      <trkpt lat="44.59334" lon="-0.28126">
        <ele>88</ele>
        <time>2019-05-23T14:23:13+02:00</time>
      </trkpt>
      <trkpt lat="44.5934" lon="-0.28138">
        <ele>88</ele>
        <time>2019-05-23T14:23:21+02:00</time>
      </trkpt>
      <trkpt lat="44.59343" lon="-0.28152">
        <ele>87</ele>
        <time>2019-05-23T14:23:30+02:00</time>
      </trkpt>
      <trkpt lat="44.59349" lon="-0.28165">
        <ele>87</ele>
        <time>2019-05-23T14:23:38+02:00</time>
      </trkpt>
      <trkpt lat="44.59359" lon="-0.28177">
        <ele>87</ele>
        <time>2019-05-23T14:23:46+02:00</time>
      </trkpt>
      <trkpt lat="44.59365" lon="-0.2819">
        <ele>87</ele>
        <time>2019-05-23T14:23:53+02:00</time>
      </trkpt>
      <trkpt lat="44.59367" lon="-0.28205">
        <ele>87</ele>
        <time>2019-05-23T14:24:02+02:00</time>
      </trkpt>
      <trkpt lat="44.59368" lon="-0.28221">
        <ele>87</ele>
        <time>2019-05-23T14:24:11+02:00</time>
      </trkpt>
      <trkpt lat="44.5937" lon="-0.28236">
        <ele>87</ele>
        <time>2019-05-23T14:24:19+02:00</time>
      </trkpt>
      <trkpt lat="44.5937" lon="-0.28251">
        <ele>86</ele>
        <time>2019-05-23T14:24:28+02:00</time>
      </trkpt>
      <trkpt lat="44.59373" lon="-0.28265">
        <ele>85</ele>
        <time>2019-05-23T14:24:38+02:00</time>
      </trkpt>
    </trkseg>
  </trk>
</gpx>